<?xml version="1.0" encoding="UTF-8" standalone="no" ?><gpx xmlns="http://www.topografix.com/GPX/1/1" xmlns:gpxx="http://www.garmin.com/xmlschemas/GpxExtensions/v3" xmlns:wptx1="http://www.garmin.com/xmlschemas/WaypointExtension/v1" xmlns:gpxtpx="http://www.garmin.com/xmlschemas/TrackPointExtension/v1" creator="GuideVTT.com" version="1.1" xmlns:xsi="http://www.w3.org/2001/XMLSchema-instance" xsi:schemaLocation="http://www.topografix.com/GPX/1/1 http://www.topografix.com/GPX/1/1/gpx.xsd http://www.garmin.com/xmlschemas/GpxExtensions/v3 http://www8.garmin.com/xmlschemas/GpxExtensionsv3.xsd http://www.garmin.com/xmlschemas/WaypointExtension/v1 http://www8.garmin.com/xmlschemas/WaypointExtensionv1.xsd http://www.garmin.com/xmlschemas/TrackPointExtension/v1 http://www.garmin.com/xmlschemas/TrackPointExtensionv1.xsd">
<metadata><link href="http://www.garmin.com"><text>Garmin International</text></link><time>2013-06-22T15:13:50Z</time></metadata>
<trk><name>a02.gpx</name><extensions><gpxx:TrackExtension><gpxx:DisplayColor>Cyan</gpxx:DisplayColor></gpxx:TrackExtension></extensions><trkseg>
<trkpt lat="45.394116" lon="4.456868"><ele></ele><time>2014-6-14T19:4:8Z</time></trkpt>
<trkpt lat="45.394114" lon="4.456882"><ele></ele><time>2014-6-14T19:4:11Z</time></trkpt>
<trkpt lat="45.394111" lon="4.45691"><ele></ele><time>2014-6-14T19:4:14Z</time></trkpt>
<trkpt lat="45.39411" lon="4.456871"><ele></ele><time>2014-6-14T19:4:17Z</time></trkpt>
<trkpt lat="45.394109" lon="4.456861"><ele></ele><time>2014-6-14T19:4:20Z</time></trkpt>
<trkpt lat="45.394108" lon="4.456836"><ele></ele><time>2014-6-14T19:4:23Z</time></trkpt>
<trkpt lat="45.394105" lon="4.456859"><ele></ele><time>2014-6-14T19:4:26Z</time></trkpt>
<trkpt lat="45.394105" lon="4.45687"><ele></ele><time>2014-6-14T19:4:29Z</time></trkpt>
<trkpt lat="45.394085" lon="4.456854"><ele></ele><time>2014-6-14T19:4:32Z</time></trkpt>
<trkpt lat="45.394072" lon="4.456884"><ele></ele><time>2014-6-14T19:4:35Z</time></trkpt>
<trkpt lat="45.394053" lon="4.456885"><ele></ele><time>2014-6-14T19:4:38Z</time></trkpt>
<trkpt lat="45.394041" lon="4.456884"><ele></ele><time>2014-6-14T19:4:41Z</time></trkpt>
<trkpt lat="45.394018" lon="4.456853"><ele></ele><time>2014-6-14T19:4:44Z</time></trkpt>
<trkpt lat="45.39399" lon="4.456846"><ele></ele><time>2014-6-14T19:4:47Z</time></trkpt>
<trkpt lat="45.393963" lon="4.456872"><ele></ele><time>2014-6-14T19:4:50Z</time></trkpt>
<trkpt lat="45.393951" lon="4.45694"><ele></ele><time>2014-6-14T19:4:53Z</time></trkpt>
<trkpt lat="45.39392" lon="4.456986"><ele></ele><time>2014-6-14T19:4:56Z</time></trkpt>
<trkpt lat="45.393905" lon="4.456978"><ele></ele><time>2014-6-14T19:4:59Z</time></trkpt>
<trkpt lat="45.393881" lon="4.456969"><ele></ele><time>2014-6-14T19:5:2Z</time></trkpt>
<trkpt lat="45.393867" lon="4.45701"><ele></ele><time>2014-6-14T19:5:5Z</time></trkpt>
<trkpt lat="45.393824" lon="4.457029"><ele></ele><time>2014-6-14T19:5:8Z</time></trkpt>
<trkpt lat="45.393797" lon="4.457031"><ele></ele><time>2014-6-14T19:5:11Z</time></trkpt>
<trkpt lat="45.393748" lon="4.45701"><ele></ele><time>2014-6-14T19:5:14Z</time></trkpt>
<trkpt lat="45.393727" lon="4.457001"><ele></ele><time>2014-6-14T19:5:17Z</time></trkpt>
<trkpt lat="45.393757" lon="4.457134"><ele></ele><time>2014-6-14T19:5:20Z</time></trkpt>
<trkpt lat="45.393792" lon="4.457185"><ele></ele><time>2014-6-14T19:5:23Z</time></trkpt>
<trkpt lat="45.393817" lon="4.457209"><ele></ele><time>2014-6-14T19:5:26Z</time></trkpt>
<trkpt lat="45.393855" lon="4.457194"><ele></ele><time>2014-6-14T19:5:29Z</time></trkpt>
<trkpt lat="45.393891" lon="4.45716"><ele></ele><time>2014-6-14T19:5:32Z</time></trkpt>
<trkpt lat="45.393937" lon="4.45716"><ele></ele><time>2014-6-14T19:5:35Z</time></trkpt>
<trkpt lat="45.39397" lon="4.457164"><ele></ele><time>2014-6-14T19:5:38Z</time></trkpt>
<trkpt lat="45.393962" lon="4.457147"><ele></ele><time>2014-6-14T19:5:41Z</time></trkpt>
<trkpt lat="45.393966" lon="4.457137"><ele></ele><time>2014-6-14T19:5:44Z</time></trkpt>
<trkpt lat="45.39399" lon="4.457184"><ele></ele><time>2014-6-14T19:5:47Z</time></trkpt>
<trkpt lat="45.394003" lon="4.457237"><ele></ele><time>2014-6-14T19:5:50Z</time></trkpt>
<trkpt lat="45.39396" lon="4.457291"><ele></ele><time>2014-6-14T19:5:53Z</time></trkpt>
<trkpt lat="45.393919" lon="4.457281"><ele></ele><time>2014-6-14T19:5:56Z</time></trkpt>
<trkpt lat="45.393896" lon="4.457361"><ele></ele><time>2014-6-14T19:5:59Z</time></trkpt>
<trkpt lat="45.393873" lon="4.457417"><ele></ele><time>2014-6-14T19:6:2Z</time></trkpt>
<trkpt lat="45.393854" lon="4.457423"><ele></ele><time>2014-6-14T19:6:5Z</time></trkpt>
<trkpt lat="45.39382" lon="4.457443"><ele></ele><time>2014-6-14T19:6:8Z</time></trkpt>
<trkpt lat="45.393785" lon="4.457449"><ele></ele><time>2014-6-14T19:6:11Z</time></trkpt>
<trkpt lat="45.393764" lon="4.457444"><ele></ele><time>2014-6-14T19:6:14Z</time></trkpt>
<trkpt lat="45.393752" lon="4.457396"><ele></ele><time>2014-6-14T19:6:17Z</time></trkpt>
<trkpt lat="45.393727" lon="4.457341"><ele></ele><time>2014-6-14T19:6:20Z</time></trkpt>
<trkpt lat="45.39372" lon="4.457283"><ele></ele><time>2014-6-14T19:6:23Z</time></trkpt>
<trkpt lat="45.393702" lon="4.457262"><ele></ele><time>2014-6-14T19:6:26Z</time></trkpt>
<trkpt lat="45.393688" lon="4.457203"><ele></ele><time>2014-6-14T19:6:29Z</time></trkpt>
<trkpt lat="45.393676" lon="4.457186"><ele></ele><time>2014-6-14T19:6:32Z</time></trkpt>
<trkpt lat="45.393673" lon="4.45716"><ele></ele><time>2014-6-14T19:6:35Z</time></trkpt>
<trkpt lat="45.393651" lon="4.457118"><ele></ele><time>2014-6-14T19:6:38Z</time></trkpt>
<trkpt lat="45.393647" lon="4.457085"><ele></ele><time>2014-6-14T19:6:41Z</time></trkpt>
<trkpt lat="45.393642" lon="4.457062"><ele></ele><time>2014-6-14T19:6:44Z</time></trkpt>
<trkpt lat="45.393633" lon="4.457015"><ele></ele><time>2014-6-14T19:6:47Z</time></trkpt>
<trkpt lat="45.393634" lon="4.456969"><ele></ele><time>2014-6-14T19:6:50Z</time></trkpt>
<trkpt lat="45.393619" lon="4.456939"><ele></ele><time>2014-6-14T19:6:53Z</time></trkpt>
<trkpt lat="45.393614" lon="4.456911"><ele></ele><time>2014-6-14T19:6:56Z</time></trkpt>
<trkpt lat="45.393586" lon="4.456881"><ele></ele><time>2014-6-14T19:6:59Z</time></trkpt>
<trkpt lat="45.39356" lon="4.456838"><ele></ele><time>2014-6-14T19:7:2Z</time></trkpt>
<trkpt lat="45.393545" lon="4.456849"><ele></ele><time>2014-6-14T19:7:5Z</time></trkpt>
<trkpt lat="45.393534" lon="4.456766"><ele></ele><time>2014-6-14T19:7:8Z</time></trkpt>
<trkpt lat="45.393515" lon="4.456758"><ele></ele><time>2014-6-14T19:7:11Z</time></trkpt>
<trkpt lat="45.393503" lon="4.456767"><ele></ele><time>2014-6-14T19:7:14Z</time></trkpt>
<trkpt lat="45.393483" lon="4.456755"><ele></ele><time>2014-6-14T19:7:17Z</time></trkpt>
<trkpt lat="45.393467" lon="4.456725"><ele></ele><time>2014-6-14T19:7:20Z</time></trkpt>
<trkpt lat="45.39417" lon="4.456556"><ele></ele><time>2014-6-14T19:7:23Z</time></trkpt>
<trkpt lat="45.394166" lon="4.456535"><ele></ele><time>2014-6-14T19:7:26Z</time></trkpt>
<trkpt lat="45.394156" lon="4.456506"><ele></ele><time>2014-6-14T19:7:29Z</time></trkpt>
<trkpt lat="45.394152" lon="4.456492"><ele></ele><time>2014-6-14T19:7:32Z</time></trkpt>
<trkpt lat="45.394088" lon="4.45646"><ele></ele><time>2014-6-14T19:7:35Z</time></trkpt>
<trkpt lat="45.394094" lon="4.456447"><ele></ele><time>2014-6-14T19:7:38Z</time></trkpt>
<trkpt lat="45.394091" lon="4.456421"><ele></ele><time>2014-6-14T19:7:41Z</time></trkpt>
<trkpt lat="45.394064" lon="4.456396"><ele></ele><time>2014-6-14T19:7:44Z</time></trkpt>
<trkpt lat="45.394038" lon="4.456377"><ele></ele><time>2014-6-14T19:7:47Z</time></trkpt>
<trkpt lat="45.394023" lon="4.456354"><ele></ele><time>2014-6-14T19:7:50Z</time></trkpt>
<trkpt lat="45.394013" lon="4.45633"><ele></ele><time>2014-6-14T19:7:53Z</time></trkpt>
<trkpt lat="45.394001" lon="4.456311"><ele></ele><time>2014-6-14T19:7:56Z</time></trkpt>
<trkpt lat="45.393989" lon="4.456302"><ele></ele><time>2014-6-14T19:7:59Z</time></trkpt>
<trkpt lat="45.393976" lon="4.456299"><ele></ele><time>2014-6-14T19:8:2Z</time></trkpt>
<trkpt lat="45.393959" lon="4.456301"><ele></ele><time>2014-6-14T19:8:5Z</time></trkpt>
<trkpt lat="45.39394" lon="4.456306"><ele></ele><time>2014-6-14T19:8:8Z</time></trkpt>
<trkpt lat="45.393917" lon="4.456311"><ele></ele><time>2014-6-14T19:8:11Z</time></trkpt>
<trkpt lat="45.393897" lon="4.456321"><ele></ele><time>2014-6-14T19:8:14Z</time></trkpt>
<trkpt lat="45.393878" lon="4.456336"><ele></ele><time>2014-6-14T19:8:17Z</time></trkpt>
<trkpt lat="45.39386" lon="4.456349"><ele></ele><time>2014-6-14T19:8:20Z</time></trkpt>
<trkpt lat="45.393844" lon="4.456363"><ele></ele><time>2014-6-14T19:8:23Z</time></trkpt>
<trkpt lat="45.39382" lon="4.456368"><ele></ele><time>2014-6-14T19:8:26Z</time></trkpt>
<trkpt lat="45.393793" lon="4.456376"><ele></ele><time>2014-6-14T19:8:29Z</time></trkpt>
<trkpt lat="45.393764" lon="4.456383"><ele></ele><time>2014-6-14T19:8:32Z</time></trkpt>
<trkpt lat="45.393742" lon="4.456391"><ele></ele><time>2014-6-14T19:8:35Z</time></trkpt>
<trkpt lat="45.393719" lon="4.456399"><ele></ele><time>2014-6-14T19:8:38Z</time></trkpt>
<trkpt lat="45.393702" lon="4.456418"><ele></ele><time>2014-6-14T19:8:41Z</time></trkpt>
<trkpt lat="45.393682" lon="4.456436"><ele></ele><time>2014-6-14T19:8:44Z</time></trkpt>
<trkpt lat="45.393661" lon="4.45645"><ele></ele><time>2014-6-14T19:8:47Z</time></trkpt>
<trkpt lat="45.393643" lon="4.456467"><ele></ele><time>2014-6-14T19:8:50Z</time></trkpt>
<trkpt lat="45.393624" lon="4.456487"><ele></ele><time>2014-6-14T19:8:53Z</time></trkpt>
<trkpt lat="45.393603" lon="4.45651"><ele></ele><time>2014-6-14T19:8:56Z</time></trkpt>
<trkpt lat="45.393583" lon="4.456534"><ele></ele><time>2014-6-14T19:8:59Z</time></trkpt>
<trkpt lat="45.393563" lon="4.456557"><ele></ele><time>2014-6-14T19:9:2Z</time></trkpt>
<trkpt lat="45.393543" lon="4.456581"><ele></ele><time>2014-6-14T19:9:5Z</time></trkpt>
<trkpt lat="45.393525" lon="4.456609"><ele></ele><time>2014-6-14T19:9:8Z</time></trkpt>
<trkpt lat="45.393505" lon="4.456636"><ele></ele><time>2014-6-14T19:9:11Z</time></trkpt>
<trkpt lat="45.393485" lon="4.456652"><ele></ele><time>2014-6-14T19:9:14Z</time></trkpt>
<trkpt lat="45.393461" lon="4.456667"><ele></ele><time>2014-6-14T19:9:17Z</time></trkpt>
<trkpt lat="45.393434" lon="4.456679"><ele></ele><time>2014-6-14T19:9:20Z</time></trkpt>
<trkpt lat="45.393408" lon="4.456689"><ele></ele><time>2014-6-14T19:9:23Z</time></trkpt>
<trkpt lat="45.393383" lon="4.456702"><ele></ele><time>2014-6-14T19:9:26Z</time></trkpt>
<trkpt lat="45.393363" lon="4.456712"><ele></ele><time>2014-6-14T19:9:29Z</time></trkpt>
<trkpt lat="45.393319" lon="4.45673"><ele></ele><time>2014-6-14T19:9:32Z</time></trkpt>
<trkpt lat="45.3933" lon="4.456727"><ele></ele><time>2014-6-14T19:9:35Z</time></trkpt>
<trkpt lat="45.393277" lon="4.456714"><ele></ele><time>2014-6-14T19:9:38Z</time></trkpt>
<trkpt lat="45.393257" lon="4.456696"><ele></ele><time>2014-6-14T19:9:41Z</time></trkpt>
<trkpt lat="45.393234" lon="4.456674"><ele></ele><time>2014-6-14T19:9:44Z</time></trkpt>
<trkpt lat="45.393208" lon="4.456651"><ele></ele><time>2014-6-14T19:9:47Z</time></trkpt>
<trkpt lat="45.393185" lon="4.456628"><ele></ele><time>2014-6-14T19:9:50Z</time></trkpt>
<trkpt lat="45.393162" lon="4.456604"><ele></ele><time>2014-6-14T19:9:53Z</time></trkpt>
<trkpt lat="45.393148" lon="4.456578"><ele></ele><time>2014-6-14T19:9:56Z</time></trkpt>
<trkpt lat="45.393124" lon="4.456555"><ele></ele><time>2014-6-14T19:9:59Z</time></trkpt>
<trkpt lat="45.393105" lon="4.456531"><ele></ele><time>2014-6-14T19:10:2Z</time></trkpt>
<trkpt lat="45.393081" lon="4.45651"><ele></ele><time>2014-6-14T19:10:5Z</time></trkpt>
<trkpt lat="45.393055" lon="4.456485"><ele></ele><time>2014-6-14T19:10:8Z</time></trkpt>
<trkpt lat="45.39303" lon="4.456465"><ele></ele><time>2014-6-14T19:10:11Z</time></trkpt>
<trkpt lat="45.393002" lon="4.45644"><ele></ele><time>2014-6-14T19:10:14Z</time></trkpt>
<trkpt lat="45.392975" lon="4.456415"><ele></ele><time>2014-6-14T19:10:17Z</time></trkpt>
<trkpt lat="45.392942" lon="4.456391"><ele></ele><time>2014-6-14T19:10:20Z</time></trkpt>
<trkpt lat="45.392912" lon="4.456369"><ele></ele><time>2014-6-14T19:10:23Z</time></trkpt>
<trkpt lat="45.392888" lon="4.456346"><ele></ele><time>2014-6-14T19:10:26Z</time></trkpt>
<trkpt lat="45.392864" lon="4.456325"><ele></ele><time>2014-6-14T19:10:29Z</time></trkpt>
<trkpt lat="45.392837" lon="4.4563"><ele></ele><time>2014-6-14T19:10:32Z</time></trkpt>
<trkpt lat="45.392809" lon="4.456277"><ele></ele><time>2014-6-14T19:10:35Z</time></trkpt>
<trkpt lat="45.39278" lon="4.456257"><ele></ele><time>2014-6-14T19:10:38Z</time></trkpt>
<trkpt lat="45.392757" lon="4.456236"><ele></ele><time>2014-6-14T19:10:41Z</time></trkpt>
<trkpt lat="45.392734" lon="4.456215"><ele></ele><time>2014-6-14T19:10:44Z</time></trkpt>
<trkpt lat="45.392713" lon="4.456196"><ele></ele><time>2014-6-14T19:10:47Z</time></trkpt>
<trkpt lat="45.392688" lon="4.456177"><ele></ele><time>2014-6-14T19:10:50Z</time></trkpt>
<trkpt lat="45.392664" lon="4.456159"><ele></ele><time>2014-6-14T19:10:53Z</time></trkpt>
<trkpt lat="45.392638" lon="4.456138"><ele></ele><time>2014-6-14T19:10:56Z</time></trkpt>
<trkpt lat="45.392613" lon="4.456119"><ele></ele><time>2014-6-14T19:10:59Z</time></trkpt>
<trkpt lat="45.392592" lon="4.456096"><ele></ele><time>2014-6-14T19:11:2Z</time></trkpt>
<trkpt lat="45.392565" lon="4.456074"><ele></ele><time>2014-6-14T19:11:5Z</time></trkpt>
<trkpt lat="45.392542" lon="4.456047"><ele></ele><time>2014-6-14T19:11:8Z</time></trkpt>
<trkpt lat="45.392524" lon="4.456018"><ele></ele><time>2014-6-14T19:11:11Z</time></trkpt>
<trkpt lat="45.392498" lon="4.455994"><ele></ele><time>2014-6-14T19:11:14Z</time></trkpt>
<trkpt lat="45.392475" lon="4.45597"><ele></ele><time>2014-6-14T19:11:17Z</time></trkpt>
<trkpt lat="45.392452" lon="4.455942"><ele></ele><time>2014-6-14T19:11:20Z</time></trkpt>
<trkpt lat="45.392433" lon="4.455914"><ele></ele><time>2014-6-14T19:11:23Z</time></trkpt>
<trkpt lat="45.392412" lon="4.455889"><ele></ele><time>2014-6-14T19:11:26Z</time></trkpt>
<trkpt lat="45.392388" lon="4.455865"><ele></ele><time>2014-6-14T19:11:29Z</time></trkpt>
<trkpt lat="45.392366" lon="4.455843"><ele></ele><time>2014-6-14T19:11:32Z</time></trkpt>
<trkpt lat="45.392345" lon="4.455824"><ele></ele><time>2014-6-14T19:11:35Z</time></trkpt>
<trkpt lat="45.392321" lon="4.455804"><ele></ele><time>2014-6-14T19:11:38Z</time></trkpt>
<trkpt lat="45.392296" lon="4.455785"><ele></ele><time>2014-6-14T19:11:41Z</time></trkpt>
<trkpt lat="45.392283" lon="4.455762"><ele></ele><time>2014-6-14T19:11:44Z</time></trkpt>
<trkpt lat="45.392257" lon="4.455746"><ele></ele><time>2014-6-14T19:11:47Z</time></trkpt>
<trkpt lat="45.392232" lon="4.455731"><ele></ele><time>2014-6-14T19:11:50Z</time></trkpt>
<trkpt lat="45.39221" lon="4.455717"><ele></ele><time>2014-6-14T19:11:53Z</time></trkpt>
<trkpt lat="45.392187" lon="4.455697"><ele></ele><time>2014-6-14T19:11:56Z</time></trkpt>
<trkpt lat="45.392162" lon="4.455682"><ele></ele><time>2014-6-14T19:11:59Z</time></trkpt>
<trkpt lat="45.392138" lon="4.455665"><ele></ele><time>2014-6-14T19:12:2Z</time></trkpt>
<trkpt lat="45.392115" lon="4.455645"><ele></ele><time>2014-6-14T19:12:5Z</time></trkpt>
<trkpt lat="45.392096" lon="4.455627"><ele></ele><time>2014-6-14T19:12:8Z</time></trkpt>
<trkpt lat="45.392075" lon="4.455614"><ele></ele><time>2014-6-14T19:12:11Z</time></trkpt>
<trkpt lat="45.392062" lon="4.455602"><ele></ele><time>2014-6-14T19:12:14Z</time></trkpt>
<trkpt lat="45.392057" lon="4.455598"><ele></ele><time>2014-6-14T19:12:17Z</time></trkpt>
<trkpt lat="45.392047" lon="4.455599"><ele></ele><time>2014-6-14T19:12:20Z</time></trkpt>
<trkpt lat="45.392038" lon="4.455603"><ele></ele><time>2014-6-14T19:12:23Z</time></trkpt>
<trkpt lat="45.392032" lon="4.455603"><ele></ele><time>2014-6-14T19:12:26Z</time></trkpt>
<trkpt lat="45.392032" lon="4.455603"><ele></ele><time>2014-6-14T19:12:29Z</time></trkpt>
<trkpt lat="45.392032" lon="4.455603"><ele></ele><time>2014-6-14T19:12:32Z</time></trkpt>
<trkpt lat="45.392032" lon="4.455603"><ele></ele><time>2014-6-14T19:12:35Z</time></trkpt>
<trkpt lat="45.392032" lon="4.455603"><ele></ele><time>2014-6-14T19:12:38Z</time></trkpt>
<trkpt lat="45.392032" lon="4.455603"><ele></ele><time>2014-6-14T19:12:41Z</time></trkpt>
<trkpt lat="45.392032" lon="4.455603"><ele></ele><time>2014-6-14T19:12:44Z</time></trkpt>
<trkpt lat="45.392032" lon="4.455603"><ele></ele><time>2014-6-14T19:12:47Z</time></trkpt>
<trkpt lat="45.392006" lon="4.45558"><ele></ele><time>2014-6-14T19:12:50Z</time></trkpt>
<trkpt lat="45.392006" lon="4.45558"><ele></ele><time>2014-6-14T19:12:53Z</time></trkpt>
<trkpt lat="45.392006" lon="4.45558"><ele></ele><time>2014-6-14T19:12:56Z</time></trkpt>
<trkpt lat="45.392006" lon="4.45558"><ele></ele><time>2014-6-14T19:12:59Z</time></trkpt>
<trkpt lat="45.392006" lon="4.45558"><ele></ele><time>2014-6-14T19:13:2Z</time></trkpt>
<trkpt lat="45.392006" lon="4.45558"><ele></ele><time>2014-6-14T19:13:5Z</time></trkpt>
<trkpt lat="45.392006" lon="4.45558"><ele></ele><time>2014-6-14T19:13:8Z</time></trkpt>
<trkpt lat="45.392006" lon="4.45558"><ele></ele><time>2014-6-14T19:13:11Z</time></trkpt>
<trkpt lat="45.392006" lon="4.45558"><ele></ele><time>2014-6-14T19:13:14Z</time></trkpt>
<trkpt lat="45.392006" lon="4.45558"><ele></ele><time>2014-6-14T19:13:17Z</time></trkpt>
<trkpt lat="45.392006" lon="4.45558"><ele></ele><time>2014-6-14T19:13:20Z</time></trkpt>
<trkpt lat="45.392006" lon="4.45558"><ele></ele><time>2014-6-14T19:13:23Z</time></trkpt>
<trkpt lat="45.392006" lon="4.45558"><ele></ele><time>2014-6-14T19:13:26Z</time></trkpt>
<trkpt lat="45.392006" lon="4.455573"><ele></ele><time>2014-6-14T19:13:29Z</time></trkpt>
<trkpt lat="45.392003" lon="4.455564"><ele></ele><time>2014-6-14T19:13:32Z</time></trkpt>
<trkpt lat="45.391994" lon="4.455559"><ele></ele><time>2014-6-14T19:13:35Z</time></trkpt>
<trkpt lat="45.391986" lon="4.455559"><ele></ele><time>2014-6-14T19:13:38Z</time></trkpt>
<trkpt lat="45.391967" lon="4.455541"><ele></ele><time>2014-6-14T19:13:41Z</time></trkpt>
<trkpt lat="45.391957" lon="4.455537"><ele></ele><time>2014-6-14T19:13:44Z</time></trkpt>
<trkpt lat="45.391944" lon="4.455533"><ele></ele><time>2014-6-14T19:13:47Z</time></trkpt>
<trkpt lat="45.391931" lon="4.455529"><ele></ele><time>2014-6-14T19:13:50Z</time></trkpt>
<trkpt lat="45.391915" lon="4.45552"><ele></ele><time>2014-6-14T19:13:53Z</time></trkpt>
<trkpt lat="45.391895" lon="4.455513"><ele></ele><time>2014-6-14T19:13:56Z</time></trkpt>
<trkpt lat="45.391872" lon="4.455512"><ele></ele><time>2014-6-14T19:13:59Z</time></trkpt>
<trkpt lat="45.391849" lon="4.455507"><ele></ele><time>2014-6-14T19:14:2Z</time></trkpt>
<trkpt lat="45.391825" lon="4.455502"><ele></ele><time>2014-6-14T19:14:5Z</time></trkpt>
<trkpt lat="45.391802" lon="4.455492"><ele></ele><time>2014-6-14T19:14:8Z</time></trkpt>
<trkpt lat="45.391779" lon="4.455482"><ele></ele><time>2014-6-14T19:14:11Z</time></trkpt>
<trkpt lat="45.391757" lon="4.455467"><ele></ele><time>2014-6-14T19:14:14Z</time></trkpt>
<trkpt lat="45.391732" lon="4.455452"><ele></ele><time>2014-6-14T19:14:17Z</time></trkpt>
<trkpt lat="45.391706" lon="4.455433"><ele></ele><time>2014-6-14T19:14:20Z</time></trkpt>
<trkpt lat="45.391682" lon="4.45542"><ele></ele><time>2014-6-14T19:14:23Z</time></trkpt>
<trkpt lat="45.391659" lon="4.455408"><ele></ele><time>2014-6-14T19:14:26Z</time></trkpt>
<trkpt lat="45.391637" lon="4.455395"><ele></ele><time>2014-6-14T19:14:29Z</time></trkpt>
<trkpt lat="45.391605" lon="4.455382"><ele></ele><time>2014-6-14T19:14:32Z</time></trkpt>
<trkpt lat="45.391579" lon="4.455378"><ele></ele><time>2014-6-14T19:14:35Z</time></trkpt>
<trkpt lat="45.391553" lon="4.455383"><ele></ele><time>2014-6-14T19:14:38Z</time></trkpt>
<trkpt lat="45.391532" lon="4.455383"><ele></ele><time>2014-6-14T19:14:41Z</time></trkpt>
<trkpt lat="45.391512" lon="4.455381"><ele></ele><time>2014-6-14T19:14:44Z</time></trkpt>
<trkpt lat="45.391493" lon="4.45538"><ele></ele><time>2014-6-14T19:14:47Z</time></trkpt>
<trkpt lat="45.391474" lon="4.455382"><ele></ele><time>2014-6-14T19:14:50Z</time></trkpt>
<trkpt lat="45.391463" lon="4.455381"><ele></ele><time>2014-6-14T19:14:53Z</time></trkpt>
<trkpt lat="45.391455" lon="4.455378"><ele></ele><time>2014-6-14T19:14:56Z</time></trkpt>
<trkpt lat="45.391459" lon="4.455369"><ele></ele><time>2014-6-14T19:14:59Z</time></trkpt>
<trkpt lat="45.391465" lon="4.455361"><ele></ele><time>2014-6-14T19:15:2Z</time></trkpt>
<trkpt lat="45.39147" lon="4.455357"><ele></ele><time>2014-6-14T19:15:5Z</time></trkpt>
<trkpt lat="45.39147" lon="4.455357"><ele></ele><time>2014-6-14T19:15:8Z</time></trkpt>
<trkpt lat="45.39147" lon="4.455357"><ele></ele><time>2014-6-14T19:15:11Z</time></trkpt>
<trkpt lat="45.39147" lon="4.455357"><ele></ele><time>2014-6-14T19:15:14Z</time></trkpt>
<trkpt lat="45.39147" lon="4.455357"><ele></ele><time>2014-6-14T19:15:17Z</time></trkpt>
<trkpt lat="45.39147" lon="4.455357"><ele></ele><time>2014-6-14T19:15:20Z</time></trkpt>
<trkpt lat="45.39147" lon="4.455357"><ele></ele><time>2014-6-14T19:15:23Z</time></trkpt>
<trkpt lat="45.39147" lon="4.455357"><ele></ele><time>2014-6-14T19:15:26Z</time></trkpt>
<trkpt lat="45.39147" lon="4.455357"><ele></ele><time>2014-6-14T19:15:29Z</time></trkpt>
<trkpt lat="45.39147" lon="4.455357"><ele></ele><time>2014-6-14T19:15:32Z</time></trkpt>
<trkpt lat="45.39147" lon="4.455357"><ele></ele><time>2014-6-14T19:15:35Z</time></trkpt>
<trkpt lat="45.39147" lon="4.455357"><ele></ele><time>2014-6-14T19:15:38Z</time></trkpt>
<trkpt lat="45.39147" lon="4.455357"><ele></ele><time>2014-6-14T19:15:41Z</time></trkpt>
<trkpt lat="45.39147" lon="4.455357"><ele></ele><time>2014-6-14T19:15:44Z</time></trkpt>
<trkpt lat="45.39147" lon="4.455357"><ele></ele><time>2014-6-14T19:15:47Z</time></trkpt>
<trkpt lat="45.39147" lon="4.455357"><ele></ele><time>2014-6-14T19:15:50Z</time></trkpt>
<trkpt lat="45.39147" lon="4.455357"><ele></ele><time>2014-6-14T19:15:53Z</time></trkpt>
<trkpt lat="45.39147" lon="4.455357"><ele></ele><time>2014-6-14T19:15:56Z</time></trkpt>
<trkpt lat="45.39147" lon="4.455357"><ele></ele><time>2014-6-14T19:15:59Z</time></trkpt>
<trkpt lat="45.39147" lon="4.455357"><ele></ele><time>2014-6-14T19:16:2Z</time></trkpt>
<trkpt lat="45.39147" lon="4.455357"><ele></ele><time>2014-6-14T19:16:5Z</time></trkpt>
<trkpt lat="45.39147" lon="4.455357"><ele></ele><time>2014-6-14T19:16:8Z</time></trkpt>
<trkpt lat="45.39147" lon="4.455357"><ele></ele><time>2014-6-14T19:16:11Z</time></trkpt>
<trkpt lat="45.39147" lon="4.455357"><ele></ele><time>2014-6-14T19:16:14Z</time></trkpt>
<trkpt lat="45.39147" lon="4.455357"><ele></ele><time>2014-6-14T19:16:17Z</time></trkpt>
<trkpt lat="45.39147" lon="4.455357"><ele></ele><time>2014-6-14T19:16:20Z</time></trkpt>
<trkpt lat="45.391466" lon="4.455356"><ele></ele><time>2014-6-14T19:16:23Z</time></trkpt>
<trkpt lat="45.391454" lon="4.455355"><ele></ele><time>2014-6-14T19:16:26Z</time></trkpt>
<trkpt lat="45.391435" lon="4.455353"><ele></ele><time>2014-6-14T19:16:29Z</time></trkpt>
<trkpt lat="45.391415" lon="4.455345"><ele></ele><time>2014-6-14T19:16:32Z</time></trkpt>
<trkpt lat="45.391394" lon="4.455336"><ele></ele><time>2014-6-14T19:16:35Z</time></trkpt>
<trkpt lat="45.391371" lon="4.455328"><ele></ele><time>2014-6-14T19:16:38Z</time></trkpt>
<trkpt lat="45.391345" lon="4.455323"><ele></ele><time>2014-6-14T19:16:41Z</time></trkpt>
<trkpt lat="45.39132" lon="4.455318"><ele></ele><time>2014-6-14T19:16:44Z</time></trkpt>
<trkpt lat="45.391295" lon="4.45531"><ele></ele><time>2014-6-14T19:16:47Z</time></trkpt>
<trkpt lat="45.391274" lon="4.455305"><ele></ele><time>2014-6-14T19:16:50Z</time></trkpt>
<trkpt lat="45.391253" lon="4.455305"><ele></ele><time>2014-6-14T19:16:53Z</time></trkpt>
<trkpt lat="45.391236" lon="4.455315"><ele></ele><time>2014-6-14T19:16:56Z</time></trkpt>
<trkpt lat="45.391225" lon="4.455333"><ele></ele><time>2014-6-14T19:16:59Z</time></trkpt>
<trkpt lat="45.391217" lon="4.455359"><ele></ele><time>2014-6-14T19:17:2Z</time></trkpt>
<trkpt lat="45.391208" lon="4.455388"><ele></ele><time>2014-6-14T19:17:5Z</time></trkpt>
<trkpt lat="45.391193" lon="4.455422"><ele></ele><time>2014-6-14T19:17:8Z</time></trkpt>
<trkpt lat="45.391184" lon="4.455453"><ele></ele><time>2014-6-14T19:17:11Z</time></trkpt>
<trkpt lat="45.391178" lon="4.455488"><ele></ele><time>2014-6-14T19:17:14Z</time></trkpt>
<trkpt lat="45.391175" lon="4.455525"><ele></ele><time>2014-6-14T19:17:17Z</time></trkpt>
<trkpt lat="45.391174" lon="4.455564"><ele></ele><time>2014-6-14T19:17:20Z</time></trkpt>
<trkpt lat="45.391176" lon="4.455602"><ele></ele><time>2014-6-14T19:17:23Z</time></trkpt>
<trkpt lat="45.391171" lon="4.455645"><ele></ele><time>2014-6-14T19:17:26Z</time></trkpt>
<trkpt lat="45.39117" lon="4.455687"><ele></ele><time>2014-6-14T19:17:29Z</time></trkpt>
<trkpt lat="45.391166" lon="4.455732"><ele></ele><time>2014-6-14T19:17:32Z</time></trkpt>
<trkpt lat="45.391161" lon="4.455776"><ele></ele><time>2014-6-14T19:17:35Z</time></trkpt>
<trkpt lat="45.391141" lon="4.455819"><ele></ele><time>2014-6-14T19:17:38Z</time></trkpt>
<trkpt lat="45.391136" lon="4.455856"><ele></ele><time>2014-6-14T19:17:41Z</time></trkpt>
<trkpt lat="45.391137" lon="4.455888"><ele></ele><time>2014-6-14T19:17:44Z</time></trkpt>
<trkpt lat="45.391113" lon="4.455922"><ele></ele><time>2014-6-14T19:17:47Z</time></trkpt>
<trkpt lat="45.391093" lon="4.455936"><ele></ele><time>2014-6-14T19:17:50Z</time></trkpt>
<trkpt lat="45.391071" lon="4.455931"><ele></ele><time>2014-6-14T19:17:53Z</time></trkpt>
<trkpt lat="45.391042" lon="4.455921"><ele></ele><time>2014-6-14T19:17:56Z</time></trkpt>
<trkpt lat="45.391006" lon="4.455918"><ele></ele><time>2014-6-14T19:17:59Z</time></trkpt>
<trkpt lat="45.390981" lon="4.455909"><ele></ele><time>2014-6-14T19:18:2Z</time></trkpt>
<trkpt lat="45.390956" lon="4.455899"><ele></ele><time>2014-6-14T19:18:5Z</time></trkpt>
<trkpt lat="45.390933" lon="4.455883"><ele></ele><time>2014-6-14T19:18:8Z</time></trkpt>
<trkpt lat="45.39091" lon="4.45587"><ele></ele><time>2014-6-14T19:18:11Z</time></trkpt>
<trkpt lat="45.390886" lon="4.455859"><ele></ele><time>2014-6-14T19:18:14Z</time></trkpt>
<trkpt lat="45.390862" lon="4.455849"><ele></ele><time>2014-6-14T19:18:17Z</time></trkpt>
<trkpt lat="45.390835" lon="4.45584"><ele></ele><time>2014-6-14T19:18:20Z</time></trkpt>
<trkpt lat="45.390811" lon="4.455825"><ele></ele><time>2014-6-14T19:18:23Z</time></trkpt>
<trkpt lat="45.39079" lon="4.455808"><ele></ele><time>2014-6-14T19:18:26Z</time></trkpt>
<trkpt lat="45.39077" lon="4.455792"><ele></ele><time>2014-6-14T19:18:29Z</time></trkpt>
<trkpt lat="45.390757" lon="4.455769"><ele></ele><time>2014-6-14T19:18:32Z</time></trkpt>
<trkpt lat="45.390735" lon="4.455754"><ele></ele><time>2014-6-14T19:18:35Z</time></trkpt>
<trkpt lat="45.390713" lon="4.45574"><ele></ele><time>2014-6-14T19:18:38Z</time></trkpt>
<trkpt lat="45.390692" lon="4.455726"><ele></ele><time>2014-6-14T19:18:41Z</time></trkpt>
<trkpt lat="45.390671" lon="4.45571"><ele></ele><time>2014-6-14T19:18:44Z</time></trkpt>
<trkpt lat="45.390649" lon="4.455697"><ele></ele><time>2014-6-14T19:18:47Z</time></trkpt>
<trkpt lat="45.390626" lon="4.455683"><ele></ele><time>2014-6-14T19:18:50Z</time></trkpt>
<trkpt lat="45.390601" lon="4.455669"><ele></ele><time>2014-6-14T19:18:53Z</time></trkpt>
<trkpt lat="45.390577" lon="4.455652"><ele></ele><time>2014-6-14T19:18:56Z</time></trkpt>
<trkpt lat="45.390553" lon="4.455635"><ele></ele><time>2014-6-14T19:18:59Z</time></trkpt>
<trkpt lat="45.39053" lon="4.45562"><ele></ele><time>2014-6-14T19:19:2Z</time></trkpt>
<trkpt lat="45.390509" lon="4.4556"><ele></ele><time>2014-6-14T19:19:5Z</time></trkpt>
<trkpt lat="45.390487" lon="4.455578"><ele></ele><time>2014-6-14T19:19:8Z</time></trkpt>
<trkpt lat="45.390462" lon="4.455558"><ele></ele><time>2014-6-14T19:19:11Z</time></trkpt>
<trkpt lat="45.390437" lon="4.455539"><ele></ele><time>2014-6-14T19:19:14Z</time></trkpt>
<trkpt lat="45.390413" lon="4.455522"><ele></ele><time>2014-6-14T19:19:17Z</time></trkpt>
<trkpt lat="45.390391" lon="4.455506"><ele></ele><time>2014-6-14T19:19:20Z</time></trkpt>
<trkpt lat="45.390371" lon="4.45549"><ele></ele><time>2014-6-14T19:19:23Z</time></trkpt>
<trkpt lat="45.390351" lon="4.455475"><ele></ele><time>2014-6-14T19:19:26Z</time></trkpt>
<trkpt lat="45.390333" lon="4.45546"><ele></ele><time>2014-6-14T19:19:29Z</time></trkpt>
<trkpt lat="45.390307" lon="4.455454"><ele></ele><time>2014-6-14T19:19:32Z</time></trkpt>
<trkpt lat="45.390286" lon="4.455449"><ele></ele><time>2014-6-14T19:19:35Z</time></trkpt>
<trkpt lat="45.390266" lon="4.455453"><ele></ele><time>2014-6-14T19:19:38Z</time></trkpt>
<trkpt lat="45.390254" lon="4.455455"><ele></ele><time>2014-6-14T19:19:41Z</time></trkpt>
<trkpt lat="45.390247" lon="4.455452"><ele></ele><time>2014-6-14T19:19:44Z</time></trkpt>
<trkpt lat="45.390241" lon="4.45545"><ele></ele><time>2014-6-14T19:19:47Z</time></trkpt>
<trkpt lat="45.390236" lon="4.455449"><ele></ele><time>2014-6-14T19:19:50Z</time></trkpt>
<trkpt lat="45.390232" lon="4.455446"><ele></ele><time>2014-6-14T19:19:53Z</time></trkpt>
<trkpt lat="45.390232" lon="4.455446"><ele></ele><time>2014-6-14T19:19:56Z</time></trkpt>
<trkpt lat="45.390232" lon="4.455446"><ele></ele><time>2014-6-14T19:19:59Z</time></trkpt>
<trkpt lat="45.390229" lon="4.455446"><ele></ele><time>2014-6-14T19:20:2Z</time></trkpt>
<trkpt lat="45.390224" lon="4.455443"><ele></ele><time>2014-6-14T19:20:5Z</time></trkpt>
<trkpt lat="45.39022" lon="4.455444"><ele></ele><time>2014-6-14T19:20:8Z</time></trkpt>
<trkpt lat="45.390214" lon="4.455433"><ele></ele><time>2014-6-14T19:20:11Z</time></trkpt>
<trkpt lat="45.390206" lon="4.455433"><ele></ele><time>2014-6-14T19:20:14Z</time></trkpt>
<trkpt lat="45.390198" lon="4.455435"><ele></ele><time>2014-6-14T19:20:17Z</time></trkpt>
<trkpt lat="45.390198" lon="4.455435"><ele></ele><time>2014-6-14T19:20:20Z</time></trkpt>
<trkpt lat="45.390198" lon="4.455435"><ele></ele><time>2014-6-14T19:20:23Z</time></trkpt>
<trkpt lat="45.390198" lon="4.455435"><ele></ele><time>2014-6-14T19:20:26Z</time></trkpt>
<trkpt lat="45.390198" lon="4.455435"><ele></ele><time>2014-6-14T19:20:29Z</time></trkpt>
<trkpt lat="45.390198" lon="4.455435"><ele></ele><time>2014-6-14T19:20:32Z</time></trkpt>
<trkpt lat="45.390198" lon="4.455435"><ele></ele><time>2014-6-14T19:20:35Z</time></trkpt>
<trkpt lat="45.390198" lon="4.455435"><ele></ele><time>2014-6-14T19:20:38Z</time></trkpt>
<trkpt lat="45.390198" lon="4.455435"><ele></ele><time>2014-6-14T19:20:41Z</time></trkpt>
<trkpt lat="45.390197" lon="4.455436"><ele></ele><time>2014-6-14T19:20:44Z</time></trkpt>
<trkpt lat="45.390192" lon="4.455432"><ele></ele><time>2014-6-14T19:20:47Z</time></trkpt>
<trkpt lat="45.390186" lon="4.455425"><ele></ele><time>2014-6-14T19:20:50Z</time></trkpt>
<trkpt lat="45.39017" lon="4.455424"><ele></ele><time>2014-6-14T19:20:53Z</time></trkpt>
<trkpt lat="45.390157" lon="4.455412"><ele></ele><time>2014-6-14T19:20:56Z</time></trkpt>
<trkpt lat="45.390143" lon="4.455403"><ele></ele><time>2014-6-14T19:20:59Z</time></trkpt>
<trkpt lat="45.390128" lon="4.455394"><ele></ele><time>2014-6-14T19:21:2Z</time></trkpt>
<trkpt lat="45.39011" lon="4.455382"><ele></ele><time>2014-6-14T19:21:5Z</time></trkpt>
<trkpt lat="45.390092" lon="4.455369"><ele></ele><time>2014-6-14T19:21:8Z</time></trkpt>
<trkpt lat="45.390072" lon="4.455355"><ele></ele><time>2014-6-14T19:21:11Z</time></trkpt>
<trkpt lat="45.390053" lon="4.455341"><ele></ele><time>2014-6-14T19:21:14Z</time></trkpt>
<trkpt lat="45.390034" lon="4.455325"><ele></ele><time>2014-6-14T19:21:17Z</time></trkpt>
<trkpt lat="45.390014" lon="4.455313"><ele></ele><time>2014-6-14T19:21:20Z</time></trkpt>
<trkpt lat="45.389993" lon="4.455304"><ele></ele><time>2014-6-14T19:21:23Z</time></trkpt>
<trkpt lat="45.389971" lon="4.455292"><ele></ele><time>2014-6-14T19:21:26Z</time></trkpt>
<trkpt lat="45.389948" lon="4.455286"><ele></ele><time>2014-6-14T19:21:29Z</time></trkpt>
<trkpt lat="45.389923" lon="4.455275"><ele></ele><time>2014-6-14T19:21:32Z</time></trkpt>
<trkpt lat="45.389896" lon="4.455264"><ele></ele><time>2014-6-14T19:21:35Z</time></trkpt>
<trkpt lat="45.38987" lon="4.455247"><ele></ele><time>2014-6-14T19:21:38Z</time></trkpt>
<trkpt lat="45.389847" lon="4.455233"><ele></ele><time>2014-6-14T19:21:41Z</time></trkpt>
<trkpt lat="45.389825" lon="4.455215"><ele></ele><time>2014-6-14T19:21:44Z</time></trkpt>
<trkpt lat="45.389804" lon="4.455196"><ele></ele><time>2014-6-14T19:21:47Z</time></trkpt>
<trkpt lat="45.389788" lon="4.455173"><ele></ele><time>2014-6-14T19:21:50Z</time></trkpt>
<trkpt lat="45.389772" lon="4.455144"><ele></ele><time>2014-6-14T19:21:53Z</time></trkpt>
<trkpt lat="45.38975" lon="4.455121"><ele></ele><time>2014-6-14T19:21:56Z</time></trkpt>
<trkpt lat="45.389726" lon="4.455098"><ele></ele><time>2014-6-14T19:21:59Z</time></trkpt>
<trkpt lat="45.389705" lon="4.45508"><ele></ele><time>2014-6-14T19:22:2Z</time></trkpt>
<trkpt lat="45.389684" lon="4.455057"><ele></ele><time>2014-6-14T19:22:5Z</time></trkpt>
<trkpt lat="45.389663" lon="4.455037"><ele></ele><time>2014-6-14T19:22:8Z</time></trkpt>
<trkpt lat="45.389642" lon="4.455015"><ele></ele><time>2014-6-14T19:22:11Z</time></trkpt>
<trkpt lat="45.389624" lon="4.454993"><ele></ele><time>2014-6-14T19:22:14Z</time></trkpt>
<trkpt lat="45.389605" lon="4.454971"><ele></ele><time>2014-6-14T19:22:17Z</time></trkpt>
<trkpt lat="45.389583" lon="4.454952"><ele></ele><time>2014-6-14T19:22:20Z</time></trkpt>
<trkpt lat="45.389559" lon="4.454934"><ele></ele><time>2014-6-14T19:22:23Z</time></trkpt>
<trkpt lat="45.389534" lon="4.454916"><ele></ele><time>2014-6-14T19:22:26Z</time></trkpt>
<trkpt lat="45.389512" lon="4.4549"><ele></ele><time>2014-6-14T19:22:29Z</time></trkpt>
<trkpt lat="45.389493" lon="4.454889"><ele></ele><time>2014-6-14T19:22:32Z</time></trkpt>
<trkpt lat="45.389476" lon="4.454881"><ele></ele><time>2014-6-14T19:22:35Z</time></trkpt>
<trkpt lat="45.38946" lon="4.454864"><ele></ele><time>2014-6-14T19:22:38Z</time></trkpt>
<trkpt lat="45.389439" lon="4.454846"><ele></ele><time>2014-6-14T19:22:41Z</time></trkpt>
<trkpt lat="45.389417" lon="4.454833"><ele></ele><time>2014-6-14T19:22:44Z</time></trkpt>
<trkpt lat="45.389393" lon="4.454817"><ele></ele><time>2014-6-14T19:22:47Z</time></trkpt>
<trkpt lat="45.38937" lon="4.454799"><ele></ele><time>2014-6-14T19:22:50Z</time></trkpt>
<trkpt lat="45.389347" lon="4.454783"><ele></ele><time>2014-6-14T19:22:53Z</time></trkpt>
<trkpt lat="45.389325" lon="4.454762"><ele></ele><time>2014-6-14T19:22:56Z</time></trkpt>
<trkpt lat="45.389302" lon="4.454741"><ele></ele><time>2014-6-14T19:22:59Z</time></trkpt>
<trkpt lat="45.389277" lon="4.454726"><ele></ele><time>2014-6-14T19:23:2Z</time></trkpt>
<trkpt lat="45.389258" lon="4.454707"><ele></ele><time>2014-6-14T19:23:5Z</time></trkpt>
<trkpt lat="45.389237" lon="4.454688"><ele></ele><time>2014-6-14T19:23:8Z</time></trkpt>
<trkpt lat="45.389213" lon="4.454673"><ele></ele><time>2014-6-14T19:23:11Z</time></trkpt>
<trkpt lat="45.38919" lon="4.454657"><ele></ele><time>2014-6-14T19:23:14Z</time></trkpt>
<trkpt lat="45.389169" lon="4.454639"><ele></ele><time>2014-6-14T19:23:17Z</time></trkpt>
<trkpt lat="45.389149" lon="4.45462"><ele></ele><time>2014-6-14T19:23:20Z</time></trkpt>
<trkpt lat="45.389125" lon="4.454602"><ele></ele><time>2014-6-14T19:23:23Z</time></trkpt>
<trkpt lat="45.3891" lon="4.454585"><ele></ele><time>2014-6-14T19:23:26Z</time></trkpt>
<trkpt lat="45.3891" lon="4.454585"><ele></ele><time>2014-6-14T19:23:29Z</time></trkpt>
<trkpt lat="0" lon="0"><ele></ele><time>2014-6-14T19:23:32Z</time></trkpt>
<trkpt lat="0" lon="0"><ele></ele><time>2014-6-14T19:23:35Z</time></trkpt>
<trkpt lat="0" lon="0"><ele></ele><time>2014-6-14T19:23:38Z</time></trkpt>
<trkpt lat="45.388421" lon="4.451145"><ele></ele><time>2014-6-14T19:23:41Z</time></trkpt>
<trkpt lat="45.38858" lon="4.451162"><ele></ele><time>2014-6-14T19:23:44Z</time></trkpt>
<trkpt lat="45.388664" lon="4.451148"><ele></ele><time>2014-6-14T19:23:47Z</time></trkpt>
<trkpt lat="45.388682" lon="4.451123"><ele></ele><time>2014-6-14T19:23:50Z</time></trkpt>
<trkpt lat="45.38869" lon="4.451113"><ele></ele><time>2014-6-14T19:23:53Z</time></trkpt>
<trkpt lat="45.388675" lon="4.45109"><ele></ele><time>2014-6-14T19:23:56Z</time></trkpt>
<trkpt lat="45.38866" lon="4.451082"><ele></ele><time>2014-6-14T19:23:59Z</time></trkpt>
<trkpt lat="45.388668" lon="4.451049"><ele></ele><time>2014-6-14T19:24:2Z</time></trkpt>
<trkpt lat="45.388673" lon="4.451028"><ele></ele><time>2014-6-14T19:24:5Z</time></trkpt>
<trkpt lat="45.388677" lon="4.451014"><ele></ele><time>2014-6-14T19:24:8Z</time></trkpt>
<trkpt lat="45.388684" lon="4.451009"><ele></ele><time>2014-6-14T19:24:11Z</time></trkpt>
<trkpt lat="45.388684" lon="4.451009"><ele></ele><time>2014-6-14T19:24:14Z</time></trkpt>
<trkpt lat="45.388684" lon="4.451009"><ele></ele><time>2014-6-14T19:24:17Z</time></trkpt>
<trkpt lat="45.388684" lon="4.451009"><ele></ele><time>2014-6-14T19:24:20Z</time></trkpt>
<trkpt lat="45.388684" lon="4.451009"><ele></ele><time>2014-6-14T19:24:23Z</time></trkpt>
<trkpt lat="45.388684" lon="4.451009"><ele></ele><time>2014-6-14T19:24:26Z</time></trkpt>
<trkpt lat="45.388684" lon="4.451009"><ele></ele><time>2014-6-14T19:24:29Z</time></trkpt>
<trkpt lat="45.388684" lon="4.451009"><ele></ele><time>2014-6-14T19:24:32Z</time></trkpt>
<trkpt lat="45.388684" lon="4.451009"><ele></ele><time>2014-6-14T19:24:35Z</time></trkpt>
<trkpt lat="45.388684" lon="4.451009"><ele></ele><time>2014-6-14T19:24:38Z</time></trkpt>
<trkpt lat="45.388684" lon="4.451009"><ele></ele><time>2014-6-14T19:24:41Z</time></trkpt>
<trkpt lat="45.388684" lon="4.451009"><ele></ele><time>2014-6-14T19:24:44Z</time></trkpt>
<trkpt lat="45.388684" lon="4.451009"><ele></ele><time>2014-6-14T19:24:47Z</time></trkpt>
<trkpt lat="45.388684" lon="4.451009"><ele></ele><time>2014-6-14T19:24:50Z</time></trkpt>
<trkpt lat="45.388684" lon="4.451009"><ele></ele><time>2014-6-14T19:24:53Z</time></trkpt>
<trkpt lat="45.388684" lon="4.451009"><ele></ele><time>2014-6-14T19:24:56Z</time></trkpt>
<trkpt lat="45.388684" lon="4.451009"><ele></ele><time>2014-6-14T19:24:59Z</time></trkpt>
<trkpt lat="45.388684" lon="4.451009"><ele></ele><time>2014-6-14T19:25:2Z</time></trkpt>
<trkpt lat="45.388684" lon="4.451009"><ele></ele><time>2014-6-14T19:25:5Z</time></trkpt>
<trkpt lat="45.388684" lon="4.451009"><ele></ele><time>2014-6-14T19:25:8Z</time></trkpt>
<trkpt lat="45.388566" lon="4.451029"><ele></ele><time>2014-6-14T19:25:11Z</time></trkpt>
<trkpt lat="45.388566" lon="4.451029"><ele></ele><time>2014-6-14T19:25:14Z</time></trkpt>
<trkpt lat="45.388566" lon="4.451029"><ele></ele><time>2014-6-14T19:25:17Z</time></trkpt>
<trkpt lat="45.388566" lon="4.451029"><ele></ele><time>2014-6-14T19:25:20Z</time></trkpt>
<trkpt lat="45.388566" lon="4.451029"><ele></ele><time>2014-6-14T19:25:23Z</time></trkpt>
<trkpt lat="45.388566" lon="4.451029"><ele></ele><time>2014-6-14T19:25:26Z</time></trkpt>
<trkpt lat="45.388566" lon="4.451029"><ele></ele><time>2014-6-14T19:25:29Z</time></trkpt>
<trkpt lat="45.388566" lon="4.451029"><ele></ele><time>2014-6-14T19:25:32Z</time></trkpt>
<trkpt lat="45.388593" lon="4.451014"><ele></ele><time>2014-6-14T19:25:35Z</time></trkpt>
<trkpt lat="45.388606" lon="4.451005"><ele></ele><time>2014-6-14T19:25:38Z</time></trkpt>
<trkpt lat="45.388613" lon="4.450992"><ele></ele><time>2014-6-14T19:25:41Z</time></trkpt>
<trkpt lat="45.38861" lon="4.450986"><ele></ele><time>2014-6-14T19:25:44Z</time></trkpt>
<trkpt lat="45.38861" lon="4.450986"><ele></ele><time>2014-6-14T19:25:47Z</time></trkpt>
<trkpt lat="45.38861" lon="4.450986"><ele></ele><time>2014-6-14T19:25:50Z</time></trkpt>
<trkpt lat="45.38861" lon="4.450986"><ele></ele><time>2014-6-14T19:25:53Z</time></trkpt>
<trkpt lat="45.38861" lon="4.450986"><ele></ele><time>2014-6-14T19:25:56Z</time></trkpt>
<trkpt lat="45.38861" lon="4.450986"><ele></ele><time>2014-6-14T19:25:59Z</time></trkpt>
<trkpt lat="45.388728" lon="4.450999"><ele></ele><time>2014-6-14T19:26:2Z</time></trkpt>
<trkpt lat="45.388728" lon="4.450999"><ele></ele><time>2014-6-14T19:26:5Z</time></trkpt>
<trkpt lat="45.388728" lon="4.450999"><ele></ele><time>2014-6-14T19:26:8Z</time></trkpt>
<trkpt lat="45.388728" lon="4.450999"><ele></ele><time>2014-6-14T19:26:11Z</time></trkpt>
<trkpt lat="45.388728" lon="4.450999"><ele></ele><time>2014-6-14T19:26:14Z</time></trkpt>
<trkpt lat="45.388728" lon="4.450999"><ele></ele><time>2014-6-14T19:26:17Z</time></trkpt>
<trkpt lat="45.388728" lon="4.450999"><ele></ele><time>2014-6-14T19:26:20Z</time></trkpt>
<trkpt lat="45.388728" lon="4.450999"><ele></ele><time>2014-6-14T19:26:23Z</time></trkpt>
<trkpt lat="45.388728" lon="4.450999"><ele></ele><time>2014-6-14T19:26:26Z</time></trkpt>
<trkpt lat="45.388728" lon="4.450999"><ele></ele><time>2014-6-14T19:26:29Z</time></trkpt>
<trkpt lat="45.388728" lon="4.450999"><ele></ele><time>2014-6-14T19:26:32Z</time></trkpt>
<trkpt lat="45.388728" lon="4.450999"><ele></ele><time>2014-6-14T19:26:35Z</time></trkpt>
<trkpt lat="45.388721" lon="4.45098"><ele></ele><time>2014-6-14T19:26:38Z</time></trkpt>
<trkpt lat="45.388709" lon="4.450953"><ele></ele><time>2014-6-14T19:26:41Z</time></trkpt>
<trkpt lat="45.388693" lon="4.450922"><ele></ele><time>2014-6-14T19:26:44Z</time></trkpt>
<trkpt lat="45.388674" lon="4.45089"><ele></ele><time>2014-6-14T19:26:47Z</time></trkpt>
<trkpt lat="45.388644" lon="4.450867"><ele></ele><time>2014-6-14T19:26:50Z</time></trkpt>
<trkpt lat="45.388616" lon="4.450867"><ele></ele><time>2014-6-14T19:26:53Z</time></trkpt>
<trkpt lat="45.388581" lon="4.450872"><ele></ele><time>2014-6-14T19:26:56Z</time></trkpt>
<trkpt lat="45.388534" lon="4.450887"><ele></ele><time>2014-6-14T19:26:59Z</time></trkpt>
<trkpt lat="45.388487" lon="4.450892"><ele></ele><time>2014-6-14T19:27:2Z</time></trkpt>
<trkpt lat="45.388446" lon="4.450905"><ele></ele><time>2014-6-14T19:27:5Z</time></trkpt>
<trkpt lat="45.388406" lon="4.450908"><ele></ele><time>2014-6-14T19:27:8Z</time></trkpt>
<trkpt lat="45.388369" lon="4.450908"><ele></ele><time>2014-6-14T19:27:11Z</time></trkpt>
<trkpt lat="45.388333" lon="4.450913"><ele></ele><time>2014-6-14T19:27:14Z</time></trkpt>
<trkpt lat="45.388298" lon="4.450911"><ele></ele><time>2014-6-14T19:27:17Z</time></trkpt>
<trkpt lat="45.388263" lon="4.450912"><ele></ele><time>2014-6-14T19:27:20Z</time></trkpt>
<trkpt lat="45.388227" lon="4.450913"><ele></ele><time>2014-6-14T19:27:23Z</time></trkpt>
<trkpt lat="45.388193" lon="4.450916"><ele></ele><time>2014-6-14T19:27:26Z</time></trkpt>
<trkpt lat="45.388157" lon="4.450922"><ele></ele><time>2014-6-14T19:27:29Z</time></trkpt>
<trkpt lat="45.388122" lon="4.450929"><ele></ele><time>2014-6-14T19:27:32Z</time></trkpt>
<trkpt lat="45.388087" lon="4.450933"><ele></ele><time>2014-6-14T19:27:35Z</time></trkpt>
<trkpt lat="45.388055" lon="4.450933"><ele></ele><time>2014-6-14T19:27:38Z</time></trkpt>
<trkpt lat="45.38802" lon="4.450934"><ele></ele><time>2014-6-14T19:27:41Z</time></trkpt>
<trkpt lat="45.387984" lon="4.450939"><ele></ele><time>2014-6-14T19:27:44Z</time></trkpt>
<trkpt lat="45.387948" lon="4.450948"><ele></ele><time>2014-6-14T19:27:47Z</time></trkpt>
<trkpt lat="45.387912" lon="4.450947"><ele></ele><time>2014-6-14T19:27:50Z</time></trkpt>
<trkpt lat="45.387874" lon="4.450946"><ele></ele><time>2014-6-14T19:27:53Z</time></trkpt>
<trkpt lat="45.387838" lon="4.450949"><ele></ele><time>2014-6-14T19:27:56Z</time></trkpt>
<trkpt lat="45.387803" lon="4.450949"><ele></ele><time>2014-6-14T19:27:59Z</time></trkpt>
<trkpt lat="45.387767" lon="4.450951"><ele></ele><time>2014-6-14T19:28:2Z</time></trkpt>
<trkpt lat="45.387728" lon="4.450956"><ele></ele><time>2014-6-14T19:28:5Z</time></trkpt>
<trkpt lat="45.387691" lon="4.450955"><ele></ele><time>2014-6-14T19:28:8Z</time></trkpt>
<trkpt lat="45.387653" lon="4.450954"><ele></ele><time>2014-6-14T19:28:11Z</time></trkpt>
<trkpt lat="45.387612" lon="4.450959"><ele></ele><time>2014-6-14T19:28:14Z</time></trkpt>
<trkpt lat="45.38757" lon="4.450963"><ele></ele><time>2014-6-14T19:28:17Z</time></trkpt>
<trkpt lat="45.387529" lon="4.45097"><ele></ele><time>2014-6-14T19:28:20Z</time></trkpt>
<trkpt lat="45.387488" lon="4.450974"><ele></ele><time>2014-6-14T19:28:23Z</time></trkpt>
<trkpt lat="45.387447" lon="4.450976"><ele></ele><time>2014-6-14T19:28:26Z</time></trkpt>
<trkpt lat="45.387406" lon="4.450977"><ele></ele><time>2014-6-14T19:28:29Z</time></trkpt>
<trkpt lat="45.387366" lon="4.45098"><ele></ele><time>2014-6-14T19:28:32Z</time></trkpt>
<trkpt lat="45.387327" lon="4.450981"><ele></ele><time>2014-6-14T19:28:35Z</time></trkpt>
<trkpt lat="45.387286" lon="4.450982"><ele></ele><time>2014-6-14T19:28:38Z</time></trkpt>
<trkpt lat="45.387251" lon="4.450983"><ele></ele><time>2014-6-14T19:28:41Z</time></trkpt>
<trkpt lat="45.387221" lon="4.450978"><ele></ele><time>2014-6-14T19:28:44Z</time></trkpt>
<trkpt lat="45.387196" lon="4.450966"><ele></ele><time>2014-6-14T19:28:47Z</time></trkpt>
<trkpt lat="45.387175" lon="4.450944"><ele></ele><time>2014-6-14T19:28:50Z</time></trkpt>
<trkpt lat="45.387155" lon="4.45092"><ele></ele><time>2014-6-14T19:28:53Z</time></trkpt>
<trkpt lat="45.387132" lon="4.450895"><ele></ele><time>2014-6-14T19:28:56Z</time></trkpt>
<trkpt lat="45.387111" lon="4.450877"><ele></ele><time>2014-6-14T19:28:59Z</time></trkpt>
<trkpt lat="45.38709" lon="4.450859"><ele></ele><time>2014-6-14T19:29:2Z</time></trkpt>
<trkpt lat="45.387071" lon="4.450842"><ele></ele><time>2014-6-14T19:29:5Z</time></trkpt>
<trkpt lat="45.387049" lon="4.45082"><ele></ele><time>2014-6-14T19:29:8Z</time></trkpt>
<trkpt lat="45.387029" lon="4.450792"><ele></ele><time>2014-6-14T19:29:11Z</time></trkpt>
<trkpt lat="45.387015" lon="4.450759"><ele></ele><time>2014-6-14T19:29:14Z</time></trkpt>
<trkpt lat="45.387009" lon="4.450733"><ele></ele><time>2014-6-14T19:29:17Z</time></trkpt>
<trkpt lat="45.387007" lon="4.450707"><ele></ele><time>2014-6-14T19:29:20Z</time></trkpt>
<trkpt lat="45.387011" lon="4.450682"><ele></ele><time>2014-6-14T19:29:23Z</time></trkpt>
<trkpt lat="45.387023" lon="4.450656"><ele></ele><time>2014-6-14T19:29:26Z</time></trkpt>
<trkpt lat="45.387053" lon="4.450631"><ele></ele><time>2014-6-14T19:29:29Z</time></trkpt>
<trkpt lat="45.387074" lon="4.450607"><ele></ele><time>2014-6-14T19:29:32Z</time></trkpt>
<trkpt lat="45.387091" lon="4.450585"><ele></ele><time>2014-6-14T19:29:35Z</time></trkpt>
<trkpt lat="45.387114" lon="4.45056"><ele></ele><time>2014-6-14T19:29:38Z</time></trkpt>
<trkpt lat="45.387137" lon="4.450534"><ele></ele><time>2014-6-14T19:29:41Z</time></trkpt>
<trkpt lat="45.387158" lon="4.450515"><ele></ele><time>2014-6-14T19:29:44Z</time></trkpt>
<trkpt lat="45.387178" lon="4.450503"><ele></ele><time>2014-6-14T19:29:47Z</time></trkpt>
<trkpt lat="45.387193" lon="4.450497"><ele></ele><time>2014-6-14T19:29:50Z</time></trkpt>
<trkpt lat="45.387211" lon="4.450483"><ele></ele><time>2014-6-14T19:29:53Z</time></trkpt>
<trkpt lat="45.387233" lon="4.45045"><ele></ele><time>2014-6-14T19:29:56Z</time></trkpt>
<trkpt lat="45.387252" lon="4.45042"><ele></ele><time>2014-6-14T19:29:59Z</time></trkpt>
<trkpt lat="45.387271" lon="4.450386"><ele></ele><time>2014-6-14T19:30:2Z</time></trkpt>
<trkpt lat="45.38729" lon="4.450346"><ele></ele><time>2014-6-14T19:30:5Z</time></trkpt>
<trkpt lat="45.387305" lon="4.450309"><ele></ele><time>2014-6-14T19:30:8Z</time></trkpt>
<trkpt lat="45.387321" lon="4.450274"><ele></ele><time>2014-6-14T19:30:11Z</time></trkpt>
<trkpt lat="45.387338" lon="4.450245"><ele></ele><time>2014-6-14T19:30:14Z</time></trkpt>
<trkpt lat="45.387353" lon="4.450227"><ele></ele><time>2014-6-14T19:30:17Z</time></trkpt>
<trkpt lat="45.387359" lon="4.450208"><ele></ele><time>2014-6-14T19:30:20Z</time></trkpt>
<trkpt lat="45.387367" lon="4.450189"><ele></ele><time>2014-6-14T19:30:23Z</time></trkpt>
<trkpt lat="45.38736" lon="4.450167"><ele></ele><time>2014-6-14T19:30:26Z</time></trkpt>
<trkpt lat="45.387363" lon="4.450133"><ele></ele><time>2014-6-14T19:30:29Z</time></trkpt>
<trkpt lat="45.387372" lon="4.450094"><ele></ele><time>2014-6-14T19:30:32Z</time></trkpt>
<trkpt lat="45.387381" lon="4.450051"><ele></ele><time>2014-6-14T19:30:35Z</time></trkpt>
<trkpt lat="45.387387" lon="4.450012"><ele></ele><time>2014-6-14T19:30:38Z</time></trkpt>
<trkpt lat="45.387389" lon="4.449978"><ele></ele><time>2014-6-14T19:30:41Z</time></trkpt>
<trkpt lat="45.387387" lon="4.449941"><ele></ele><time>2014-6-14T19:30:44Z</time></trkpt>
<trkpt lat="45.38738" lon="4.449906"><ele></ele><time>2014-6-14T19:30:47Z</time></trkpt>
<trkpt lat="45.38737" lon="4.449877"><ele></ele><time>2014-6-14T19:30:50Z</time></trkpt>
<trkpt lat="45.387376" lon="4.449862"><ele></ele><time>2014-6-14T19:30:53Z</time></trkpt>
<trkpt lat="45.387359" lon="4.449868"><ele></ele><time>2014-6-14T19:30:56Z</time></trkpt>
<trkpt lat="45.387343" lon="4.449881"><ele></ele><time>2014-6-14T19:30:59Z</time></trkpt>
<trkpt lat="45.387326" lon="4.449897"><ele></ele><time>2014-6-14T19:31:2Z</time></trkpt>
<trkpt lat="45.387306" lon="4.449912"><ele></ele><time>2014-6-14T19:31:5Z</time></trkpt>
<trkpt lat="45.387286" lon="4.449926"><ele></ele><time>2014-6-14T19:31:8Z</time></trkpt>
<trkpt lat="45.387268" lon="4.449941"><ele></ele><time>2014-6-14T19:31:11Z</time></trkpt>
<trkpt lat="45.38725" lon="4.449952"><ele></ele><time>2014-6-14T19:31:14Z</time></trkpt>
<trkpt lat="45.387232" lon="4.449967"><ele></ele><time>2014-6-14T19:31:17Z</time></trkpt>
<trkpt lat="45.387215" lon="4.449983"><ele></ele><time>2014-6-14T19:31:20Z</time></trkpt>
<trkpt lat="45.387196" lon="4.449997"><ele></ele><time>2014-6-14T19:31:23Z</time></trkpt>
<trkpt lat="45.387177" lon="4.450006"><ele></ele><time>2014-6-14T19:31:26Z</time></trkpt>
<trkpt lat="45.38716" lon="4.450014"><ele></ele><time>2014-6-14T19:31:29Z</time></trkpt>
<trkpt lat="45.387144" lon="4.45002"><ele></ele><time>2014-6-14T19:31:32Z</time></trkpt>
<trkpt lat="45.387127" lon="4.450022"><ele></ele><time>2014-6-14T19:31:35Z</time></trkpt>
<trkpt lat="45.387108" lon="4.450025"><ele></ele><time>2014-6-14T19:31:38Z</time></trkpt>
<trkpt lat="45.387089" lon="4.45003"><ele></ele><time>2014-6-14T19:31:41Z</time></trkpt>
<trkpt lat="45.387075" lon="4.450033"><ele></ele><time>2014-6-14T19:31:44Z</time></trkpt>
<trkpt lat="45.387059" lon="4.450034"><ele></ele><time>2014-6-14T19:31:47Z</time></trkpt>
<trkpt lat="45.387043" lon="4.450034"><ele></ele><time>2014-6-14T19:31:50Z</time></trkpt>
<trkpt lat="45.38703" lon="4.45003"><ele></ele><time>2014-6-14T19:31:53Z</time></trkpt>
<trkpt lat="45.387021" lon="4.45002"><ele></ele><time>2014-6-14T19:31:56Z</time></trkpt>
<trkpt lat="45.387011" lon="4.450016"><ele></ele><time>2014-6-14T19:31:59Z</time></trkpt>
<trkpt lat="45.387002" lon="4.450014"><ele></ele><time>2014-6-14T19:32:2Z</time></trkpt>
<trkpt lat="45.386991" lon="4.450016"><ele></ele><time>2014-6-14T19:32:5Z</time></trkpt>
<trkpt lat="45.386976" lon="4.450011"><ele></ele><time>2014-6-14T19:32:8Z</time></trkpt>
<trkpt lat="45.386964" lon="4.450006"><ele></ele><time>2014-6-14T19:32:11Z</time></trkpt>
<trkpt lat="45.386952" lon="4.450005"><ele></ele><time>2014-6-14T19:32:14Z</time></trkpt>
<trkpt lat="45.386939" lon="4.450006"><ele></ele><time>2014-6-14T19:32:17Z</time></trkpt>
<trkpt lat="45.386926" lon="4.450005"><ele></ele><time>2014-6-14T19:32:20Z</time></trkpt>
<trkpt lat="45.386915" lon="4.450004"><ele></ele><time>2014-6-14T19:32:23Z</time></trkpt>
<trkpt lat="45.386906" lon="4.449996"><ele></ele><time>2014-6-14T19:32:26Z</time></trkpt>
<trkpt lat="45.386896" lon="4.449989"><ele></ele><time>2014-6-14T19:32:29Z</time></trkpt>
<trkpt lat="45.386884" lon="4.449982"><ele></ele><time>2014-6-14T19:32:32Z</time></trkpt>
<trkpt lat="45.386871" lon="4.449971"><ele></ele><time>2014-6-14T19:32:35Z</time></trkpt>
<trkpt lat="45.386858" lon="4.449962"><ele></ele><time>2014-6-14T19:32:38Z</time></trkpt>
<trkpt lat="45.386848" lon="4.449954"><ele></ele><time>2014-6-14T19:32:41Z</time></trkpt>
<trkpt lat="45.386839" lon="4.449948"><ele></ele><time>2014-6-14T19:32:44Z</time></trkpt>
<trkpt lat="45.386829" lon="4.449938"><ele></ele><time>2014-6-14T19:32:47Z</time></trkpt>
<trkpt lat="45.38682" lon="4.449927"><ele></ele><time>2014-6-14T19:32:50Z</time></trkpt>
<trkpt lat="45.386812" lon="4.449916"><ele></ele><time>2014-6-14T19:32:53Z</time></trkpt>
<trkpt lat="45.3868" lon="4.449901"><ele></ele><time>2014-6-14T19:32:56Z</time></trkpt>
<trkpt lat="45.386787" lon="4.449894"><ele></ele><time>2014-6-14T19:32:59Z</time></trkpt>
<trkpt lat="45.386772" lon="4.44989"><ele></ele><time>2014-6-14T19:33:2Z</time></trkpt>
<trkpt lat="45.386758" lon="4.449884"><ele></ele><time>2014-6-14T19:33:5Z</time></trkpt>
<trkpt lat="45.386746" lon="4.449874"><ele></ele><time>2014-6-14T19:33:8Z</time></trkpt>
<trkpt lat="45.386732" lon="4.449869"><ele></ele><time>2014-6-14T19:33:11Z</time></trkpt>
<trkpt lat="45.386717" lon="4.449863"><ele></ele><time>2014-6-14T19:33:14Z</time></trkpt>
<trkpt lat="45.386702" lon="4.44986"><ele></ele><time>2014-6-14T19:33:17Z</time></trkpt>
<trkpt lat="45.386687" lon="4.449861"><ele></ele><time>2014-6-14T19:33:20Z</time></trkpt>
<trkpt lat="45.386671" lon="4.449872"><ele></ele><time>2014-6-14T19:33:23Z</time></trkpt>
<trkpt lat="45.386654" lon="4.449884"><ele></ele><time>2014-6-14T19:33:26Z</time></trkpt>
<trkpt lat="45.386639" lon="4.449891"><ele></ele><time>2014-6-14T19:33:29Z</time></trkpt>
<trkpt lat="45.386625" lon="4.449896"><ele></ele><time>2014-6-14T19:33:32Z</time></trkpt>
<trkpt lat="45.38661" lon="4.449906"><ele></ele><time>2014-6-14T19:33:35Z</time></trkpt>
<trkpt lat="45.386592" lon="4.449919"><ele></ele><time>2014-6-14T19:33:38Z</time></trkpt>
<trkpt lat="45.386576" lon="4.449934"><ele></ele><time>2014-6-14T19:33:41Z</time></trkpt>
<trkpt lat="45.386559" lon="4.449944"><ele></ele><time>2014-6-14T19:33:44Z</time></trkpt>
<trkpt lat="45.386541" lon="4.44995"><ele></ele><time>2014-6-14T19:33:47Z</time></trkpt>
<trkpt lat="45.386523" lon="4.44996"><ele></ele><time>2014-6-14T19:33:50Z</time></trkpt>
<trkpt lat="45.386504" lon="4.449971"><ele></ele><time>2014-6-14T19:33:53Z</time></trkpt>
<trkpt lat="45.386485" lon="4.449981"><ele></ele><time>2014-6-14T19:33:56Z</time></trkpt>
<trkpt lat="45.386454" lon="4.449994"><ele></ele><time>2014-6-14T19:33:59Z</time></trkpt>
<trkpt lat="45.386425" lon="4.450004"><ele></ele><time>2014-6-14T19:34:2Z</time></trkpt>
<trkpt lat="45.386402" lon="4.450012"><ele></ele><time>2014-6-14T19:34:5Z</time></trkpt>
<trkpt lat="45.38638" lon="4.450021"><ele></ele><time>2014-6-14T19:34:8Z</time></trkpt>
<trkpt lat="45.386353" lon="4.450031"><ele></ele><time>2014-6-14T19:34:11Z</time></trkpt>
<trkpt lat="45.386326" lon="4.450044"><ele></ele><time>2014-6-14T19:34:14Z</time></trkpt>
<trkpt lat="45.3863" lon="4.450057"><ele></ele><time>2014-6-14T19:34:17Z</time></trkpt>
<trkpt lat="45.386273" lon="4.450071"><ele></ele><time>2014-6-14T19:34:20Z</time></trkpt>
<trkpt lat="45.386247" lon="4.450085"><ele></ele><time>2014-6-14T19:34:23Z</time></trkpt>
<trkpt lat="45.386222" lon="4.450099"><ele></ele><time>2014-6-14T19:34:26Z</time></trkpt>
<trkpt lat="45.386191" lon="4.450119"><ele></ele><time>2014-6-14T19:34:29Z</time></trkpt>
<trkpt lat="45.386161" lon="4.450136"><ele></ele><time>2014-6-14T19:34:32Z</time></trkpt>
<trkpt lat="45.386135" lon="4.450148"><ele></ele><time>2014-6-14T19:34:35Z</time></trkpt>
<trkpt lat="45.386079" lon="4.450156"><ele></ele><time>2014-6-14T19:34:38Z</time></trkpt>
<trkpt lat="45.386053" lon="4.450166"><ele></ele><time>2014-6-14T19:34:41Z</time></trkpt>
<trkpt lat="45.386027" lon="4.45017"><ele></ele><time>2014-6-14T19:34:44Z</time></trkpt>
<trkpt lat="45.386001" lon="4.450168"><ele></ele><time>2014-6-14T19:34:47Z</time></trkpt>
<trkpt lat="45.385972" lon="4.450171"><ele></ele><time>2014-6-14T19:34:50Z</time></trkpt>
<trkpt lat="45.385948" lon="4.450177"><ele></ele><time>2014-6-14T19:34:53Z</time></trkpt>
<trkpt lat="45.385924" lon="4.450174"><ele></ele><time>2014-6-14T19:34:56Z</time></trkpt>
<trkpt lat="45.3859" lon="4.450167"><ele></ele><time>2014-6-14T19:34:59Z</time></trkpt>
<trkpt lat="45.385875" lon="4.450176"><ele></ele><time>2014-6-14T19:35:2Z</time></trkpt>
<trkpt lat="45.38585" lon="4.45018"><ele></ele><time>2014-6-14T19:35:5Z</time></trkpt>
<trkpt lat="45.385826" lon="4.450186"><ele></ele><time>2014-6-14T19:35:8Z</time></trkpt>
<trkpt lat="45.385802" lon="4.450198"><ele></ele><time>2014-6-14T19:35:11Z</time></trkpt>
<trkpt lat="45.385778" lon="4.450203"><ele></ele><time>2014-6-14T19:35:14Z</time></trkpt>
<trkpt lat="45.385755" lon="4.450215"><ele></ele><time>2014-6-14T19:35:17Z</time></trkpt>
<trkpt lat="45.385732" lon="4.450229"><ele></ele><time>2014-6-14T19:35:20Z</time></trkpt>
<trkpt lat="45.385708" lon="4.450241"><ele></ele><time>2014-6-14T19:35:23Z</time></trkpt>
<trkpt lat="45.385683" lon="4.450251"><ele></ele><time>2014-6-14T19:35:26Z</time></trkpt>
<trkpt lat="45.385658" lon="4.450257"><ele></ele><time>2014-6-14T19:35:29Z</time></trkpt>
<trkpt lat="45.385634" lon="4.450266"><ele></ele><time>2014-6-14T19:35:32Z</time></trkpt>
<trkpt lat="45.38561" lon="4.450283"><ele></ele><time>2014-6-14T19:35:35Z</time></trkpt>
<trkpt lat="45.385587" lon="4.450303"><ele></ele><time>2014-6-14T19:35:38Z</time></trkpt>
<trkpt lat="45.385564" lon="4.450322"><ele></ele><time>2014-6-14T19:35:41Z</time></trkpt>
<trkpt lat="45.385542" lon="4.45034"><ele></ele><time>2014-6-14T19:35:44Z</time></trkpt>
<trkpt lat="45.385523" lon="4.450355"><ele></ele><time>2014-6-14T19:35:47Z</time></trkpt>
<trkpt lat="45.385505" lon="4.450365"><ele></ele><time>2014-6-14T19:35:50Z</time></trkpt>
<trkpt lat="45.385486" lon="4.450377"><ele></ele><time>2014-6-14T19:35:53Z</time></trkpt>
<trkpt lat="45.385467" lon="4.450388"><ele></ele><time>2014-6-14T19:35:56Z</time></trkpt>
<trkpt lat="45.385447" lon="4.450395"><ele></ele><time>2014-6-14T19:35:59Z</time></trkpt>
<trkpt lat="45.385426" lon="4.450398"><ele></ele><time>2014-6-14T19:36:2Z</time></trkpt>
<trkpt lat="45.385403" lon="4.450408"><ele></ele><time>2014-6-14T19:36:5Z</time></trkpt>
<trkpt lat="45.385379" lon="4.450419"><ele></ele><time>2014-6-14T19:36:8Z</time></trkpt>
<trkpt lat="45.385356" lon="4.450433"><ele></ele><time>2014-6-14T19:36:11Z</time></trkpt>
<trkpt lat="45.385332" lon="4.450444"><ele></ele><time>2014-6-14T19:36:14Z</time></trkpt>
<trkpt lat="45.385306" lon="4.45045"><ele></ele><time>2014-6-14T19:36:17Z</time></trkpt>
<trkpt lat="45.38528" lon="4.450458"><ele></ele><time>2014-6-14T19:36:20Z</time></trkpt>
<trkpt lat="45.385256" lon="4.450471"><ele></ele><time>2014-6-14T19:36:23Z</time></trkpt>
<trkpt lat="45.385237" lon="4.450486"><ele></ele><time>2014-6-14T19:36:26Z</time></trkpt>
<trkpt lat="45.385223" lon="4.4505"><ele></ele><time>2014-6-14T19:36:29Z</time></trkpt>
<trkpt lat="45.385209" lon="4.450515"><ele></ele><time>2014-6-14T19:36:32Z</time></trkpt>
<trkpt lat="45.385194" lon="4.450533"><ele></ele><time>2014-6-14T19:36:35Z</time></trkpt>
<trkpt lat="45.385179" lon="4.450543"><ele></ele><time>2014-6-14T19:36:38Z</time></trkpt>
<trkpt lat="45.385165" lon="4.450556"><ele></ele><time>2014-6-14T19:36:41Z</time></trkpt>
<trkpt lat="45.385149" lon="4.450572"><ele></ele><time>2014-6-14T19:36:44Z</time></trkpt>
<trkpt lat="45.38513" lon="4.450583"><ele></ele><time>2014-6-14T19:36:47Z</time></trkpt>
<trkpt lat="45.385108" lon="4.450588"><ele></ele><time>2014-6-14T19:36:50Z</time></trkpt>
<trkpt lat="45.385083" lon="4.450591"><ele></ele><time>2014-6-14T19:36:53Z</time></trkpt>
<trkpt lat="45.385052" lon="4.450617"><ele></ele><time>2014-6-14T19:36:56Z</time></trkpt>
<trkpt lat="45.385027" lon="4.450631"><ele></ele><time>2014-6-14T19:36:59Z</time></trkpt>
<trkpt lat="45.385006" lon="4.450644"><ele></ele><time>2014-6-14T19:37:2Z</time></trkpt>
<trkpt lat="45.384983" lon="4.45066"><ele></ele><time>2014-6-14T19:37:5Z</time></trkpt>
<trkpt lat="45.384961" lon="4.450673"><ele></ele><time>2014-6-14T19:37:8Z</time></trkpt>
<trkpt lat="45.384938" lon="4.450686"><ele></ele><time>2014-6-14T19:37:11Z</time></trkpt>
<trkpt lat="45.384913" lon="4.450701"><ele></ele><time>2014-6-14T19:37:14Z</time></trkpt>
<trkpt lat="45.38489" lon="4.45071"><ele></ele><time>2014-6-14T19:37:17Z</time></trkpt>
<trkpt lat="45.384871" lon="4.450722"><ele></ele><time>2014-6-14T19:37:20Z</time></trkpt>
<trkpt lat="45.384848" lon="4.450749"><ele></ele><time>2014-6-14T19:37:23Z</time></trkpt>
<trkpt lat="45.384826" lon="4.45076"><ele></ele><time>2014-6-14T19:37:26Z</time></trkpt>
<trkpt lat="45.384799" lon="4.450771"><ele></ele><time>2014-6-14T19:37:29Z</time></trkpt>
<trkpt lat="45.384773" lon="4.450781"><ele></ele><time>2014-6-14T19:37:32Z</time></trkpt>
<trkpt lat="45.384749" lon="4.450793"><ele></ele><time>2014-6-14T19:37:35Z</time></trkpt>
<trkpt lat="45.384722" lon="4.450806"><ele></ele><time>2014-6-14T19:37:38Z</time></trkpt>
<trkpt lat="45.384696" lon="4.450814"><ele></ele><time>2014-6-14T19:37:41Z</time></trkpt>
<trkpt lat="45.38467" lon="4.450824"><ele></ele><time>2014-6-14T19:37:44Z</time></trkpt>
<trkpt lat="45.384648" lon="4.450832"><ele></ele><time>2014-6-14T19:37:47Z</time></trkpt>
<trkpt lat="45.384623" lon="4.450841"><ele></ele><time>2014-6-14T19:37:50Z</time></trkpt>
<trkpt lat="45.384598" lon="4.450845"><ele></ele><time>2014-6-14T19:37:53Z</time></trkpt>
<trkpt lat="45.38457" lon="4.450841"><ele></ele><time>2014-6-14T19:37:56Z</time></trkpt>
<trkpt lat="45.384544" lon="4.450839"><ele></ele><time>2014-6-14T19:37:59Z</time></trkpt>
<trkpt lat="45.38451" lon="4.450833"><ele></ele><time>2014-6-14T19:38:2Z</time></trkpt>
<trkpt lat="45.38446" lon="4.450829"><ele></ele><time>2014-6-14T19:38:5Z</time></trkpt>
<trkpt lat="45.38439" lon="4.450811"><ele></ele><time>2014-6-14T19:38:8Z</time></trkpt>
<trkpt lat="45.384348" lon="4.450806"><ele></ele><time>2014-6-14T19:38:11Z</time></trkpt>
<trkpt lat="45.384299" lon="4.450818"><ele></ele><time>2014-6-14T19:38:14Z</time></trkpt>
<trkpt lat="45.384246" lon="4.450851"><ele></ele><time>2014-6-14T19:38:17Z</time></trkpt>
<trkpt lat="45.384216" lon="4.450868"><ele></ele><time>2014-6-14T19:38:20Z</time></trkpt>
<trkpt lat="45.384186" lon="4.450871"><ele></ele><time>2014-6-14T19:38:23Z</time></trkpt>
<trkpt lat="45.384153" lon="4.450873"><ele></ele><time>2014-6-14T19:38:26Z</time></trkpt>
<trkpt lat="45.384123" lon="4.450877"><ele></ele><time>2014-6-14T19:38:29Z</time></trkpt>
<trkpt lat="45.384092" lon="4.450882"><ele></ele><time>2014-6-14T19:38:32Z</time></trkpt>
<trkpt lat="45.384057" lon="4.4509"><ele></ele><time>2014-6-14T19:38:35Z</time></trkpt>
<trkpt lat="45.384021" lon="4.450909"><ele></ele><time>2014-6-14T19:38:38Z</time></trkpt>
<trkpt lat="45.383989" lon="4.450912"><ele></ele><time>2014-6-14T19:38:41Z</time></trkpt>
<trkpt lat="45.383946" lon="4.450914"><ele></ele><time>2014-6-14T19:38:44Z</time></trkpt>
<trkpt lat="45.38391" lon="4.450924"><ele></ele><time>2014-6-14T19:38:47Z</time></trkpt>
<trkpt lat="45.383881" lon="4.450928"><ele></ele><time>2014-6-14T19:38:50Z</time></trkpt>
<trkpt lat="45.383849" lon="4.450935"><ele></ele><time>2014-6-14T19:38:53Z</time></trkpt>
<trkpt lat="45.38382" lon="4.450942"><ele></ele><time>2014-6-14T19:38:56Z</time></trkpt>
<trkpt lat="45.383791" lon="4.450945"><ele></ele><time>2014-6-14T19:38:59Z</time></trkpt>
<trkpt lat="45.38376" lon="4.450948"><ele></ele><time>2014-6-14T19:39:2Z</time></trkpt>
<trkpt lat="45.383728" lon="4.450957"><ele></ele><time>2014-6-14T19:39:5Z</time></trkpt>
<trkpt lat="45.383698" lon="4.450959"><ele></ele><time>2014-6-14T19:39:8Z</time></trkpt>
<trkpt lat="45.383668" lon="4.450959"><ele></ele><time>2014-6-14T19:39:11Z</time></trkpt>
<trkpt lat="45.383636" lon="4.450958"><ele></ele><time>2014-6-14T19:39:14Z</time></trkpt>
<trkpt lat="45.383601" lon="4.450958"><ele></ele><time>2014-6-14T19:39:17Z</time></trkpt>
<trkpt lat="45.38357" lon="4.450961"><ele></ele><time>2014-6-14T19:39:20Z</time></trkpt>
<trkpt lat="45.383541" lon="4.450964"><ele></ele><time>2014-6-14T19:39:23Z</time></trkpt>
<trkpt lat="45.383511" lon="4.450961"><ele></ele><time>2014-6-14T19:39:26Z</time></trkpt>
<trkpt lat="45.383481" lon="4.450955"><ele></ele><time>2014-6-14T19:39:29Z</time></trkpt>
<trkpt lat="45.38345" lon="4.450951"><ele></ele><time>2014-6-14T19:39:32Z</time></trkpt>
<trkpt lat="45.383417" lon="4.450948"><ele></ele><time>2014-6-14T19:39:35Z</time></trkpt>
<trkpt lat="45.383387" lon="4.450937"><ele></ele><time>2014-6-14T19:39:38Z</time></trkpt>
<trkpt lat="45.383354" lon="4.450931"><ele></ele><time>2014-6-14T19:39:41Z</time></trkpt>
<trkpt lat="45.383324" lon="4.450924"><ele></ele><time>2014-6-14T19:39:44Z</time></trkpt>
<trkpt lat="45.383294" lon="4.45092"><ele></ele><time>2014-6-14T19:39:47Z</time></trkpt>
<trkpt lat="45.383264" lon="4.450917"><ele></ele><time>2014-6-14T19:39:50Z</time></trkpt>
<trkpt lat="45.383234" lon="4.450914"><ele></ele><time>2014-6-14T19:39:53Z</time></trkpt>
<trkpt lat="45.383206" lon="4.450913"><ele></ele><time>2014-6-14T19:39:56Z</time></trkpt>
<trkpt lat="45.38318" lon="4.450909"><ele></ele><time>2014-6-14T19:39:59Z</time></trkpt>
<trkpt lat="45.383155" lon="4.450903"><ele></ele><time>2014-6-14T19:40:2Z</time></trkpt>
<trkpt lat="45.383127" lon="4.450896"><ele></ele><time>2014-6-14T19:40:5Z</time></trkpt>
<trkpt lat="45.383096" lon="4.450885"><ele></ele><time>2014-6-14T19:40:8Z</time></trkpt>
<trkpt lat="45.383068" lon="4.450885"><ele></ele><time>2014-6-14T19:40:11Z</time></trkpt>
<trkpt lat="45.38304" lon="4.450882"><ele></ele><time>2014-6-14T19:40:14Z</time></trkpt>
<trkpt lat="45.383013" lon="4.450878"><ele></ele><time>2014-6-14T19:40:17Z</time></trkpt>
<trkpt lat="45.382985" lon="4.450875"><ele></ele><time>2014-6-14T19:40:20Z</time></trkpt>
<trkpt lat="45.382958" lon="4.450868"><ele></ele><time>2014-6-14T19:40:23Z</time></trkpt>
<trkpt lat="45.382929" lon="4.450871"><ele></ele><time>2014-6-14T19:40:26Z</time></trkpt>
<trkpt lat="45.382898" lon="4.450878"><ele></ele><time>2014-6-14T19:40:29Z</time></trkpt>
<trkpt lat="45.382868" lon="4.45088"><ele></ele><time>2014-6-14T19:40:32Z</time></trkpt>
<trkpt lat="45.382836" lon="4.450879"><ele></ele><time>2014-6-14T19:40:35Z</time></trkpt>
<trkpt lat="45.382807" lon="4.450882"><ele></ele><time>2014-6-14T19:40:38Z</time></trkpt>
<trkpt lat="45.382776" lon="4.450884"><ele></ele><time>2014-6-14T19:40:41Z</time></trkpt>
<trkpt lat="45.382746" lon="4.450883"><ele></ele><time>2014-6-14T19:40:44Z</time></trkpt>
<trkpt lat="45.382715" lon="4.450882"><ele></ele><time>2014-6-14T19:40:47Z</time></trkpt>
<trkpt lat="45.382678" lon="4.450881"><ele></ele><time>2014-6-14T19:40:50Z</time></trkpt>
<trkpt lat="45.382646" lon="4.450886"><ele></ele><time>2014-6-14T19:40:53Z</time></trkpt>
<trkpt lat="45.382617" lon="4.450886"><ele></ele><time>2014-6-14T19:40:56Z</time></trkpt>
<trkpt lat="45.382588" lon="4.45088"><ele></ele><time>2014-6-14T19:40:59Z</time></trkpt>
<trkpt lat="45.382559" lon="4.450885"><ele></ele><time>2014-6-14T19:41:2Z</time></trkpt>
<trkpt lat="45.382529" lon="4.45089"><ele></ele><time>2014-6-14T19:41:5Z</time></trkpt>
<trkpt lat="45.382499" lon="4.450893"><ele></ele><time>2014-6-14T19:41:8Z</time></trkpt>
<trkpt lat="45.382468" lon="4.450894"><ele></ele><time>2014-6-14T19:41:11Z</time></trkpt>
<trkpt lat="45.382439" lon="4.450893"><ele></ele><time>2014-6-14T19:41:14Z</time></trkpt>
<trkpt lat="45.38241" lon="4.450896"><ele></ele><time>2014-6-14T19:41:17Z</time></trkpt>
<trkpt lat="45.382381" lon="4.450901"><ele></ele><time>2014-6-14T19:41:20Z</time></trkpt>
<trkpt lat="45.382353" lon="4.450908"><ele></ele><time>2014-6-14T19:41:23Z</time></trkpt>
<trkpt lat="45.382325" lon="4.450916"><ele></ele><time>2014-6-14T19:41:26Z</time></trkpt>
<trkpt lat="45.382296" lon="4.450927"><ele></ele><time>2014-6-14T19:41:29Z</time></trkpt>
<trkpt lat="45.382267" lon="4.450936"><ele></ele><time>2014-6-14T19:41:32Z</time></trkpt>
<trkpt lat="45.38224" lon="4.450943"><ele></ele><time>2014-6-14T19:41:35Z</time></trkpt>
<trkpt lat="45.382213" lon="4.450952"><ele></ele><time>2014-6-14T19:41:38Z</time></trkpt>
<trkpt lat="45.382187" lon="4.45096"><ele></ele><time>2014-6-14T19:41:41Z</time></trkpt>
<trkpt lat="45.382162" lon="4.450968"><ele></ele><time>2014-6-14T19:41:44Z</time></trkpt>
<trkpt lat="45.382135" lon="4.450974"><ele></ele><time>2014-6-14T19:41:47Z</time></trkpt>
<trkpt lat="45.382108" lon="4.45098"><ele></ele><time>2014-6-14T19:41:50Z</time></trkpt>
<trkpt lat="45.382082" lon="4.450986"><ele></ele><time>2014-6-14T19:41:53Z</time></trkpt>
<trkpt lat="45.382057" lon="4.450995"><ele></ele><time>2014-6-14T19:41:56Z</time></trkpt>
<trkpt lat="45.382031" lon="4.451005"><ele></ele><time>2014-6-14T19:41:59Z</time></trkpt>
<trkpt lat="45.382005" lon="4.451014"><ele></ele><time>2014-6-14T19:42:2Z</time></trkpt>
<trkpt lat="45.381978" lon="4.451025"><ele></ele><time>2014-6-14T19:42:5Z</time></trkpt>
<trkpt lat="45.381951" lon="4.451032"><ele></ele><time>2014-6-14T19:42:8Z</time></trkpt>
<trkpt lat="45.381923" lon="4.451041"><ele></ele><time>2014-6-14T19:42:11Z</time></trkpt>
<trkpt lat="45.381895" lon="4.451052"><ele></ele><time>2014-6-14T19:42:14Z</time></trkpt>
<trkpt lat="45.381869" lon="4.451063"><ele></ele><time>2014-6-14T19:42:17Z</time></trkpt>
<trkpt lat="45.381843" lon="4.451075"><ele></ele><time>2014-6-14T19:42:20Z</time></trkpt>
<trkpt lat="45.381817" lon="4.451093"><ele></ele><time>2014-6-14T19:42:23Z</time></trkpt>
<trkpt lat="45.38179" lon="4.451109"><ele></ele><time>2014-6-14T19:42:26Z</time></trkpt>
<trkpt lat="45.381764" lon="4.45112"><ele></ele><time>2014-6-14T19:42:29Z</time></trkpt>
<trkpt lat="45.38174" lon="4.451129"><ele></ele><time>2014-6-14T19:42:32Z</time></trkpt>
<trkpt lat="45.381715" lon="4.451137"><ele></ele><time>2014-6-14T19:42:35Z</time></trkpt>
<trkpt lat="45.381688" lon="4.451142"><ele></ele><time>2014-6-14T19:42:38Z</time></trkpt>
<trkpt lat="45.38166" lon="4.451147"><ele></ele><time>2014-6-14T19:42:41Z</time></trkpt>
<trkpt lat="45.381633" lon="4.451156"><ele></ele><time>2014-6-14T19:42:44Z</time></trkpt>
<trkpt lat="45.381606" lon="4.451163"><ele></ele><time>2014-6-14T19:42:47Z</time></trkpt>
<trkpt lat="45.38158" lon="4.451169"><ele></ele><time>2014-6-14T19:42:50Z</time></trkpt>
<trkpt lat="45.381553" lon="4.451177"><ele></ele><time>2014-6-14T19:42:53Z</time></trkpt>
<trkpt lat="45.381526" lon="4.451186"><ele></ele><time>2014-6-14T19:42:56Z</time></trkpt>
<trkpt lat="45.381503" lon="4.451196"><ele></ele><time>2014-6-14T19:42:59Z</time></trkpt>
<trkpt lat="45.381479" lon="4.451206"><ele></ele><time>2014-6-14T19:43:2Z</time></trkpt>
<trkpt lat="45.381454" lon="4.451214"><ele></ele><time>2014-6-14T19:43:5Z</time></trkpt>
<trkpt lat="45.381427" lon="4.451223"><ele></ele><time>2014-6-14T19:43:8Z</time></trkpt>
<trkpt lat="45.381402" lon="4.45124"><ele></ele><time>2014-6-14T19:43:11Z</time></trkpt>
<trkpt lat="45.381377" lon="4.45125"><ele></ele><time>2014-6-14T19:43:14Z</time></trkpt>
<trkpt lat="45.381353" lon="4.451261"><ele></ele><time>2014-6-14T19:43:17Z</time></trkpt>
<trkpt lat="45.381329" lon="4.451271"><ele></ele><time>2014-6-14T19:43:20Z</time></trkpt>
<trkpt lat="45.381306" lon="4.451282"><ele></ele><time>2014-6-14T19:43:23Z</time></trkpt>
<trkpt lat="45.381284" lon="4.451295"><ele></ele><time>2014-6-14T19:43:26Z</time></trkpt>
<trkpt lat="45.381261" lon="4.451308"><ele></ele><time>2014-6-14T19:43:29Z</time></trkpt>
<trkpt lat="45.381238" lon="4.451319"><ele></ele><time>2014-6-14T19:43:32Z</time></trkpt>
<trkpt lat="45.381215" lon="4.451331"><ele></ele><time>2014-6-14T19:43:35Z</time></trkpt>
<trkpt lat="45.381191" lon="4.451347"><ele></ele><time>2014-6-14T19:43:38Z</time></trkpt>
<trkpt lat="45.381168" lon="4.451364"><ele></ele><time>2014-6-14T19:43:41Z</time></trkpt>
<trkpt lat="45.381149" lon="4.45138"><ele></ele><time>2014-6-14T19:43:44Z</time></trkpt>
<trkpt lat="45.381131" lon="4.451394"><ele></ele><time>2014-6-14T19:43:47Z</time></trkpt>
<trkpt lat="45.381114" lon="4.451403"><ele></ele><time>2014-6-14T19:43:50Z</time></trkpt>
<trkpt lat="45.381098" lon="4.451416"><ele></ele><time>2014-6-14T19:43:53Z</time></trkpt>
<trkpt lat="45.381081" lon="4.45143"><ele></ele><time>2014-6-14T19:43:56Z</time></trkpt>
<trkpt lat="45.381062" lon="4.451446"><ele></ele><time>2014-6-14T19:43:59Z</time></trkpt>
<trkpt lat="45.381043" lon="4.451463"><ele></ele><time>2014-6-14T19:44:2Z</time></trkpt>
<trkpt lat="45.381026" lon="4.451477"><ele></ele><time>2014-6-14T19:44:5Z</time></trkpt>
<trkpt lat="45.38101" lon="4.451492"><ele></ele><time>2014-6-14T19:44:8Z</time></trkpt>
<trkpt lat="45.380995" lon="4.451502"><ele></ele><time>2014-6-14T19:44:11Z</time></trkpt>
<trkpt lat="45.380983" lon="4.451508"><ele></ele><time>2014-6-14T19:44:14Z</time></trkpt>
<trkpt lat="45.380975" lon="4.451515"><ele></ele><time>2014-6-14T19:44:17Z</time></trkpt>
<trkpt lat="45.380966" lon="4.451528"><ele></ele><time>2014-6-14T19:44:20Z</time></trkpt>
<trkpt lat="45.380955" lon="4.451545"><ele></ele><time>2014-6-14T19:44:23Z</time></trkpt>
<trkpt lat="45.380935" lon="4.451567"><ele></ele><time>2014-6-14T19:44:26Z</time></trkpt>
<trkpt lat="45.380916" lon="4.45159"><ele></ele><time>2014-6-14T19:44:29Z</time></trkpt>
<trkpt lat="45.380899" lon="4.451618"><ele></ele><time>2014-6-14T19:44:32Z</time></trkpt>
<trkpt lat="45.380883" lon="4.451646"><ele></ele><time>2014-6-14T19:44:35Z</time></trkpt>
<trkpt lat="45.380867" lon="4.451674"><ele></ele><time>2014-6-14T19:44:38Z</time></trkpt>
<trkpt lat="45.380847" lon="4.451697"><ele></ele><time>2014-6-14T19:44:41Z</time></trkpt>
<trkpt lat="45.380828" lon="4.451721"><ele></ele><time>2014-6-14T19:44:44Z</time></trkpt>
<trkpt lat="45.380806" lon="4.451748"><ele></ele><time>2014-6-14T19:44:47Z</time></trkpt>
<trkpt lat="45.380785" lon="4.451775"><ele></ele><time>2014-6-14T19:44:50Z</time></trkpt>
<trkpt lat="45.380765" lon="4.451813"><ele></ele><time>2014-6-14T19:44:53Z</time></trkpt>
<trkpt lat="45.380747" lon="4.451845"><ele></ele><time>2014-6-14T19:44:56Z</time></trkpt>
<trkpt lat="45.380727" lon="4.451879"><ele></ele><time>2014-6-14T19:44:59Z</time></trkpt>
<trkpt lat="45.380706" lon="4.451913"><ele></ele><time>2014-6-14T19:45:2Z</time></trkpt>
<trkpt lat="45.380685" lon="4.451946"><ele></ele><time>2014-6-14T19:45:5Z</time></trkpt>
<trkpt lat="45.380664" lon="4.451977"><ele></ele><time>2014-6-14T19:45:8Z</time></trkpt>
<trkpt lat="45.380642" lon="4.45201"><ele></ele><time>2014-6-14T19:45:11Z</time></trkpt>
<trkpt lat="45.380618" lon="4.452045"><ele></ele><time>2014-6-14T19:45:14Z</time></trkpt>
<trkpt lat="45.380596" lon="4.452087"><ele></ele><time>2014-6-14T19:45:17Z</time></trkpt>
<trkpt lat="45.380575" lon="4.452121"><ele></ele><time>2014-6-14T19:45:20Z</time></trkpt>
<trkpt lat="45.380552" lon="4.452157"><ele></ele><time>2014-6-14T19:45:23Z</time></trkpt>
<trkpt lat="45.380529" lon="4.452184"><ele></ele><time>2014-6-14T19:45:26Z</time></trkpt>
<trkpt lat="45.380506" lon="4.452211"><ele></ele><time>2014-6-14T19:45:29Z</time></trkpt>
<trkpt lat="45.380483" lon="4.452236"><ele></ele><time>2014-6-14T19:45:32Z</time></trkpt>
<trkpt lat="45.380457" lon="4.452259"><ele></ele><time>2014-6-14T19:45:35Z</time></trkpt>
<trkpt lat="45.380434" lon="4.452307"><ele></ele><time>2014-6-14T19:45:38Z</time></trkpt>
<trkpt lat="45.38041" lon="4.452326"><ele></ele><time>2014-6-14T19:45:41Z</time></trkpt>
<trkpt lat="45.380385" lon="4.452347"><ele></ele><time>2014-6-14T19:45:44Z</time></trkpt>
<trkpt lat="45.38036" lon="4.45237"><ele></ele><time>2014-6-14T19:45:47Z</time></trkpt>
<trkpt lat="45.380335" lon="4.45239"><ele></ele><time>2014-6-14T19:45:50Z</time></trkpt>
<trkpt lat="45.380317" lon="4.45243"><ele></ele><time>2014-6-14T19:45:53Z</time></trkpt>
<trkpt lat="45.380296" lon="4.452445"><ele></ele><time>2014-6-14T19:45:56Z</time></trkpt>
<trkpt lat="45.380274" lon="4.452462"><ele></ele><time>2014-6-14T19:45:59Z</time></trkpt>
<trkpt lat="45.38025" lon="4.452478"><ele></ele><time>2014-6-14T19:46:2Z</time></trkpt>
<trkpt lat="45.380223" lon="4.452495"><ele></ele><time>2014-6-14T19:46:5Z</time></trkpt>
<trkpt lat="45.380198" lon="4.452513"><ele></ele><time>2014-6-14T19:46:8Z</time></trkpt>
<trkpt lat="45.380173" lon="4.452532"><ele></ele><time>2014-6-14T19:46:11Z</time></trkpt>
<trkpt lat="45.380147" lon="4.452552"><ele></ele><time>2014-6-14T19:46:14Z</time></trkpt>
<trkpt lat="45.380121" lon="4.452571"><ele></ele><time>2014-6-14T19:46:17Z</time></trkpt>
<trkpt lat="45.380095" lon="4.45259"><ele></ele><time>2014-6-14T19:46:20Z</time></trkpt>
<trkpt lat="45.380071" lon="4.452605"><ele></ele><time>2014-6-14T19:46:23Z</time></trkpt>
<trkpt lat="45.380049" lon="4.452613"><ele></ele><time>2014-6-14T19:46:26Z</time></trkpt>
<trkpt lat="45.380029" lon="4.452615"><ele></ele><time>2014-6-14T19:46:29Z</time></trkpt>
<trkpt lat="45.380011" lon="4.452612"><ele></ele><time>2014-6-14T19:46:32Z</time></trkpt>
<trkpt lat="45.379996" lon="4.452604"><ele></ele><time>2014-6-14T19:46:35Z</time></trkpt>
<trkpt lat="45.379984" lon="4.452594"><ele></ele><time>2014-6-14T19:46:38Z</time></trkpt>
<trkpt lat="45.379975" lon="4.452579"><ele></ele><time>2014-6-14T19:46:41Z</time></trkpt>
<trkpt lat="45.379954" lon="4.452535"><ele></ele><time>2014-6-14T19:46:44Z</time></trkpt>
<trkpt lat="45.379941" lon="4.452508"><ele></ele><time>2014-6-14T19:46:47Z</time></trkpt>
<trkpt lat="45.379932" lon="4.452489"><ele></ele><time>2014-6-14T19:46:50Z</time></trkpt>
<trkpt lat="45.379921" lon="4.45247"><ele></ele><time>2014-6-14T19:46:53Z</time></trkpt>
<trkpt lat="45.379911" lon="4.452456"><ele></ele><time>2014-6-14T19:46:56Z</time></trkpt>
<trkpt lat="45.379896" lon="4.452447"><ele></ele><time>2014-6-14T19:46:59Z</time></trkpt>
<trkpt lat="45.379884" lon="4.452434"><ele></ele><time>2014-6-14T19:47:2Z</time></trkpt>
<trkpt lat="45.379875" lon="4.452423"><ele></ele><time>2014-6-14T19:47:5Z</time></trkpt>
<trkpt lat="45.379866" lon="4.452415"><ele></ele><time>2014-6-14T19:47:8Z</time></trkpt>
<trkpt lat="45.379855" lon="4.452409"><ele></ele><time>2014-6-14T19:47:11Z</time></trkpt>
<trkpt lat="45.379844" lon="4.452409"><ele></ele><time>2014-6-14T19:47:14Z</time></trkpt>
<trkpt lat="45.379833" lon="4.452415"><ele></ele><time>2014-6-14T19:47:17Z</time></trkpt>
<trkpt lat="45.379821" lon="4.452423"><ele></ele><time>2014-6-14T19:47:20Z</time></trkpt>
<trkpt lat="45.379811" lon="4.452428"><ele></ele><time>2014-6-14T19:47:23Z</time></trkpt>
<trkpt lat="45.3798" lon="4.452427"><ele></ele><time>2014-6-14T19:47:26Z</time></trkpt>
<trkpt lat="45.37979" lon="4.45243"><ele></ele><time>2014-6-14T19:47:29Z</time></trkpt>
<trkpt lat="45.379781" lon="4.452434"><ele></ele><time>2014-6-14T19:47:32Z</time></trkpt>
<trkpt lat="45.37977" lon="4.452439"><ele></ele><time>2014-6-14T19:47:35Z</time></trkpt>
<trkpt lat="45.37976" lon="4.452447"><ele></ele><time>2014-6-14T19:47:38Z</time></trkpt>
<trkpt lat="45.379752" lon="4.452454"><ele></ele><time>2014-6-14T19:47:41Z</time></trkpt>
<trkpt lat="45.379742" lon="4.452461"><ele></ele><time>2014-6-14T19:47:44Z</time></trkpt>
<trkpt lat="45.379732" lon="4.452467"><ele></ele><time>2014-6-14T19:47:47Z</time></trkpt>
<trkpt lat="45.379726" lon="4.45247"><ele></ele><time>2014-6-14T19:47:50Z</time></trkpt>
<trkpt lat="45.379721" lon="4.452474"><ele></ele><time>2014-6-14T19:47:53Z</time></trkpt>
<trkpt lat="45.379719" lon="4.452469"><ele></ele><time>2014-6-14T19:47:56Z</time></trkpt>
<trkpt lat="45.379713" lon="4.452464"><ele></ele><time>2014-6-14T19:47:59Z</time></trkpt>
<trkpt lat="45.379707" lon="4.452464"><ele></ele><time>2014-6-14T19:48:2Z</time></trkpt>
<trkpt lat="45.379699" lon="4.45247"><ele></ele><time>2014-6-14T19:48:5Z</time></trkpt>
<trkpt lat="45.379689" lon="4.452474"><ele></ele><time>2014-6-14T19:48:8Z</time></trkpt>
<trkpt lat="45.37968" lon="4.45247"><ele></ele><time>2014-6-14T19:48:11Z</time></trkpt>
<trkpt lat="45.379671" lon="4.452465"><ele></ele><time>2014-6-14T19:48:14Z</time></trkpt>
<trkpt lat="45.379663" lon="4.452462"><ele></ele><time>2014-6-14T19:48:17Z</time></trkpt>
<trkpt lat="45.379657" lon="4.452468"><ele></ele><time>2014-6-14T19:48:20Z</time></trkpt>
<trkpt lat="45.379632" lon="4.452462"><ele></ele><time>2014-6-14T19:48:23Z</time></trkpt>
<trkpt lat="45.379616" lon="4.452459"><ele></ele><time>2014-6-14T19:48:26Z</time></trkpt>
<trkpt lat="45.3796" lon="4.452462"><ele></ele><time>2014-6-14T19:48:29Z</time></trkpt>
<trkpt lat="45.379585" lon="4.452464"><ele></ele><time>2014-6-14T19:48:32Z</time></trkpt>
<trkpt lat="45.379569" lon="4.452472"><ele></ele><time>2014-6-14T19:48:35Z</time></trkpt>
<trkpt lat="45.379555" lon="4.452478"><ele></ele><time>2014-6-14T19:48:38Z</time></trkpt>
<trkpt lat="45.379542" lon="4.452486"><ele></ele><time>2014-6-14T19:48:41Z</time></trkpt>
<trkpt lat="45.379529" lon="4.452488"><ele></ele><time>2014-6-14T19:48:44Z</time></trkpt>
<trkpt lat="45.379516" lon="4.452486"><ele></ele><time>2014-6-14T19:48:47Z</time></trkpt>
<trkpt lat="45.379506" lon="4.452484"><ele></ele><time>2014-6-14T19:48:50Z</time></trkpt>
<trkpt lat="45.379495" lon="4.452473"><ele></ele><time>2014-6-14T19:48:53Z</time></trkpt>
<trkpt lat="45.379484" lon="4.452461"><ele></ele><time>2014-6-14T19:48:56Z</time></trkpt>
<trkpt lat="45.379475" lon="4.452448"><ele></ele><time>2014-6-14T19:48:59Z</time></trkpt>
<trkpt lat="45.379465" lon="4.452436"><ele></ele><time>2014-6-14T19:49:2Z</time></trkpt>
<trkpt lat="45.379454" lon="4.452428"><ele></ele><time>2014-6-14T19:49:5Z</time></trkpt>
<trkpt lat="45.379445" lon="4.452416"><ele></ele><time>2014-6-14T19:49:8Z</time></trkpt>
<trkpt lat="45.379438" lon="4.452406"><ele></ele><time>2014-6-14T19:49:11Z</time></trkpt>
<trkpt lat="45.379432" lon="4.452399"><ele></ele><time>2014-6-14T19:49:14Z</time></trkpt>
<trkpt lat="45.379426" lon="4.452389"><ele></ele><time>2014-6-14T19:49:17Z</time></trkpt>
<trkpt lat="45.379419" lon="4.452379"><ele></ele><time>2014-6-14T19:49:20Z</time></trkpt>
<trkpt lat="45.379413" lon="4.452368"><ele></ele><time>2014-6-14T19:49:23Z</time></trkpt>
<trkpt lat="45.379407" lon="4.452356"><ele></ele><time>2014-6-14T19:49:26Z</time></trkpt>
<trkpt lat="45.379402" lon="4.452351"><ele></ele><time>2014-6-14T19:49:29Z</time></trkpt>
<trkpt lat="45.379399" lon="4.452341"><ele></ele><time>2014-6-14T19:49:32Z</time></trkpt>
<trkpt lat="45.379395" lon="4.452331"><ele></ele><time>2014-6-14T19:49:35Z</time></trkpt>
<trkpt lat="45.379389" lon="4.452321"><ele></ele><time>2014-6-14T19:49:38Z</time></trkpt>
<trkpt lat="45.379382" lon="4.452311"><ele></ele><time>2014-6-14T19:49:41Z</time></trkpt>
<trkpt lat="45.379376" lon="4.452302"><ele></ele><time>2014-6-14T19:49:44Z</time></trkpt>
<trkpt lat="45.379368" lon="4.452293"><ele></ele><time>2014-6-14T19:49:47Z</time></trkpt>
<trkpt lat="45.379359" lon="4.452285"><ele></ele><time>2014-6-14T19:49:50Z</time></trkpt>
<trkpt lat="45.379349" lon="4.452278"><ele></ele><time>2014-6-14T19:49:53Z</time></trkpt>
<trkpt lat="45.379338" lon="4.452277"><ele></ele><time>2014-6-14T19:49:56Z</time></trkpt>
<trkpt lat="45.379325" lon="4.452283"><ele></ele><time>2014-6-14T19:49:59Z</time></trkpt>
<trkpt lat="45.379311" lon="4.452294"><ele></ele><time>2014-6-14T19:50:2Z</time></trkpt>
<trkpt lat="45.379298" lon="4.452305"><ele></ele><time>2014-6-14T19:50:5Z</time></trkpt>
<trkpt lat="45.379285" lon="4.452316"><ele></ele><time>2014-6-14T19:50:8Z</time></trkpt>
<trkpt lat="45.37927" lon="4.452331"><ele></ele><time>2014-6-14T19:50:11Z</time></trkpt>
<trkpt lat="45.379254" lon="4.452347"><ele></ele><time>2014-6-14T19:50:14Z</time></trkpt>
<trkpt lat="45.379239" lon="4.452366"><ele></ele><time>2014-6-14T19:50:17Z</time></trkpt>
<trkpt lat="45.379225" lon="4.452389"><ele></ele><time>2014-6-14T19:50:20Z</time></trkpt>
<trkpt lat="45.379212" lon="4.452404"><ele></ele><time>2014-6-14T19:50:23Z</time></trkpt>
<trkpt lat="45.379203" lon="4.452419"><ele></ele><time>2014-6-14T19:50:26Z</time></trkpt>
<trkpt lat="45.379189" lon="4.452436"><ele></ele><time>2014-6-14T19:50:29Z</time></trkpt>
<trkpt lat="45.379172" lon="4.452451"><ele></ele><time>2014-6-14T19:50:32Z</time></trkpt>
<trkpt lat="45.379147" lon="4.45246"><ele></ele><time>2014-6-14T19:50:35Z</time></trkpt>
<trkpt lat="45.379106" lon="4.452464"><ele></ele><time>2014-6-14T19:50:38Z</time></trkpt>
<trkpt lat="45.379085" lon="4.452473"><ele></ele><time>2014-6-14T19:50:41Z</time></trkpt>
<trkpt lat="45.379063" lon="4.452487"><ele></ele><time>2014-6-14T19:50:44Z</time></trkpt>
<trkpt lat="45.379039" lon="4.452498"><ele></ele><time>2014-6-14T19:50:47Z</time></trkpt>
<trkpt lat="45.379019" lon="4.452507"><ele></ele><time>2014-6-14T19:50:50Z</time></trkpt>
<trkpt lat="45.378996" lon="4.452515"><ele></ele><time>2014-6-14T19:50:53Z</time></trkpt>
<trkpt lat="45.378977" lon="4.452524"><ele></ele><time>2014-6-14T19:50:56Z</time></trkpt>
<trkpt lat="45.378958" lon="4.452535"><ele></ele><time>2014-6-14T19:50:59Z</time></trkpt>
<trkpt lat="45.378941" lon="4.452547"><ele></ele><time>2014-6-14T19:51:2Z</time></trkpt>
<trkpt lat="45.378922" lon="4.45257"><ele></ele><time>2014-6-14T19:51:5Z</time></trkpt>
<trkpt lat="45.378905" lon="4.452579"><ele></ele><time>2014-6-14T19:51:8Z</time></trkpt>
<trkpt lat="45.378888" lon="4.452592"><ele></ele><time>2014-6-14T19:51:11Z</time></trkpt>
<trkpt lat="45.378871" lon="4.452603"><ele></ele><time>2014-6-14T19:51:14Z</time></trkpt>
<trkpt lat="45.378853" lon="4.452614"><ele></ele><time>2014-6-14T19:51:17Z</time></trkpt>
<trkpt lat="45.378834" lon="4.452627"><ele></ele><time>2014-6-14T19:51:20Z</time></trkpt>
<trkpt lat="45.378815" lon="4.45264"><ele></ele><time>2014-6-14T19:51:23Z</time></trkpt>
<trkpt lat="45.378795" lon="4.452654"><ele></ele><time>2014-6-14T19:51:26Z</time></trkpt>
<trkpt lat="45.378776" lon="4.45267"><ele></ele><time>2014-6-14T19:51:29Z</time></trkpt>
<trkpt lat="45.37876" lon="4.452682"><ele></ele><time>2014-6-14T19:51:32Z</time></trkpt>
<trkpt lat="45.378746" lon="4.452699"><ele></ele><time>2014-6-14T19:51:35Z</time></trkpt>
<trkpt lat="45.378732" lon="4.452712"><ele></ele><time>2014-6-14T19:51:38Z</time></trkpt>
<trkpt lat="45.378716" lon="4.452726"><ele></ele><time>2014-6-14T19:51:41Z</time></trkpt>
<trkpt lat="45.378697" lon="4.452742"><ele></ele><time>2014-6-14T19:51:44Z</time></trkpt>
<trkpt lat="45.378678" lon="4.452757"><ele></ele><time>2014-6-14T19:51:47Z</time></trkpt>
<trkpt lat="45.378656" lon="4.452773"><ele></ele><time>2014-6-14T19:51:50Z</time></trkpt>
<trkpt lat="45.378634" lon="4.45279"><ele></ele><time>2014-6-14T19:51:53Z</time></trkpt>
<trkpt lat="45.378612" lon="4.452805"><ele></ele><time>2014-6-14T19:51:56Z</time></trkpt>
<trkpt lat="45.378592" lon="4.452818"><ele></ele><time>2014-6-14T19:51:59Z</time></trkpt>
<trkpt lat="45.378572" lon="4.452828"><ele></ele><time>2014-6-14T19:52:2Z</time></trkpt>
<trkpt lat="45.378552" lon="4.452832"><ele></ele><time>2014-6-14T19:52:5Z</time></trkpt>
<trkpt lat="45.378528" lon="4.452833"><ele></ele><time>2014-6-14T19:52:8Z</time></trkpt>
<trkpt lat="45.378506" lon="4.452836"><ele></ele><time>2014-6-14T19:52:11Z</time></trkpt>
<trkpt lat="45.378485" lon="4.452839"><ele></ele><time>2014-6-14T19:52:14Z</time></trkpt>
<trkpt lat="45.378466" lon="4.452843"><ele></ele><time>2014-6-14T19:52:17Z</time></trkpt>
<trkpt lat="45.378446" lon="4.452848"><ele></ele><time>2014-6-14T19:52:20Z</time></trkpt>
<trkpt lat="45.378423" lon="4.45285"><ele></ele><time>2014-6-14T19:52:23Z</time></trkpt>
<trkpt lat="45.378401" lon="4.452851"><ele></ele><time>2014-6-14T19:52:26Z</time></trkpt>
<trkpt lat="45.37838" lon="4.452855"><ele></ele><time>2014-6-14T19:52:29Z</time></trkpt>
<trkpt lat="45.37836" lon="4.452856"><ele></ele><time>2014-6-14T19:52:32Z</time></trkpt>
<trkpt lat="45.378343" lon="4.452852"><ele></ele><time>2014-6-14T19:52:35Z</time></trkpt>
<trkpt lat="45.378326" lon="4.45285"><ele></ele><time>2014-6-14T19:52:38Z</time></trkpt>
<trkpt lat="45.378308" lon="4.452852"><ele></ele><time>2014-6-14T19:52:41Z</time></trkpt>
<trkpt lat="45.37829" lon="4.452854"><ele></ele><time>2014-6-14T19:52:44Z</time></trkpt>
<trkpt lat="45.378271" lon="4.452861"><ele></ele><time>2014-6-14T19:52:47Z</time></trkpt>
<trkpt lat="45.378252" lon="4.452862"><ele></ele><time>2014-6-14T19:52:50Z</time></trkpt>
<trkpt lat="45.378234" lon="4.452859"><ele></ele><time>2014-6-14T19:52:53Z</time></trkpt>
<trkpt lat="45.378215" lon="4.452854"><ele></ele><time>2014-6-14T19:52:56Z</time></trkpt>
<trkpt lat="45.378195" lon="4.452856"><ele></ele><time>2014-6-14T19:52:59Z</time></trkpt>
<trkpt lat="45.378177" lon="4.452859"><ele></ele><time>2014-6-14T19:53:2Z</time></trkpt>
<trkpt lat="45.378156" lon="4.452862"><ele></ele><time>2014-6-14T19:53:5Z</time></trkpt>
<trkpt lat="45.378137" lon="4.452865"><ele></ele><time>2014-6-14T19:53:8Z</time></trkpt>
<trkpt lat="45.378119" lon="4.452869"><ele></ele><time>2014-6-14T19:53:11Z</time></trkpt>
<trkpt lat="45.378101" lon="4.452873"><ele></ele><time>2014-6-14T19:53:14Z</time></trkpt>
<trkpt lat="45.378084" lon="4.452876"><ele></ele><time>2014-6-14T19:53:17Z</time></trkpt>
<trkpt lat="45.378067" lon="4.45288"><ele></ele><time>2014-6-14T19:53:20Z</time></trkpt>
<trkpt lat="45.37805" lon="4.452879"><ele></ele><time>2014-6-14T19:53:23Z</time></trkpt>
<trkpt lat="45.378035" lon="4.452874"><ele></ele><time>2014-6-14T19:53:26Z</time></trkpt>
<trkpt lat="45.378021" lon="4.452872"><ele></ele><time>2014-6-14T19:53:29Z</time></trkpt>
<trkpt lat="45.378008" lon="4.452872"><ele></ele><time>2014-6-14T19:53:32Z</time></trkpt>
<trkpt lat="45.377997" lon="4.452873"><ele></ele><time>2014-6-14T19:53:35Z</time></trkpt>
<trkpt lat="45.377988" lon="4.452872"><ele></ele><time>2014-6-14T19:53:38Z</time></trkpt>
<trkpt lat="45.37798" lon="4.452867"><ele></ele><time>2014-6-14T19:53:41Z</time></trkpt>
<trkpt lat="45.377971" lon="4.452862"><ele></ele><time>2014-6-14T19:53:44Z</time></trkpt>
<trkpt lat="45.377961" lon="4.452856"><ele></ele><time>2014-6-14T19:53:47Z</time></trkpt>
<trkpt lat="45.377952" lon="4.452848"><ele></ele><time>2014-6-14T19:53:50Z</time></trkpt>
<trkpt lat="45.377945" lon="4.452843"><ele></ele><time>2014-6-14T19:53:53Z</time></trkpt>
<trkpt lat="45.377939" lon="4.452841"><ele></ele><time>2014-6-14T19:53:56Z</time></trkpt>
<trkpt lat="45.37793" lon="4.452822"><ele></ele><time>2014-6-14T19:53:59Z</time></trkpt>
<trkpt lat="45.377923" lon="4.452811"><ele></ele><time>2014-6-14T19:54:2Z</time></trkpt>
<trkpt lat="45.377918" lon="4.45281"><ele></ele><time>2014-6-14T19:54:5Z</time></trkpt>
<trkpt lat="45.377911" lon="4.452802"><ele></ele><time>2014-6-14T19:54:8Z</time></trkpt>
<trkpt lat="45.377905" lon="4.452792"><ele></ele><time>2014-6-14T19:54:11Z</time></trkpt>
<trkpt lat="45.377901" lon="4.45278"><ele></ele><time>2014-6-14T19:54:14Z</time></trkpt>
<trkpt lat="45.377898" lon="4.452771"><ele></ele><time>2014-6-14T19:54:17Z</time></trkpt>
<trkpt lat="45.377898" lon="4.452771"><ele></ele><time>2014-6-14T19:54:20Z</time></trkpt>
<trkpt lat="45.377898" lon="4.452771"><ele></ele><time>2014-6-14T19:54:23Z</time></trkpt>
<trkpt lat="45.377898" lon="4.452771"><ele></ele><time>2014-6-14T19:54:26Z</time></trkpt>
<trkpt lat="45.377898" lon="4.452776"><ele></ele><time>2014-6-14T19:54:29Z</time></trkpt>
<trkpt lat="45.377895" lon="4.452788"><ele></ele><time>2014-6-14T19:54:32Z</time></trkpt>
<trkpt lat="45.3779" lon="4.452806"><ele></ele><time>2014-6-14T19:54:35Z</time></trkpt>
<trkpt lat="45.377905" lon="4.452833"><ele></ele><time>2014-6-14T19:54:38Z</time></trkpt>
<trkpt lat="45.377906" lon="4.452853"><ele></ele><time>2014-6-14T19:54:41Z</time></trkpt>
<trkpt lat="45.37791" lon="4.452883"><ele></ele><time>2014-6-14T19:54:44Z</time></trkpt>
<trkpt lat="45.377913" lon="4.452919"><ele></ele><time>2014-6-14T19:54:47Z</time></trkpt>
<trkpt lat="45.377916" lon="4.45296"><ele></ele><time>2014-6-14T19:54:50Z</time></trkpt>
<trkpt lat="45.377921" lon="4.453002"><ele></ele><time>2014-6-14T19:54:53Z</time></trkpt>
<trkpt lat="45.377927" lon="4.453042"><ele></ele><time>2014-6-14T19:54:56Z</time></trkpt>
<trkpt lat="45.377936" lon="4.453085"><ele></ele><time>2014-6-14T19:54:59Z</time></trkpt>
<trkpt lat="45.377943" lon="4.453128"><ele></ele><time>2014-6-14T19:55:2Z</time></trkpt>
<trkpt lat="45.377956" lon="4.453163"><ele></ele><time>2014-6-14T19:55:5Z</time></trkpt>
<trkpt lat="45.377969" lon="4.45319"><ele></ele><time>2014-6-14T19:55:8Z</time></trkpt>
<trkpt lat="45.377979" lon="4.453216"><ele></ele><time>2014-6-14T19:55:11Z</time></trkpt>
<trkpt lat="45.377981" lon="4.45324"><ele></ele><time>2014-6-14T19:55:14Z</time></trkpt>
<trkpt lat="45.377977" lon="4.453264"><ele></ele><time>2014-6-14T19:55:17Z</time></trkpt>
<trkpt lat="45.377973" lon="4.453287"><ele></ele><time>2014-6-14T19:55:20Z</time></trkpt>
<trkpt lat="45.377967" lon="4.45331"><ele></ele><time>2014-6-14T19:55:23Z</time></trkpt>
<trkpt lat="45.377959" lon="4.45333"><ele></ele><time>2014-6-14T19:55:26Z</time></trkpt>
<trkpt lat="45.377952" lon="4.453346"><ele></ele><time>2014-6-14T19:55:29Z</time></trkpt>
<trkpt lat="45.377946" lon="4.453359"><ele></ele><time>2014-6-14T19:55:32Z</time></trkpt>
<trkpt lat="45.377941" lon="4.453373"><ele></ele><time>2014-6-14T19:55:35Z</time></trkpt>
<trkpt lat="45.377935" lon="4.453384"><ele></ele><time>2014-6-14T19:55:38Z</time></trkpt>
<trkpt lat="45.377896" lon="4.453383"><ele></ele><time>2014-6-14T19:55:41Z</time></trkpt>
<trkpt lat="45.377885" lon="4.453403"><ele></ele><time>2014-6-14T19:55:44Z</time></trkpt>
<trkpt lat="45.377878" lon="4.453416"><ele></ele><time>2014-6-14T19:55:47Z</time></trkpt>
<trkpt lat="45.377872" lon="4.453421"><ele></ele><time>2014-6-14T19:55:50Z</time></trkpt>
<trkpt lat="45.377864" lon="4.453425"><ele></ele><time>2014-6-14T19:55:53Z</time></trkpt>
<trkpt lat="45.377854" lon="4.453428"><ele></ele><time>2014-6-14T19:55:56Z</time></trkpt>
<trkpt lat="45.377842" lon="4.453427"><ele></ele><time>2014-6-14T19:55:59Z</time></trkpt>
<trkpt lat="45.377834" lon="4.453425"><ele></ele><time>2014-6-14T19:56:2Z</time></trkpt>
<trkpt lat="45.377834" lon="4.453425"><ele></ele><time>2014-6-14T19:56:5Z</time></trkpt>
<trkpt lat="45.377834" lon="4.453425"><ele></ele><time>2014-6-14T19:56:8Z</time></trkpt>
<trkpt lat="45.37783" lon="4.453427"><ele></ele><time>2014-6-14T19:56:11Z</time></trkpt>
<trkpt lat="45.37782" lon="4.453429"><ele></ele><time>2014-6-14T19:56:14Z</time></trkpt>
<trkpt lat="45.377804" lon="4.453428"><ele></ele><time>2014-6-14T19:56:17Z</time></trkpt>
<trkpt lat="45.37779" lon="4.453423"><ele></ele><time>2014-6-14T19:56:20Z</time></trkpt>
<trkpt lat="45.37778" lon="4.453416"><ele></ele><time>2014-6-14T19:56:23Z</time></trkpt>
<trkpt lat="45.377774" lon="4.453411"><ele></ele><time>2014-6-14T19:56:26Z</time></trkpt>
<trkpt lat="45.377766" lon="4.453412"><ele></ele><time>2014-6-14T19:56:29Z</time></trkpt>
<trkpt lat="45.377759" lon="4.453413"><ele></ele><time>2014-6-14T19:56:32Z</time></trkpt>
<trkpt lat="45.377752" lon="4.453423"><ele></ele><time>2014-6-14T19:56:35Z</time></trkpt>
<trkpt lat="45.377746" lon="4.453437"><ele></ele><time>2014-6-14T19:56:38Z</time></trkpt>
<trkpt lat="45.377742" lon="4.453451"><ele></ele><time>2014-6-14T19:56:41Z</time></trkpt>
<trkpt lat="45.377736" lon="4.45346"><ele></ele><time>2014-6-14T19:56:44Z</time></trkpt>
<trkpt lat="45.377733" lon="4.453468"><ele></ele><time>2014-6-14T19:56:47Z</time></trkpt>
<trkpt lat="45.377734" lon="4.453472"><ele></ele><time>2014-6-14T19:56:50Z</time></trkpt>
<trkpt lat="45.377737" lon="4.453479"><ele></ele><time>2014-6-14T19:56:53Z</time></trkpt>
<trkpt lat="45.377741" lon="4.453489"><ele></ele><time>2014-6-14T19:56:56Z</time></trkpt>
<trkpt lat="45.377747" lon="4.4535"><ele></ele><time>2014-6-14T19:56:59Z</time></trkpt>
<trkpt lat="45.377756" lon="4.453513"><ele></ele><time>2014-6-14T19:57:2Z</time></trkpt>
<trkpt lat="45.377767" lon="4.453526"><ele></ele><time>2014-6-14T19:57:5Z</time></trkpt>
<trkpt lat="45.377775" lon="4.453543"><ele></ele><time>2014-6-14T19:57:8Z</time></trkpt>
<trkpt lat="45.377783" lon="4.453552"><ele></ele><time>2014-6-14T19:57:11Z</time></trkpt>
<trkpt lat="45.377791" lon="4.453564"><ele></ele><time>2014-6-14T19:57:14Z</time></trkpt>
<trkpt lat="45.377802" lon="4.45357"><ele></ele><time>2014-6-14T19:57:17Z</time></trkpt>
<trkpt lat="45.377812" lon="4.453582"><ele></ele><time>2014-6-14T19:57:20Z</time></trkpt>
<trkpt lat="45.377823" lon="4.4536"><ele></ele><time>2014-6-14T19:57:23Z</time></trkpt>
<trkpt lat="45.377835" lon="4.453618"><ele></ele><time>2014-6-14T19:57:26Z</time></trkpt>
<trkpt lat="45.377842" lon="4.453647"><ele></ele><time>2014-6-14T19:57:29Z</time></trkpt>
<trkpt lat="45.377846" lon="4.453676"><ele></ele><time>2014-6-14T19:57:32Z</time></trkpt>
<trkpt lat="45.377846" lon="4.453708"><ele></ele><time>2014-6-14T19:57:35Z</time></trkpt>
<trkpt lat="45.377845" lon="4.453743"><ele></ele><time>2014-6-14T19:57:38Z</time></trkpt>
<trkpt lat="45.377845" lon="4.453778"><ele></ele><time>2014-6-14T19:57:41Z</time></trkpt>
<trkpt lat="45.377844" lon="4.45381"><ele></ele><time>2014-6-14T19:57:44Z</time></trkpt>
<trkpt lat="45.377843" lon="4.45384"><ele></ele><time>2014-6-14T19:57:47Z</time></trkpt>
<trkpt lat="45.377843" lon="4.453867"><ele></ele><time>2014-6-14T19:57:50Z</time></trkpt>
<trkpt lat="45.37784" lon="4.453893"><ele></ele><time>2014-6-14T19:57:53Z</time></trkpt>
<trkpt lat="45.377835" lon="4.453922"><ele></ele><time>2014-6-14T19:57:56Z</time></trkpt>
<trkpt lat="45.377831" lon="4.453951"><ele></ele><time>2014-6-14T19:57:59Z</time></trkpt>
<trkpt lat="45.377827" lon="4.453983"><ele></ele><time>2014-6-14T19:58:2Z</time></trkpt>
<trkpt lat="45.377826" lon="4.454017"><ele></ele><time>2014-6-14T19:58:5Z</time></trkpt>
<trkpt lat="45.377827" lon="4.454057"><ele></ele><time>2014-6-14T19:58:8Z</time></trkpt>
<trkpt lat="45.37783" lon="4.454095"><ele></ele><time>2014-6-14T19:58:11Z</time></trkpt>
<trkpt lat="45.377834" lon="4.454131"><ele></ele><time>2014-6-14T19:58:14Z</time></trkpt>
<trkpt lat="45.377837" lon="4.454162"><ele></ele><time>2014-6-14T19:58:17Z</time></trkpt>
<trkpt lat="45.377841" lon="4.454191"><ele></ele><time>2014-6-14T19:58:20Z</time></trkpt>
<trkpt lat="45.377842" lon="4.454218"><ele></ele><time>2014-6-14T19:58:23Z</time></trkpt>
<trkpt lat="45.377846" lon="4.454248"><ele></ele><time>2014-6-14T19:58:26Z</time></trkpt>
<trkpt lat="45.377849" lon="4.454285"><ele></ele><time>2014-6-14T19:58:29Z</time></trkpt>
<trkpt lat="45.377853" lon="4.454323"><ele></ele><time>2014-6-14T19:58:32Z</time></trkpt>
<trkpt lat="45.377854" lon="4.454361"><ele></ele><time>2014-6-14T19:58:35Z</time></trkpt>
<trkpt lat="45.37786" lon="4.454393"><ele></ele><time>2014-6-14T19:58:38Z</time></trkpt>
<trkpt lat="45.377865" lon="4.454428"><ele></ele><time>2014-6-14T19:58:41Z</time></trkpt>
<trkpt lat="45.377868" lon="4.454467"><ele></ele><time>2014-6-14T19:58:44Z</time></trkpt>
<trkpt lat="45.377866" lon="4.45451"><ele></ele><time>2014-6-14T19:58:47Z</time></trkpt>
<trkpt lat="45.377863" lon="4.454556"><ele></ele><time>2014-6-14T19:58:50Z</time></trkpt>
<trkpt lat="45.377862" lon="4.4546"><ele></ele><time>2014-6-14T19:58:53Z</time></trkpt>
<trkpt lat="45.377862" lon="4.454637"><ele></ele><time>2014-6-14T19:58:56Z</time></trkpt>
<trkpt lat="45.377859" lon="4.454666"><ele></ele><time>2014-6-14T19:58:59Z</time></trkpt>
<trkpt lat="45.377852" lon="4.454689"><ele></ele><time>2014-6-14T19:59:2Z</time></trkpt>
<trkpt lat="45.377844" lon="4.454713"><ele></ele><time>2014-6-14T19:59:5Z</time></trkpt>
<trkpt lat="45.377839" lon="4.454732"><ele></ele><time>2014-6-14T19:59:8Z</time></trkpt>
<trkpt lat="45.377835" lon="4.45475"><ele></ele><time>2014-6-14T19:59:11Z</time></trkpt>
<trkpt lat="45.37783" lon="4.454769"><ele></ele><time>2014-6-14T19:59:14Z</time></trkpt>
<trkpt lat="45.37785" lon="4.454814"><ele></ele><time>2014-6-14T19:59:17Z</time></trkpt>
<trkpt lat="45.377844" lon="4.454839"><ele></ele><time>2014-6-14T19:59:20Z</time></trkpt>
<trkpt lat="45.37783" lon="4.454858"><ele></ele><time>2014-6-14T19:59:23Z</time></trkpt>
<trkpt lat="45.377819" lon="4.454882"><ele></ele><time>2014-6-14T19:59:26Z</time></trkpt>
<trkpt lat="45.377808" lon="4.454912"><ele></ele><time>2014-6-14T19:59:29Z</time></trkpt>
<trkpt lat="45.377804" lon="4.45495"><ele></ele><time>2014-6-14T19:59:32Z</time></trkpt>
<trkpt lat="45.377807" lon="4.454989"><ele></ele><time>2014-6-14T19:59:35Z</time></trkpt>
<trkpt lat="45.377811" lon="4.455029"><ele></ele><time>2014-6-14T19:59:38Z</time></trkpt>
<trkpt lat="45.377814" lon="4.45507"><ele></ele><time>2014-6-14T19:59:41Z</time></trkpt>
<trkpt lat="45.377813" lon="4.455115"><ele></ele><time>2014-6-14T19:59:44Z</time></trkpt>
<trkpt lat="45.377815" lon="4.455158"><ele></ele><time>2014-6-14T19:59:47Z</time></trkpt>
<trkpt lat="45.377816" lon="4.455201"><ele></ele><time>2014-6-14T19:59:50Z</time></trkpt>
<trkpt lat="45.377815" lon="4.455241"><ele></ele><time>2014-6-14T19:59:53Z</time></trkpt>
<trkpt lat="45.377814" lon="4.455281"><ele></ele><time>2014-6-14T19:59:56Z</time></trkpt>
<trkpt lat="45.377808" lon="4.455326"><ele></ele><time>2014-6-14T19:59:59Z</time></trkpt>
<trkpt lat="45.377802" lon="4.455372"><ele></ele><time>2014-6-14T20:0:2Z</time></trkpt>
<trkpt lat="45.377797" lon="4.455421"><ele></ele><time>2014-6-14T20:0:5Z</time></trkpt>
<trkpt lat="45.377792" lon="4.455465"><ele></ele><time>2014-6-14T20:0:8Z</time></trkpt>
<trkpt lat="45.377784" lon="4.455516"><ele></ele><time>2014-6-14T20:0:11Z</time></trkpt>
<trkpt lat="45.377777" lon="4.455567"><ele></ele><time>2014-6-14T20:0:14Z</time></trkpt>
<trkpt lat="45.377769" lon="4.455614"><ele></ele><time>2014-6-14T20:0:17Z</time></trkpt>
<trkpt lat="45.377762" lon="4.455661"><ele></ele><time>2014-6-14T20:0:20Z</time></trkpt>
<trkpt lat="45.377752" lon="4.455703"><ele></ele><time>2014-6-14T20:0:23Z</time></trkpt>
<trkpt lat="45.37774" lon="4.455747"><ele></ele><time>2014-6-14T20:0:26Z</time></trkpt>
<trkpt lat="45.37773" lon="4.455794"><ele></ele><time>2014-6-14T20:0:29Z</time></trkpt>
<trkpt lat="45.37772" lon="4.45584"><ele></ele><time>2014-6-14T20:0:32Z</time></trkpt>
<trkpt lat="45.377717" lon="4.455887"><ele></ele><time>2014-6-14T20:0:35Z</time></trkpt>
<trkpt lat="45.377716" lon="4.455934"><ele></ele><time>2014-6-14T20:0:38Z</time></trkpt>
<trkpt lat="45.37773" lon="4.456004"><ele></ele><time>2014-6-14T20:0:41Z</time></trkpt>
<trkpt lat="45.377728" lon="4.456049"><ele></ele><time>2014-6-14T20:0:44Z</time></trkpt>
<trkpt lat="45.377727" lon="4.456091"><ele></ele><time>2014-6-14T20:0:47Z</time></trkpt>
<trkpt lat="45.377727" lon="4.456134"><ele></ele><time>2014-6-14T20:0:50Z</time></trkpt>
<trkpt lat="45.377734" lon="4.456191"><ele></ele><time>2014-6-14T20:0:53Z</time></trkpt>
<trkpt lat="45.377733" lon="4.456239"><ele></ele><time>2014-6-14T20:0:56Z</time></trkpt>
<trkpt lat="45.377728" lon="4.456282"><ele></ele><time>2014-6-14T20:0:59Z</time></trkpt>
<trkpt lat="45.377723" lon="4.456323"><ele></ele><time>2014-6-14T20:1:2Z</time></trkpt>
<trkpt lat="45.377717" lon="4.456369"><ele></ele><time>2014-6-14T20:1:5Z</time></trkpt>
<trkpt lat="45.377712" lon="4.456418"><ele></ele><time>2014-6-14T20:1:8Z</time></trkpt>
<trkpt lat="45.377707" lon="4.456475"><ele></ele><time>2014-6-14T20:1:11Z</time></trkpt>
<trkpt lat="45.377707" lon="4.456526"><ele></ele><time>2014-6-14T20:1:14Z</time></trkpt>
<trkpt lat="45.377708" lon="4.456563"><ele></ele><time>2014-6-14T20:1:17Z</time></trkpt>
<trkpt lat="45.377711" lon="4.456605"><ele></ele><time>2014-6-14T20:1:20Z</time></trkpt>
<trkpt lat="45.377714" lon="4.456646"><ele></ele><time>2014-6-14T20:1:23Z</time></trkpt>
<trkpt lat="45.377719" lon="4.456689"><ele></ele><time>2014-6-14T20:1:26Z</time></trkpt>
<trkpt lat="45.377726" lon="4.456719"><ele></ele><time>2014-6-14T20:1:29Z</time></trkpt>
<trkpt lat="45.377737" lon="4.456754"><ele></ele><time>2014-6-14T20:1:32Z</time></trkpt>
<trkpt lat="45.377748" lon="4.456795"><ele></ele><time>2014-6-14T20:1:35Z</time></trkpt>
<trkpt lat="45.37776" lon="4.456833"><ele></ele><time>2014-6-14T20:1:38Z</time></trkpt>
<trkpt lat="45.37777" lon="4.456868"><ele></ele><time>2014-6-14T20:1:41Z</time></trkpt>
<trkpt lat="45.37778" lon="4.456904"><ele></ele><time>2014-6-14T20:1:44Z</time></trkpt>
<trkpt lat="45.377793" lon="4.456948"><ele></ele><time>2014-6-14T20:1:47Z</time></trkpt>
<trkpt lat="45.377813" lon="4.456993"><ele></ele><time>2014-6-14T20:1:50Z</time></trkpt>
<trkpt lat="45.377827" lon="4.457033"><ele></ele><time>2014-6-14T20:1:53Z</time></trkpt>
<trkpt lat="45.37784" lon="4.457071"><ele></ele><time>2014-6-14T20:1:56Z</time></trkpt>
<trkpt lat="45.377849" lon="4.457108"><ele></ele><time>2014-6-14T20:1:59Z</time></trkpt>
<trkpt lat="45.377858" lon="4.457147"><ele></ele><time>2014-6-14T20:2:2Z</time></trkpt>
<trkpt lat="45.37787" lon="4.457182"><ele></ele><time>2014-6-14T20:2:5Z</time></trkpt>
<trkpt lat="45.377882" lon="4.457222"><ele></ele><time>2014-6-14T20:2:8Z</time></trkpt>
<trkpt lat="45.377897" lon="4.457262"><ele></ele><time>2014-6-14T20:2:11Z</time></trkpt>
<trkpt lat="45.377909" lon="4.457301"><ele></ele><time>2014-6-14T20:2:14Z</time></trkpt>
<trkpt lat="45.377922" lon="4.45734"><ele></ele><time>2014-6-14T20:2:17Z</time></trkpt>
<trkpt lat="45.377937" lon="4.457377"><ele></ele><time>2014-6-14T20:2:20Z</time></trkpt>
<trkpt lat="45.377953" lon="4.457416"><ele></ele><time>2014-6-14T20:2:23Z</time></trkpt>
<trkpt lat="45.377966" lon="4.457451"><ele></ele><time>2014-6-14T20:2:26Z</time></trkpt>
<trkpt lat="45.377977" lon="4.457486"><ele></ele><time>2014-6-14T20:2:29Z</time></trkpt>
<trkpt lat="45.377986" lon="4.45752"><ele></ele><time>2014-6-14T20:2:32Z</time></trkpt>
<trkpt lat="45.377996" lon="4.457554"><ele></ele><time>2014-6-14T20:2:35Z</time></trkpt>
<trkpt lat="45.378005" lon="4.45759"><ele></ele><time>2014-6-14T20:2:38Z</time></trkpt>
<trkpt lat="45.378012" lon="4.457627"><ele></ele><time>2014-6-14T20:2:41Z</time></trkpt>
<trkpt lat="45.378019" lon="4.457664"><ele></ele><time>2014-6-14T20:2:44Z</time></trkpt>
<trkpt lat="45.37803" lon="4.457697"><ele></ele><time>2014-6-14T20:2:47Z</time></trkpt>
<trkpt lat="45.37804" lon="4.45773"><ele></ele><time>2014-6-14T20:2:50Z</time></trkpt>
<trkpt lat="45.378052" lon="4.457762"><ele></ele><time>2014-6-14T20:2:53Z</time></trkpt>
<trkpt lat="45.378062" lon="4.457795"><ele></ele><time>2014-6-14T20:2:56Z</time></trkpt>
<trkpt lat="45.378071" lon="4.457832"><ele></ele><time>2014-6-14T20:2:59Z</time></trkpt>
<trkpt lat="45.378079" lon="4.457868"><ele></ele><time>2014-6-14T20:3:2Z</time></trkpt>
<trkpt lat="45.378091" lon="4.457904"><ele></ele><time>2014-6-14T20:3:5Z</time></trkpt>
<trkpt lat="45.3781" lon="4.457937"><ele></ele><time>2014-6-14T20:3:8Z</time></trkpt>
<trkpt lat="45.378109" lon="4.457971"><ele></ele><time>2014-6-14T20:3:11Z</time></trkpt>
<trkpt lat="45.378117" lon="4.458005"><ele></ele><time>2014-6-14T20:3:14Z</time></trkpt>
<trkpt lat="45.378126" lon="4.458037"><ele></ele><time>2014-6-14T20:3:17Z</time></trkpt>
<trkpt lat="45.378135" lon="4.458067"><ele></ele><time>2014-6-14T20:3:20Z</time></trkpt>
<trkpt lat="45.378143" lon="4.458099"><ele></ele><time>2014-6-14T20:3:23Z</time></trkpt>
<trkpt lat="45.378151" lon="4.458132"><ele></ele><time>2014-6-14T20:3:26Z</time></trkpt>
<trkpt lat="45.378159" lon="4.458164"><ele></ele><time>2014-6-14T20:3:29Z</time></trkpt>
<trkpt lat="45.378164" lon="4.458197"><ele></ele><time>2014-6-14T20:3:32Z</time></trkpt>
<trkpt lat="45.378168" lon="4.458231"><ele></ele><time>2014-6-14T20:3:35Z</time></trkpt>
<trkpt lat="45.378171" lon="4.458264"><ele></ele><time>2014-6-14T20:3:38Z</time></trkpt>
<trkpt lat="45.378168" lon="4.458303"><ele></ele><time>2014-6-14T20:3:41Z</time></trkpt>
<trkpt lat="45.378171" lon="4.458341"><ele></ele><time>2014-6-14T20:3:44Z</time></trkpt>
<trkpt lat="45.378176" lon="4.458376"><ele></ele><time>2014-6-14T20:3:47Z</time></trkpt>
<trkpt lat="45.37818" lon="4.458412"><ele></ele><time>2014-6-14T20:3:50Z</time></trkpt>
<trkpt lat="45.378182" lon="4.458446"><ele></ele><time>2014-6-14T20:3:53Z</time></trkpt>
<trkpt lat="45.378182" lon="4.458479"><ele></ele><time>2014-6-14T20:3:56Z</time></trkpt>
<trkpt lat="45.378184" lon="4.458513"><ele></ele><time>2014-6-14T20:3:59Z</time></trkpt>
<trkpt lat="45.378185" lon="4.458549"><ele></ele><time>2014-6-14T20:4:2Z</time></trkpt>
<trkpt lat="45.378185" lon="4.458584"><ele></ele><time>2014-6-14T20:4:5Z</time></trkpt>
<trkpt lat="45.378187" lon="4.458616"><ele></ele><time>2014-6-14T20:4:8Z</time></trkpt>
<trkpt lat="45.378188" lon="4.458648"><ele></ele><time>2014-6-14T20:4:11Z</time></trkpt>
<trkpt lat="45.378182" lon="4.458674"><ele></ele><time>2014-6-14T20:4:14Z</time></trkpt>
<trkpt lat="45.378184" lon="4.458705"><ele></ele><time>2014-6-14T20:4:17Z</time></trkpt>
<trkpt lat="45.378185" lon="4.458737"><ele></ele><time>2014-6-14T20:4:20Z</time></trkpt>
<trkpt lat="45.378185" lon="4.45877"><ele></ele><time>2014-6-14T20:4:23Z</time></trkpt>
<trkpt lat="45.378182" lon="4.4588"><ele></ele><time>2014-6-14T20:4:26Z</time></trkpt>
<trkpt lat="45.378177" lon="4.458829"><ele></ele><time>2014-6-14T20:4:29Z</time></trkpt>
<trkpt lat="45.378176" lon="4.458857"><ele></ele><time>2014-6-14T20:4:32Z</time></trkpt>
<trkpt lat="45.378174" lon="4.45889"><ele></ele><time>2014-6-14T20:4:35Z</time></trkpt>
<trkpt lat="45.378169" lon="4.458919"><ele></ele><time>2014-6-14T20:4:38Z</time></trkpt>
<trkpt lat="45.378163" lon="4.458948"><ele></ele><time>2014-6-14T20:4:41Z</time></trkpt>
<trkpt lat="45.378157" lon="4.458974"><ele></ele><time>2014-6-14T20:4:44Z</time></trkpt>
<trkpt lat="45.378158" lon="4.459012"><ele></ele><time>2014-6-14T20:4:47Z</time></trkpt>
<trkpt lat="45.378159" lon="4.459049"><ele></ele><time>2014-6-14T20:4:50Z</time></trkpt>
<trkpt lat="45.37816" lon="4.459082"><ele></ele><time>2014-6-14T20:4:53Z</time></trkpt>
<trkpt lat="45.378159" lon="4.459112"><ele></ele><time>2014-6-14T20:4:56Z</time></trkpt>
<trkpt lat="45.378159" lon="4.459142"><ele></ele><time>2014-6-14T20:4:59Z</time></trkpt>
<trkpt lat="45.378156" lon="4.459168"><ele></ele><time>2014-6-14T20:5:2Z</time></trkpt>
<trkpt lat="45.378151" lon="4.459195"><ele></ele><time>2014-6-14T20:5:5Z</time></trkpt>
<trkpt lat="45.378145" lon="4.459219"><ele></ele><time>2014-6-14T20:5:8Z</time></trkpt>
<trkpt lat="45.378143" lon="4.459245"><ele></ele><time>2014-6-14T20:5:11Z</time></trkpt>
<trkpt lat="45.37814" lon="4.459273"><ele></ele><time>2014-6-14T20:5:14Z</time></trkpt>
<trkpt lat="45.378133" lon="4.459302"><ele></ele><time>2014-6-14T20:5:17Z</time></trkpt>
<trkpt lat="45.378127" lon="4.459326"><ele></ele><time>2014-6-14T20:5:20Z</time></trkpt>
<trkpt lat="45.378122" lon="4.45935"><ele></ele><time>2014-6-14T20:5:23Z</time></trkpt>
<trkpt lat="45.378117" lon="4.45938"><ele></ele><time>2014-6-14T20:5:26Z</time></trkpt>
<trkpt lat="45.378109" lon="4.459409"><ele></ele><time>2014-6-14T20:5:29Z</time></trkpt>
<trkpt lat="45.378101" lon="4.459438"><ele></ele><time>2014-6-14T20:5:32Z</time></trkpt>
<trkpt lat="45.378093" lon="4.459465"><ele></ele><time>2014-6-14T20:5:35Z</time></trkpt>
<trkpt lat="45.378082" lon="4.459499"><ele></ele><time>2014-6-14T20:5:38Z</time></trkpt>
<trkpt lat="45.378073" lon="4.459527"><ele></ele><time>2014-6-14T20:5:41Z</time></trkpt>
<trkpt lat="45.378066" lon="4.459552"><ele></ele><time>2014-6-14T20:5:44Z</time></trkpt>
<trkpt lat="45.378059" lon="4.459573"><ele></ele><time>2014-6-14T20:5:47Z</time></trkpt>
<trkpt lat="45.378052" lon="4.459598"><ele></ele><time>2014-6-14T20:5:50Z</time></trkpt>
<trkpt lat="45.378044" lon="4.459622"><ele></ele><time>2014-6-14T20:5:53Z</time></trkpt>
<trkpt lat="45.378037" lon="4.459643"><ele></ele><time>2014-6-14T20:5:56Z</time></trkpt>
<trkpt lat="45.378028" lon="4.459662"><ele></ele><time>2014-6-14T20:5:59Z</time></trkpt>
<trkpt lat="45.378016" lon="4.459683"><ele></ele><time>2014-6-14T20:6:2Z</time></trkpt>
<trkpt lat="45.378005" lon="4.459705"><ele></ele><time>2014-6-14T20:6:5Z</time></trkpt>
<trkpt lat="45.377993" lon="4.459729"><ele></ele><time>2014-6-14T20:6:8Z</time></trkpt>
<trkpt lat="45.377982" lon="4.459754"><ele></ele><time>2014-6-14T20:6:11Z</time></trkpt>
<trkpt lat="45.37797" lon="4.459777"><ele></ele><time>2014-6-14T20:6:14Z</time></trkpt>
<trkpt lat="45.377961" lon="4.459801"><ele></ele><time>2014-6-14T20:6:17Z</time></trkpt>
<trkpt lat="45.377953" lon="4.459824"><ele></ele><time>2014-6-14T20:6:20Z</time></trkpt>
<trkpt lat="45.377944" lon="4.459845"><ele></ele><time>2014-6-14T20:6:23Z</time></trkpt>
<trkpt lat="45.377934" lon="4.459869"><ele></ele><time>2014-6-14T20:6:26Z</time></trkpt>
<trkpt lat="45.377923" lon="4.459893"><ele></ele><time>2014-6-14T20:6:29Z</time></trkpt>
<trkpt lat="45.377914" lon="4.459915"><ele></ele><time>2014-6-14T20:6:32Z</time></trkpt>
<trkpt lat="45.377907" lon="4.459938"><ele></ele><time>2014-6-14T20:6:35Z</time></trkpt>
<trkpt lat="45.377902" lon="4.459965"><ele></ele><time>2014-6-14T20:6:38Z</time></trkpt>
<trkpt lat="45.377898" lon="4.459997"><ele></ele><time>2014-6-14T20:6:41Z</time></trkpt>
<trkpt lat="45.377897" lon="4.460043"><ele></ele><time>2014-6-14T20:6:44Z</time></trkpt>
<trkpt lat="45.377895" lon="4.460081"><ele></ele><time>2014-6-14T20:6:47Z</time></trkpt>
<trkpt lat="45.377892" lon="4.460114"><ele></ele><time>2014-6-14T20:6:50Z</time></trkpt>
<trkpt lat="45.377888" lon="4.460141"><ele></ele><time>2014-6-14T20:6:53Z</time></trkpt>
<trkpt lat="45.377885" lon="4.460163"><ele></ele><time>2014-6-14T20:6:56Z</time></trkpt>
<trkpt lat="45.377882" lon="4.460191"><ele></ele><time>2014-6-14T20:6:59Z</time></trkpt>
<trkpt lat="45.377875" lon="4.460222"><ele></ele><time>2014-6-14T20:7:2Z</time></trkpt>
<trkpt lat="45.377868" lon="4.460249"><ele></ele><time>2014-6-14T20:7:5Z</time></trkpt>
<trkpt lat="45.37786" lon="4.460275"><ele></ele><time>2014-6-14T20:7:8Z</time></trkpt>
<trkpt lat="45.377853" lon="4.460301"><ele></ele><time>2014-6-14T20:7:11Z</time></trkpt>
<trkpt lat="45.377845" lon="4.460327"><ele></ele><time>2014-6-14T20:7:14Z</time></trkpt>
<trkpt lat="45.377837" lon="4.460351"><ele></ele><time>2014-6-14T20:7:17Z</time></trkpt>
<trkpt lat="45.377829" lon="4.460377"><ele></ele><time>2014-6-14T20:7:20Z</time></trkpt>
<trkpt lat="45.377821" lon="4.460405"><ele></ele><time>2014-6-14T20:7:23Z</time></trkpt>
<trkpt lat="45.377813" lon="4.460436"><ele></ele><time>2014-6-14T20:7:26Z</time></trkpt>
<trkpt lat="45.377805" lon="4.460465"><ele></ele><time>2014-6-14T20:7:29Z</time></trkpt>
<trkpt lat="45.377798" lon="4.460492"><ele></ele><time>2014-6-14T20:7:32Z</time></trkpt>
<trkpt lat="45.377792" lon="4.460518"><ele></ele><time>2014-6-14T20:7:35Z</time></trkpt>
<trkpt lat="45.377785" lon="4.460546"><ele></ele><time>2014-6-14T20:7:38Z</time></trkpt>
<trkpt lat="45.377779" lon="4.460574"><ele></ele><time>2014-6-14T20:7:41Z</time></trkpt>
<trkpt lat="45.377772" lon="4.460603"><ele></ele><time>2014-6-14T20:7:44Z</time></trkpt>
<trkpt lat="45.377766" lon="4.460636"><ele></ele><time>2014-6-14T20:7:47Z</time></trkpt>
<trkpt lat="45.377757" lon="4.460661"><ele></ele><time>2014-6-14T20:7:50Z</time></trkpt>
<trkpt lat="45.377748" lon="4.460687"><ele></ele><time>2014-6-14T20:7:53Z</time></trkpt>
<trkpt lat="45.377741" lon="4.460714"><ele></ele><time>2014-6-14T20:7:56Z</time></trkpt>
<trkpt lat="45.377735" lon="4.46074"><ele></ele><time>2014-6-14T20:7:59Z</time></trkpt>
<trkpt lat="45.377733" lon="4.460773"><ele></ele><time>2014-6-14T20:8:2Z</time></trkpt>
<trkpt lat="45.377726" lon="4.460802"><ele></ele><time>2014-6-14T20:8:5Z</time></trkpt>
<trkpt lat="45.377719" lon="4.460825"><ele></ele><time>2014-6-14T20:8:8Z</time></trkpt>
<trkpt lat="45.377711" lon="4.46085"><ele></ele><time>2014-6-14T20:8:11Z</time></trkpt>
<trkpt lat="45.377702" lon="4.460878"><ele></ele><time>2014-6-14T20:8:14Z</time></trkpt>
<trkpt lat="45.377692" lon="4.460908"><ele></ele><time>2014-6-14T20:8:17Z</time></trkpt>
<trkpt lat="45.377682" lon="4.460935"><ele></ele><time>2014-6-14T20:8:20Z</time></trkpt>
<trkpt lat="45.377673" lon="4.460959"><ele></ele><time>2014-6-14T20:8:23Z</time></trkpt>
<trkpt lat="45.377664" lon="4.460987"><ele></ele><time>2014-6-14T20:8:26Z</time></trkpt>
<trkpt lat="45.377656" lon="4.461005"><ele></ele><time>2014-6-14T20:8:29Z</time></trkpt>
<trkpt lat="45.377646" lon="4.461024"><ele></ele><time>2014-6-14T20:8:32Z</time></trkpt>
<trkpt lat="45.377638" lon="4.461043"><ele></ele><time>2014-6-14T20:8:35Z</time></trkpt>
<trkpt lat="45.377629" lon="4.461066"><ele></ele><time>2014-6-14T20:8:38Z</time></trkpt>
<trkpt lat="45.377621" lon="4.461091"><ele></ele><time>2014-6-14T20:8:41Z</time></trkpt>
<trkpt lat="45.377608" lon="4.461115"><ele></ele><time>2014-6-14T20:8:44Z</time></trkpt>
<trkpt lat="45.377594" lon="4.461143"><ele></ele><time>2014-6-14T20:8:47Z</time></trkpt>
<trkpt lat="45.377583" lon="4.46117"><ele></ele><time>2014-6-14T20:8:50Z</time></trkpt>
<trkpt lat="45.377576" lon="4.461203"><ele></ele><time>2014-6-14T20:8:53Z</time></trkpt>
<trkpt lat="45.377567" lon="4.461225"><ele></ele><time>2014-6-14T20:8:56Z</time></trkpt>
<trkpt lat="45.377556" lon="4.46125"><ele></ele><time>2014-6-14T20:8:59Z</time></trkpt>
<trkpt lat="45.377547" lon="4.461276"><ele></ele><time>2014-6-14T20:9:2Z</time></trkpt>
<trkpt lat="45.37754" lon="4.461298"><ele></ele><time>2014-6-14T20:9:5Z</time></trkpt>
<trkpt lat="45.377531" lon="4.461322"><ele></ele><time>2014-6-14T20:9:8Z</time></trkpt>
<trkpt lat="45.377523" lon="4.461347"><ele></ele><time>2014-6-14T20:9:11Z</time></trkpt>
<trkpt lat="45.377518" lon="4.461375"><ele></ele><time>2014-6-14T20:9:14Z</time></trkpt>
<trkpt lat="45.377518" lon="4.461404"><ele></ele><time>2014-6-14T20:9:17Z</time></trkpt>
<trkpt lat="45.377517" lon="4.461434"><ele></ele><time>2014-6-14T20:9:20Z</time></trkpt>
<trkpt lat="45.377511" lon="4.461454"><ele></ele><time>2014-6-14T20:9:23Z</time></trkpt>
<trkpt lat="45.377507" lon="4.461486"><ele></ele><time>2014-6-14T20:9:26Z</time></trkpt>
<trkpt lat="45.377499" lon="4.46151"><ele></ele><time>2014-6-14T20:9:29Z</time></trkpt>
<trkpt lat="45.377502" lon="4.461533"><ele></ele><time>2014-6-14T20:9:32Z</time></trkpt>
<trkpt lat="45.377505" lon="4.461545"><ele></ele><time>2014-6-14T20:9:35Z</time></trkpt>
<trkpt lat="45.377506" lon="4.461557"><ele></ele><time>2014-6-14T20:9:38Z</time></trkpt>
<trkpt lat="45.377513" lon="4.461571"><ele></ele><time>2014-6-14T20:9:41Z</time></trkpt>
<trkpt lat="45.377527" lon="4.461593"><ele></ele><time>2014-6-14T20:9:44Z</time></trkpt>
<trkpt lat="45.377552" lon="4.461591"><ele></ele><time>2014-6-14T20:9:47Z</time></trkpt>
<trkpt lat="45.377578" lon="4.461585"><ele></ele><time>2014-6-14T20:9:50Z</time></trkpt>
<trkpt lat="45.377602" lon="4.461598"><ele></ele><time>2014-6-14T20:9:53Z</time></trkpt>
<trkpt lat="45.377628" lon="4.461602"><ele></ele><time>2014-6-14T20:9:56Z</time></trkpt>
<trkpt lat="45.377645" lon="4.461598"><ele></ele><time>2014-6-14T20:9:59Z</time></trkpt>
<trkpt lat="45.377665" lon="4.4616"><ele></ele><time>2014-6-14T20:10:2Z</time></trkpt>
<trkpt lat="45.377681" lon="4.461613"><ele></ele><time>2014-6-14T20:10:5Z</time></trkpt>
<trkpt lat="45.377703" lon="4.461618"><ele></ele><time>2014-6-14T20:10:8Z</time></trkpt>
<trkpt lat="45.377715" lon="4.461602"><ele></ele><time>2014-6-14T20:10:11Z</time></trkpt>
<trkpt lat="45.377739" lon="4.461599"><ele></ele><time>2014-6-14T20:10:14Z</time></trkpt>
<trkpt lat="45.377766" lon="4.461594"><ele></ele><time>2014-6-14T20:10:17Z</time></trkpt>
<trkpt lat="45.377792" lon="4.46159"><ele></ele><time>2014-6-14T20:10:20Z</time></trkpt>
<trkpt lat="45.377816" lon="4.461589"><ele></ele><time>2014-6-14T20:10:23Z</time></trkpt>
<trkpt lat="45.377836" lon="4.461591"><ele></ele><time>2014-6-14T20:10:26Z</time></trkpt>
<trkpt lat="45.37786" lon="4.461584"><ele></ele><time>2014-6-14T20:10:29Z</time></trkpt>
<trkpt lat="45.377875" lon="4.461614"><ele></ele><time>2014-6-14T20:10:32Z</time></trkpt>
<trkpt lat="45.377891" lon="4.461637"><ele></ele><time>2014-6-14T20:10:35Z</time></trkpt>
<trkpt lat="45.377909" lon="4.461643"><ele></ele><time>2014-6-14T20:10:38Z</time></trkpt>
<trkpt lat="45.377934" lon="4.461626"><ele></ele><time>2014-6-14T20:10:41Z</time></trkpt>
<trkpt lat="45.377959" lon="4.461621"><ele></ele><time>2014-6-14T20:10:44Z</time></trkpt>
<trkpt lat="45.377984" lon="4.46161"><ele></ele><time>2014-6-14T20:10:47Z</time></trkpt>
<trkpt lat="45.377998" lon="4.461609"><ele></ele><time>2014-6-14T20:10:50Z</time></trkpt>
<trkpt lat="45.378021" lon="4.461602"><ele></ele><time>2014-6-14T20:10:53Z</time></trkpt>
<trkpt lat="45.378042" lon="4.461606"><ele></ele><time>2014-6-14T20:10:56Z</time></trkpt>
<trkpt lat="45.378063" lon="4.46161"><ele></ele><time>2014-6-14T20:10:59Z</time></trkpt>
<trkpt lat="45.378084" lon="4.461612"><ele></ele><time>2014-6-14T20:11:2Z</time></trkpt>
<trkpt lat="45.378103" lon="4.461645"><ele></ele><time>2014-6-14T20:11:5Z</time></trkpt>
<trkpt lat="45.378126" lon="4.461665"><ele></ele><time>2014-6-14T20:11:8Z</time></trkpt>
<trkpt lat="45.37815" lon="4.461685"><ele></ele><time>2014-6-14T20:11:11Z</time></trkpt>
<trkpt lat="45.378173" lon="4.461689"><ele></ele><time>2014-6-14T20:11:14Z</time></trkpt>
<trkpt lat="45.378195" lon="4.46169"><ele></ele><time>2014-6-14T20:11:17Z</time></trkpt>
<trkpt lat="45.378218" lon="4.461693"><ele></ele><time>2014-6-14T20:11:20Z</time></trkpt>
<trkpt lat="45.378244" lon="4.461693"><ele></ele><time>2014-6-14T20:11:23Z</time></trkpt>
<trkpt lat="45.378269" lon="4.461693"><ele></ele><time>2014-6-14T20:11:26Z</time></trkpt>
<trkpt lat="45.378294" lon="4.46169"><ele></ele><time>2014-6-14T20:11:29Z</time></trkpt>
<trkpt lat="45.378318" lon="4.461686"><ele></ele><time>2014-6-14T20:11:32Z</time></trkpt>
<trkpt lat="45.378343" lon="4.46168"><ele></ele><time>2014-6-14T20:11:35Z</time></trkpt>
<trkpt lat="45.378368" lon="4.461676"><ele></ele><time>2014-6-14T20:11:38Z</time></trkpt>
<trkpt lat="45.378395" lon="4.461711"><ele></ele><time>2014-6-14T20:11:41Z</time></trkpt>
<trkpt lat="45.37842" lon="4.461715"><ele></ele><time>2014-6-14T20:11:44Z</time></trkpt>
<trkpt lat="45.378444" lon="4.461713"><ele></ele><time>2014-6-14T20:11:47Z</time></trkpt>
<trkpt lat="45.378467" lon="4.461712"><ele></ele><time>2014-6-14T20:11:50Z</time></trkpt>
<trkpt lat="45.37849" lon="4.461712"><ele></ele><time>2014-6-14T20:11:53Z</time></trkpt>
<trkpt lat="45.378501" lon="4.461694"><ele></ele><time>2014-6-14T20:11:56Z</time></trkpt>
<trkpt lat="45.378522" lon="4.461686"><ele></ele><time>2014-6-14T20:11:59Z</time></trkpt>
<trkpt lat="45.378546" lon="4.461682"><ele></ele><time>2014-6-14T20:12:2Z</time></trkpt>
<trkpt lat="45.378569" lon="4.461681"><ele></ele><time>2014-6-14T20:12:5Z</time></trkpt>
<trkpt lat="45.378592" lon="4.461681"><ele></ele><time>2014-6-14T20:12:8Z</time></trkpt>
<trkpt lat="45.378616" lon="4.461678"><ele></ele><time>2014-6-14T20:12:11Z</time></trkpt>
<trkpt lat="45.378639" lon="4.461672"><ele></ele><time>2014-6-14T20:12:14Z</time></trkpt>
<trkpt lat="45.378641" lon="4.461686"><ele></ele><time>2014-6-14T20:12:17Z</time></trkpt>
<trkpt lat="45.378661" lon="4.461688"><ele></ele><time>2014-6-14T20:12:20Z</time></trkpt>
<trkpt lat="45.378686" lon="4.461686"><ele></ele><time>2014-6-14T20:12:23Z</time></trkpt>
<trkpt lat="45.37871" lon="4.461683"><ele></ele><time>2014-6-14T20:12:26Z</time></trkpt>
<trkpt lat="45.37873" lon="4.461691"><ele></ele><time>2014-6-14T20:12:29Z</time></trkpt>
<trkpt lat="45.378751" lon="4.461699"><ele></ele><time>2014-6-14T20:12:32Z</time></trkpt>
<trkpt lat="45.378774" lon="4.461696"><ele></ele><time>2014-6-14T20:12:35Z</time></trkpt>
<trkpt lat="45.378797" lon="4.461687"><ele></ele><time>2014-6-14T20:12:38Z</time></trkpt>
<trkpt lat="45.378817" lon="4.461688"><ele></ele><time>2014-6-14T20:12:41Z</time></trkpt>
<trkpt lat="45.378837" lon="4.461689"><ele></ele><time>2014-6-14T20:12:44Z</time></trkpt>
<trkpt lat="45.37886" lon="4.461676"><ele></ele><time>2014-6-14T20:12:47Z</time></trkpt>
<trkpt lat="45.378885" lon="4.461661"><ele></ele><time>2014-6-14T20:12:50Z</time></trkpt>
<trkpt lat="45.378909" lon="4.461649"><ele></ele><time>2014-6-14T20:12:53Z</time></trkpt>
<trkpt lat="45.378933" lon="4.461646"><ele></ele><time>2014-6-14T20:12:56Z</time></trkpt>
<trkpt lat="45.378957" lon="4.461642"><ele></ele><time>2014-6-14T20:12:59Z</time></trkpt>
<trkpt lat="45.378981" lon="4.461635"><ele></ele><time>2014-6-14T20:13:2Z</time></trkpt>
<trkpt lat="45.379009" lon="4.461623"><ele></ele><time>2014-6-14T20:13:5Z</time></trkpt>
<trkpt lat="45.379036" lon="4.461612"><ele></ele><time>2014-6-14T20:13:8Z</time></trkpt>
<trkpt lat="45.379063" lon="4.461599"><ele></ele><time>2014-6-14T20:13:11Z</time></trkpt>
<trkpt lat="45.379087" lon="4.461589"><ele></ele><time>2014-6-14T20:13:14Z</time></trkpt>
<trkpt lat="45.379115" lon="4.461588"><ele></ele><time>2014-6-14T20:13:17Z</time></trkpt>
<trkpt lat="45.379144" lon="4.461599"><ele></ele><time>2014-6-14T20:13:20Z</time></trkpt>
<trkpt lat="45.379172" lon="4.461607"><ele></ele><time>2014-6-14T20:13:23Z</time></trkpt>
<trkpt lat="45.379201" lon="4.461609"><ele></ele><time>2014-6-14T20:13:26Z</time></trkpt>
<trkpt lat="45.379227" lon="4.461603"><ele></ele><time>2014-6-14T20:13:29Z</time></trkpt>
<trkpt lat="45.379242" lon="4.461608"><ele></ele><time>2014-6-14T20:13:32Z</time></trkpt>
<trkpt lat="45.379267" lon="4.461612"><ele></ele><time>2014-6-14T20:13:35Z</time></trkpt>
<trkpt lat="45.37929" lon="4.461602"><ele></ele><time>2014-6-14T20:13:38Z</time></trkpt>
<trkpt lat="45.379322" lon="4.461602"><ele></ele><time>2014-6-14T20:13:41Z</time></trkpt>
<trkpt lat="45.37935" lon="4.461605"><ele></ele><time>2014-6-14T20:13:44Z</time></trkpt>
<trkpt lat="45.37938" lon="4.461602"><ele></ele><time>2014-6-14T20:13:47Z</time></trkpt>
<trkpt lat="45.37941" lon="4.461586"><ele></ele><time>2014-6-14T20:13:50Z</time></trkpt>
<trkpt lat="45.37944" lon="4.461575"><ele></ele><time>2014-6-14T20:13:53Z</time></trkpt>
<trkpt lat="45.379471" lon="4.461567"><ele></ele><time>2014-6-14T20:13:56Z</time></trkpt>
<trkpt lat="45.379502" lon="4.461562"><ele></ele><time>2014-6-14T20:13:59Z</time></trkpt>
<trkpt lat="45.379534" lon="4.461557"><ele></ele><time>2014-6-14T20:14:2Z</time></trkpt>
<trkpt lat="45.379565" lon="4.461547"><ele></ele><time>2014-6-14T20:14:5Z</time></trkpt>
<trkpt lat="45.379595" lon="4.461541"><ele></ele><time>2014-6-14T20:14:8Z</time></trkpt>
<trkpt lat="45.379623" lon="4.461534"><ele></ele><time>2014-6-14T20:14:11Z</time></trkpt>
<trkpt lat="45.379654" lon="4.46153"><ele></ele><time>2014-6-14T20:14:14Z</time></trkpt>
<trkpt lat="45.379686" lon="4.461518"><ele></ele><time>2014-6-14T20:14:17Z</time></trkpt>
<trkpt lat="45.379718" lon="4.461509"><ele></ele><time>2014-6-14T20:14:20Z</time></trkpt>
<trkpt lat="45.379753" lon="4.46151"><ele></ele><time>2014-6-14T20:14:23Z</time></trkpt>
<trkpt lat="45.379778" lon="4.461491"><ele></ele><time>2014-6-14T20:14:26Z</time></trkpt>
<trkpt lat="45.379809" lon="4.461479"><ele></ele><time>2014-6-14T20:14:29Z</time></trkpt>
<trkpt lat="45.379839" lon="4.461487"><ele></ele><time>2014-6-14T20:14:32Z</time></trkpt>
<trkpt lat="45.379868" lon="4.461487"><ele></ele><time>2014-6-14T20:14:35Z</time></trkpt>
<trkpt lat="45.379898" lon="4.461485"><ele></ele><time>2014-6-14T20:14:38Z</time></trkpt>
<trkpt lat="45.379922" lon="4.461453"><ele></ele><time>2014-6-14T20:14:41Z</time></trkpt>
<trkpt lat="45.379955" lon="4.461441"><ele></ele><time>2014-6-14T20:14:44Z</time></trkpt>
<trkpt lat="45.379989" lon="4.461425"><ele></ele><time>2014-6-14T20:14:47Z</time></trkpt>
<trkpt lat="45.380023" lon="4.461408"><ele></ele><time>2014-6-14T20:14:50Z</time></trkpt>
<trkpt lat="45.380055" lon="4.461393"><ele></ele><time>2014-6-14T20:14:53Z</time></trkpt>
<trkpt lat="45.380085" lon="4.461384"><ele></ele><time>2014-6-14T20:14:56Z</time></trkpt>
<trkpt lat="45.380117" lon="4.461368"><ele></ele><time>2014-6-14T20:14:59Z</time></trkpt>
<trkpt lat="45.380147" lon="4.461363"><ele></ele><time>2014-6-14T20:15:2Z</time></trkpt>
<trkpt lat="45.380177" lon="4.461356"><ele></ele><time>2014-6-14T20:15:5Z</time></trkpt>
<trkpt lat="45.380207" lon="4.461351"><ele></ele><time>2014-6-14T20:15:8Z</time></trkpt>
<trkpt lat="45.380238" lon="4.461358"><ele></ele><time>2014-6-14T20:15:11Z</time></trkpt>
<trkpt lat="45.380271" lon="4.461341"><ele></ele><time>2014-6-14T20:15:14Z</time></trkpt>
<trkpt lat="45.380302" lon="4.461346"><ele></ele><time>2014-6-14T20:15:17Z</time></trkpt>
<trkpt lat="45.380333" lon="4.461365"><ele></ele><time>2014-6-14T20:15:20Z</time></trkpt>
<trkpt lat="45.380366" lon="4.461386"><ele></ele><time>2014-6-14T20:15:23Z</time></trkpt>
<trkpt lat="45.380383" lon="4.461378"><ele></ele><time>2014-6-14T20:15:26Z</time></trkpt>
<trkpt lat="45.380413" lon="4.461374"><ele></ele><time>2014-6-14T20:15:29Z</time></trkpt>
<trkpt lat="45.380443" lon="4.461365"><ele></ele><time>2014-6-14T20:15:32Z</time></trkpt>
<trkpt lat="45.380473" lon="4.461355"><ele></ele><time>2014-6-14T20:15:35Z</time></trkpt>
<trkpt lat="45.380504" lon="4.461347"><ele></ele><time>2014-6-14T20:15:38Z</time></trkpt>
<trkpt lat="45.380534" lon="4.46134"><ele></ele><time>2014-6-14T20:15:41Z</time></trkpt>
<trkpt lat="45.380563" lon="4.46133"><ele></ele><time>2014-6-14T20:15:44Z</time></trkpt>
<trkpt lat="45.380593" lon="4.461322"><ele></ele><time>2014-6-14T20:15:47Z</time></trkpt>
<trkpt lat="45.380624" lon="4.461315"><ele></ele><time>2014-6-14T20:15:50Z</time></trkpt>
<trkpt lat="45.380647" lon="4.461313"><ele></ele><time>2014-6-14T20:15:53Z</time></trkpt>
<trkpt lat="45.380677" lon="4.461337"><ele></ele><time>2014-6-14T20:15:56Z</time></trkpt>
<trkpt lat="45.380704" lon="4.461353"><ele></ele><time>2014-6-14T20:15:59Z</time></trkpt>
<trkpt lat="45.380724" lon="4.46135"><ele></ele><time>2014-6-14T20:16:2Z</time></trkpt>
<trkpt lat="45.380736" lon="4.461365"><ele></ele><time>2014-6-14T20:16:5Z</time></trkpt>
<trkpt lat="45.380748" lon="4.461386"><ele></ele><time>2014-6-14T20:16:8Z</time></trkpt>
<trkpt lat="45.380762" lon="4.461409"><ele></ele><time>2014-6-14T20:16:11Z</time></trkpt>
<trkpt lat="45.38079" lon="4.46143"><ele></ele><time>2014-6-14T20:16:14Z</time></trkpt>
<trkpt lat="45.380821" lon="4.461442"><ele></ele><time>2014-6-14T20:16:17Z</time></trkpt>
<trkpt lat="45.380841" lon="4.46145"><ele></ele><time>2014-6-14T20:16:20Z</time></trkpt>
<trkpt lat="45.380858" lon="4.461435"><ele></ele><time>2014-6-14T20:16:23Z</time></trkpt>
<trkpt lat="45.38088" lon="4.46144"><ele></ele><time>2014-6-14T20:16:26Z</time></trkpt>
<trkpt lat="45.380901" lon="4.461452"><ele></ele><time>2014-6-14T20:16:29Z</time></trkpt>
<trkpt lat="45.380926" lon="4.461457"><ele></ele><time>2014-6-14T20:16:32Z</time></trkpt>
<trkpt lat="45.380952" lon="4.461452"><ele></ele><time>2014-6-14T20:16:35Z</time></trkpt>
<trkpt lat="45.380971" lon="4.461448"><ele></ele><time>2014-6-14T20:16:38Z</time></trkpt>
<trkpt lat="45.380992" lon="4.461449"><ele></ele><time>2014-6-14T20:16:41Z</time></trkpt>
<trkpt lat="45.381012" lon="4.461439"><ele></ele><time>2014-6-14T20:16:44Z</time></trkpt>
<trkpt lat="45.381038" lon="4.461431"><ele></ele><time>2014-6-14T20:16:47Z</time></trkpt>
<trkpt lat="45.381064" lon="4.461426"><ele></ele><time>2014-6-14T20:16:50Z</time></trkpt>
<trkpt lat="45.38109" lon="4.461423"><ele></ele><time>2014-6-14T20:16:53Z</time></trkpt>
<trkpt lat="45.381116" lon="4.461421"><ele></ele><time>2014-6-14T20:16:56Z</time></trkpt>
<trkpt lat="45.381142" lon="4.461431"><ele></ele><time>2014-6-14T20:16:59Z</time></trkpt>
<trkpt lat="45.381167" lon="4.461426"><ele></ele><time>2014-6-14T20:17:2Z</time></trkpt>
<trkpt lat="45.381196" lon="4.461416"><ele></ele><time>2014-6-14T20:17:5Z</time></trkpt>
<trkpt lat="45.381227" lon="4.461399"><ele></ele><time>2014-6-14T20:17:8Z</time></trkpt>
<trkpt lat="45.381257" lon="4.461389"><ele></ele><time>2014-6-14T20:17:11Z</time></trkpt>
<trkpt lat="45.381289" lon="4.461367"><ele></ele><time>2014-6-14T20:17:14Z</time></trkpt>
<trkpt lat="45.381322" lon="4.461364"><ele></ele><time>2014-6-14T20:17:17Z</time></trkpt>
<trkpt lat="45.381353" lon="4.461352"><ele></ele><time>2014-6-14T20:17:20Z</time></trkpt>
<trkpt lat="45.381384" lon="4.461337"><ele></ele><time>2014-6-14T20:17:23Z</time></trkpt>
<trkpt lat="45.381417" lon="4.461331"><ele></ele><time>2014-6-14T20:17:26Z</time></trkpt>
<trkpt lat="45.381451" lon="4.461335"><ele></ele><time>2014-6-14T20:17:29Z</time></trkpt>
<trkpt lat="45.381486" lon="4.461341"><ele></ele><time>2014-6-14T20:17:32Z</time></trkpt>
<trkpt lat="45.381516" lon="4.461335"><ele></ele><time>2014-6-14T20:17:35Z</time></trkpt>
<trkpt lat="45.381544" lon="4.461325"><ele></ele><time>2014-6-14T20:17:38Z</time></trkpt>
<trkpt lat="45.381573" lon="4.461315"><ele></ele><time>2014-6-14T20:17:41Z</time></trkpt>
<trkpt lat="45.381607" lon="4.461319"><ele></ele><time>2014-6-14T20:17:44Z</time></trkpt>
<trkpt lat="45.381639" lon="4.461317"><ele></ele><time>2014-6-14T20:17:47Z</time></trkpt>
<trkpt lat="45.381668" lon="4.461309"><ele></ele><time>2014-6-14T20:17:50Z</time></trkpt>
<trkpt lat="45.381702" lon="4.461324"><ele></ele><time>2014-6-14T20:17:53Z</time></trkpt>
<trkpt lat="45.381728" lon="4.461334"><ele></ele><time>2014-6-14T20:17:56Z</time></trkpt>
<trkpt lat="45.381755" lon="4.461324"><ele></ele><time>2014-6-14T20:17:59Z</time></trkpt>
<trkpt lat="45.381784" lon="4.46132"><ele></ele><time>2014-6-14T20:18:2Z</time></trkpt>
<trkpt lat="45.381812" lon="4.461307"><ele></ele><time>2014-6-14T20:18:5Z</time></trkpt>
<trkpt lat="45.381839" lon="4.461298"><ele></ele><time>2014-6-14T20:18:8Z</time></trkpt>
<trkpt lat="45.381869" lon="4.461293"><ele></ele><time>2014-6-14T20:18:11Z</time></trkpt>
<trkpt lat="45.381899" lon="4.461309"><ele></ele><time>2014-6-14T20:18:14Z</time></trkpt>
<trkpt lat="45.381927" lon="4.461304"><ele></ele><time>2014-6-14T20:18:17Z</time></trkpt>
<trkpt lat="45.381953" lon="4.461297"><ele></ele><time>2014-6-14T20:18:20Z</time></trkpt>
<trkpt lat="45.381979" lon="4.46129"><ele></ele><time>2014-6-14T20:18:23Z</time></trkpt>
<trkpt lat="45.382007" lon="4.461275"><ele></ele><time>2014-6-14T20:18:26Z</time></trkpt>
<trkpt lat="45.38204" lon="4.461291"><ele></ele><time>2014-6-14T20:18:29Z</time></trkpt>
<trkpt lat="45.382072" lon="4.461305"><ele></ele><time>2014-6-14T20:18:32Z</time></trkpt>
<trkpt lat="45.382105" lon="4.46131"><ele></ele><time>2014-6-14T20:18:35Z</time></trkpt>
<trkpt lat="45.382134" lon="4.461307"><ele></ele><time>2014-6-14T20:18:38Z</time></trkpt>
<trkpt lat="45.382162" lon="4.461304"><ele></ele><time>2014-6-14T20:18:41Z</time></trkpt>
<trkpt lat="45.382192" lon="4.461292"><ele></ele><time>2014-6-14T20:18:44Z</time></trkpt>
<trkpt lat="45.382223" lon="4.461286"><ele></ele><time>2014-6-14T20:18:47Z</time></trkpt>
<trkpt lat="45.382254" lon="4.461267"><ele></ele><time>2014-6-14T20:18:50Z</time></trkpt>
<trkpt lat="45.382285" lon="4.461252"><ele></ele><time>2014-6-14T20:18:53Z</time></trkpt>
<trkpt lat="45.382316" lon="4.461231"><ele></ele><time>2014-6-14T20:18:56Z</time></trkpt>
<trkpt lat="45.382345" lon="4.461217"><ele></ele><time>2014-6-14T20:18:59Z</time></trkpt>
<trkpt lat="45.382375" lon="4.461219"><ele></ele><time>2014-6-14T20:19:2Z</time></trkpt>
<trkpt lat="45.382406" lon="4.461231"><ele></ele><time>2014-6-14T20:19:5Z</time></trkpt>
<trkpt lat="45.382438" lon="4.461239"><ele></ele><time>2014-6-14T20:19:8Z</time></trkpt>
<trkpt lat="45.382469" lon="4.461239"><ele></ele><time>2014-6-14T20:19:11Z</time></trkpt>
<trkpt lat="45.382499" lon="4.461229"><ele></ele><time>2014-6-14T20:19:14Z</time></trkpt>
<trkpt lat="45.38253" lon="4.461226"><ele></ele><time>2014-6-14T20:19:17Z</time></trkpt>
<trkpt lat="45.382562" lon="4.461237"><ele></ele><time>2014-6-14T20:19:20Z</time></trkpt>
<trkpt lat="45.382592" lon="4.461234"><ele></ele><time>2014-6-14T20:19:23Z</time></trkpt>
<trkpt lat="45.382624" lon="4.461232"><ele></ele><time>2014-6-14T20:19:26Z</time></trkpt>
<trkpt lat="45.382655" lon="4.461222"><ele></ele><time>2014-6-14T20:19:29Z</time></trkpt>
<trkpt lat="45.382687" lon="4.461213"><ele></ele><time>2014-6-14T20:19:32Z</time></trkpt>
<trkpt lat="45.382718" lon="4.461211"><ele></ele><time>2014-6-14T20:19:35Z</time></trkpt>
<trkpt lat="45.382725" lon="4.461191"><ele></ele><time>2014-6-14T20:19:38Z</time></trkpt>
<trkpt lat="45.382754" lon="4.46119"><ele></ele><time>2014-6-14T20:19:41Z</time></trkpt>
<trkpt lat="45.382783" lon="4.461178"><ele></ele><time>2014-6-14T20:19:44Z</time></trkpt>
<trkpt lat="45.382817" lon="4.461182"><ele></ele><time>2014-6-14T20:19:47Z</time></trkpt>
<trkpt lat="45.382849" lon="4.461188"><ele></ele><time>2014-6-14T20:19:50Z</time></trkpt>
<trkpt lat="45.382881" lon="4.461182"><ele></ele><time>2014-6-14T20:19:53Z</time></trkpt>
<trkpt lat="45.382912" lon="4.46118"><ele></ele><time>2014-6-14T20:19:56Z</time></trkpt>
<trkpt lat="45.382945" lon="4.461176"><ele></ele><time>2014-6-14T20:19:59Z</time></trkpt>
<trkpt lat="45.382976" lon="4.461167"><ele></ele><time>2014-6-14T20:20:2Z</time></trkpt>
<trkpt lat="45.383008" lon="4.46117"><ele></ele><time>2014-6-14T20:20:5Z</time></trkpt>
<trkpt lat="45.383036" lon="4.461165"><ele></ele><time>2014-6-14T20:20:8Z</time></trkpt>
<trkpt lat="45.383064" lon="4.461153"><ele></ele><time>2014-6-14T20:20:11Z</time></trkpt>
<trkpt lat="45.383089" lon="4.461143"><ele></ele><time>2014-6-14T20:20:14Z</time></trkpt>
<trkpt lat="45.383118" lon="4.461122"><ele></ele><time>2014-6-14T20:20:17Z</time></trkpt>
<trkpt lat="45.383145" lon="4.461107"><ele></ele><time>2014-6-14T20:20:20Z</time></trkpt>
<trkpt lat="45.383175" lon="4.461093"><ele></ele><time>2014-6-14T20:20:23Z</time></trkpt>
<trkpt lat="45.383205" lon="4.46108"><ele></ele><time>2014-6-14T20:20:26Z</time></trkpt>
<trkpt lat="45.383233" lon="4.461069"><ele></ele><time>2014-6-14T20:20:29Z</time></trkpt>
<trkpt lat="45.38326" lon="4.461055"><ele></ele><time>2014-6-14T20:20:32Z</time></trkpt>
<trkpt lat="45.383287" lon="4.461039"><ele></ele><time>2014-6-14T20:20:35Z</time></trkpt>
<trkpt lat="45.383313" lon="4.461027"><ele></ele><time>2014-6-14T20:20:38Z</time></trkpt>
<trkpt lat="45.383341" lon="4.461012"><ele></ele><time>2014-6-14T20:20:41Z</time></trkpt>
<trkpt lat="45.383369" lon="4.461004"><ele></ele><time>2014-6-14T20:20:44Z</time></trkpt>
<trkpt lat="45.383396" lon="4.460994"><ele></ele><time>2014-6-14T20:20:47Z</time></trkpt>
<trkpt lat="45.383423" lon="4.460982"><ele></ele><time>2014-6-14T20:20:50Z</time></trkpt>
<trkpt lat="45.383439" lon="4.460979"><ele></ele><time>2014-6-14T20:20:53Z</time></trkpt>
<trkpt lat="45.383468" lon="4.460968"><ele></ele><time>2014-6-14T20:20:56Z</time></trkpt>
<trkpt lat="45.383498" lon="4.460959"><ele></ele><time>2014-6-14T20:20:59Z</time></trkpt>
<trkpt lat="45.383527" lon="4.460949"><ele></ele><time>2014-6-14T20:21:2Z</time></trkpt>
<trkpt lat="45.383556" lon="4.460938"><ele></ele><time>2014-6-14T20:21:5Z</time></trkpt>
<trkpt lat="45.383587" lon="4.46094"><ele></ele><time>2014-6-14T20:21:8Z</time></trkpt>
<trkpt lat="45.383616" lon="4.460941"><ele></ele><time>2014-6-14T20:21:11Z</time></trkpt>
<trkpt lat="45.383643" lon="4.460937"><ele></ele><time>2014-6-14T20:21:14Z</time></trkpt>
<trkpt lat="45.383672" lon="4.460929"><ele></ele><time>2014-6-14T20:21:17Z</time></trkpt>
<trkpt lat="45.3837" lon="4.460917"><ele></ele><time>2014-6-14T20:21:20Z</time></trkpt>
<trkpt lat="45.383719" lon="4.460904"><ele></ele><time>2014-6-14T20:21:23Z</time></trkpt>
<trkpt lat="45.38373" lon="4.460898"><ele></ele><time>2014-6-14T20:21:26Z</time></trkpt>
<trkpt lat="45.383747" lon="4.46089"><ele></ele><time>2014-6-14T20:21:29Z</time></trkpt>
<trkpt lat="45.383773" lon="4.460877"><ele></ele><time>2014-6-14T20:21:32Z</time></trkpt>
<trkpt lat="45.383802" lon="4.460866"><ele></ele><time>2014-6-14T20:21:35Z</time></trkpt>
<trkpt lat="45.383823" lon="4.460852"><ele></ele><time>2014-6-14T20:21:38Z</time></trkpt>
<trkpt lat="45.38385" lon="4.460836"><ele></ele><time>2014-6-14T20:21:41Z</time></trkpt>
<trkpt lat="45.383877" lon="4.460824"><ele></ele><time>2014-6-14T20:21:44Z</time></trkpt>
<trkpt lat="45.383906" lon="4.460816"><ele></ele><time>2014-6-14T20:21:47Z</time></trkpt>
<trkpt lat="45.383935" lon="4.460808"><ele></ele><time>2014-6-14T20:21:50Z</time></trkpt>
<trkpt lat="45.383964" lon="4.460795"><ele></ele><time>2014-6-14T20:21:53Z</time></trkpt>
<trkpt lat="45.383994" lon="4.460779"><ele></ele><time>2014-6-14T20:21:56Z</time></trkpt>
<trkpt lat="45.384023" lon="4.460765"><ele></ele><time>2014-6-14T20:21:59Z</time></trkpt>
<trkpt lat="45.384053" lon="4.460749"><ele></ele><time>2014-6-14T20:22:2Z</time></trkpt>
<trkpt lat="45.384082" lon="4.460733"><ele></ele><time>2014-6-14T20:22:5Z</time></trkpt>
<trkpt lat="45.384109" lon="4.460718"><ele></ele><time>2014-6-14T20:22:8Z</time></trkpt>
<trkpt lat="45.384134" lon="4.4607"><ele></ele><time>2014-6-14T20:22:11Z</time></trkpt>
<trkpt lat="45.384161" lon="4.460682"><ele></ele><time>2014-6-14T20:22:14Z</time></trkpt>
<trkpt lat="45.38419" lon="4.460674"><ele></ele><time>2014-6-14T20:22:17Z</time></trkpt>
<trkpt lat="45.384219" lon="4.460668"><ele></ele><time>2014-6-14T20:22:20Z</time></trkpt>
<trkpt lat="45.384248" lon="4.460666"><ele></ele><time>2014-6-14T20:22:23Z</time></trkpt>
<trkpt lat="45.384279" lon="4.460667"><ele></ele><time>2014-6-14T20:22:26Z</time></trkpt>
<trkpt lat="45.384309" lon="4.460664"><ele></ele><time>2014-6-14T20:22:29Z</time></trkpt>
<trkpt lat="45.384337" lon="4.460659"><ele></ele><time>2014-6-14T20:22:32Z</time></trkpt>
<trkpt lat="45.384354" lon="4.460642"><ele></ele><time>2014-6-14T20:22:35Z</time></trkpt>
<trkpt lat="45.384383" lon="4.460633"><ele></ele><time>2014-6-14T20:22:38Z</time></trkpt>
<trkpt lat="45.384397" lon="4.460615"><ele></ele><time>2014-6-14T20:22:41Z</time></trkpt>
<trkpt lat="45.384425" lon="4.460615"><ele></ele><time>2014-6-14T20:22:44Z</time></trkpt>
<trkpt lat="45.384453" lon="4.460612"><ele></ele><time>2014-6-14T20:22:47Z</time></trkpt>
<trkpt lat="45.38447" lon="4.460597"><ele></ele><time>2014-6-14T20:22:50Z</time></trkpt>
<trkpt lat="45.384494" lon="4.460595"><ele></ele><time>2014-6-14T20:22:53Z</time></trkpt>
<trkpt lat="45.384516" lon="4.460595"><ele></ele><time>2014-6-14T20:22:56Z</time></trkpt>
<trkpt lat="45.384537" lon="4.460596"><ele></ele><time>2014-6-14T20:22:59Z</time></trkpt>
<trkpt lat="45.384556" lon="4.460603"><ele></ele><time>2014-6-14T20:23:2Z</time></trkpt>
<trkpt lat="45.384569" lon="4.460609"><ele></ele><time>2014-6-14T20:23:5Z</time></trkpt>
<trkpt lat="45.384572" lon="4.4606"><ele></ele><time>2014-6-14T20:23:8Z</time></trkpt>
<trkpt lat="45.384579" lon="4.460606"><ele></ele><time>2014-6-14T20:23:11Z</time></trkpt>
<trkpt lat="45.384584" lon="4.460611"><ele></ele><time>2014-6-14T20:23:14Z</time></trkpt>
<trkpt lat="45.384584" lon="4.460611"><ele></ele><time>2014-6-14T20:23:17Z</time></trkpt>
<trkpt lat="45.384584" lon="4.460611"><ele></ele><time>2014-6-14T20:23:20Z</time></trkpt>
<trkpt lat="45.384584" lon="4.460611"><ele></ele><time>2014-6-14T20:23:23Z</time></trkpt>
<trkpt lat="45.384584" lon="4.460611"><ele></ele><time>2014-6-14T20:23:26Z</time></trkpt>
<trkpt lat="45.384584" lon="4.460611"><ele></ele><time>2014-6-14T20:23:29Z</time></trkpt>
<trkpt lat="45.384584" lon="4.460611"><ele></ele><time>2014-6-14T20:23:32Z</time></trkpt>
<trkpt lat="45.384587" lon="4.460623"><ele></ele><time>2014-6-14T20:23:35Z</time></trkpt>
<trkpt lat="45.384591" lon="4.460629"><ele></ele><time>2014-6-14T20:23:38Z</time></trkpt>
<trkpt lat="45.384596" lon="4.460631"><ele></ele><time>2014-6-14T20:23:41Z</time></trkpt>
<trkpt lat="45.384596" lon="4.460631"><ele></ele><time>2014-6-14T20:23:44Z</time></trkpt>
<trkpt lat="45.384596" lon="4.460631"><ele></ele><time>2014-6-14T20:23:47Z</time></trkpt>
<trkpt lat="45.384596" lon="4.460631"><ele></ele><time>2014-6-14T20:23:50Z</time></trkpt>
<trkpt lat="45.384596" lon="4.460631"><ele></ele><time>2014-6-14T20:23:53Z</time></trkpt>
<trkpt lat="45.384596" lon="4.460631"><ele></ele><time>2014-6-14T20:23:56Z</time></trkpt>
<trkpt lat="45.384596" lon="4.460631"><ele></ele><time>2014-6-14T20:23:59Z</time></trkpt>
<trkpt lat="45.384596" lon="4.460631"><ele></ele><time>2014-6-14T20:24:2Z</time></trkpt>
<trkpt lat="45.384596" lon="4.460631"><ele></ele><time>2014-6-14T20:24:5Z</time></trkpt>
<trkpt lat="45.384596" lon="4.460631"><ele></ele><time>2014-6-14T20:24:8Z</time></trkpt>
<trkpt lat="45.384596" lon="4.460631"><ele></ele><time>2014-6-14T20:24:11Z</time></trkpt>
<trkpt lat="45.384596" lon="4.460631"><ele></ele><time>2014-6-14T20:24:14Z</time></trkpt>
<trkpt lat="45.384596" lon="4.460631"><ele></ele><time>2014-6-14T20:24:17Z</time></trkpt>
<trkpt lat="45.384596" lon="4.460631"><ele></ele><time>2014-6-14T20:24:20Z</time></trkpt>
<trkpt lat="45.384596" lon="4.460631"><ele></ele><time>2014-6-14T20:24:23Z</time></trkpt>
<trkpt lat="45.384596" lon="4.460631"><ele></ele><time>2014-6-14T20:24:26Z</time></trkpt>
<trkpt lat="45.384596" lon="4.460631"><ele></ele><time>2014-6-14T20:24:29Z</time></trkpt>
<trkpt lat="45.384596" lon="4.460631"><ele></ele><time>2014-6-14T20:24:32Z</time></trkpt>
<trkpt lat="45.384596" lon="4.460631"><ele></ele><time>2014-6-14T20:24:35Z</time></trkpt>
<trkpt lat="45.384596" lon="4.460631"><ele></ele><time>2014-6-14T20:24:38Z</time></trkpt>
<trkpt lat="45.384596" lon="4.460631"><ele></ele><time>2014-6-14T20:24:41Z</time></trkpt>
<trkpt lat="45.384596" lon="4.460631"><ele></ele><time>2014-6-14T20:24:44Z</time></trkpt>
<trkpt lat="45.384596" lon="4.460631"><ele></ele><time>2014-6-14T20:24:47Z</time></trkpt>
<trkpt lat="45.384596" lon="4.460631"><ele></ele><time>2014-6-14T20:24:50Z</time></trkpt>
<trkpt lat="45.384596" lon="4.460631"><ele></ele><time>2014-6-14T20:24:53Z</time></trkpt>
<trkpt lat="45.384596" lon="4.460631"><ele></ele><time>2014-6-14T20:24:56Z</time></trkpt>
<trkpt lat="45.384596" lon="4.460631"><ele></ele><time>2014-6-14T20:24:59Z</time></trkpt>
<trkpt lat="45.384596" lon="4.460631"><ele></ele><time>2014-6-14T20:25:2Z</time></trkpt>
<trkpt lat="45.384593" lon="4.460621"><ele></ele><time>2014-6-14T20:25:5Z</time></trkpt>
<trkpt lat="45.384593" lon="4.460609"><ele></ele><time>2014-6-14T20:25:8Z</time></trkpt>
<trkpt lat="45.384585" lon="4.46061"><ele></ele><time>2014-6-14T20:25:11Z</time></trkpt>
<trkpt lat="45.384591" lon="4.460615"><ele></ele><time>2014-6-14T20:25:14Z</time></trkpt>
<trkpt lat="45.384603" lon="4.460621"><ele></ele><time>2014-6-14T20:25:17Z</time></trkpt>
<trkpt lat="45.384615" lon="4.460627"><ele></ele><time>2014-6-14T20:25:20Z</time></trkpt>
<trkpt lat="45.384627" lon="4.46063"><ele></ele><time>2014-6-14T20:25:23Z</time></trkpt>
<trkpt lat="45.384643" lon="4.460627"><ele></ele><time>2014-6-14T20:25:26Z</time></trkpt>
<trkpt lat="45.384661" lon="4.460623"><ele></ele><time>2014-6-14T20:25:29Z</time></trkpt>
<trkpt lat="45.384681" lon="4.46062"><ele></ele><time>2014-6-14T20:25:32Z</time></trkpt>
<trkpt lat="45.384702" lon="4.460622"><ele></ele><time>2014-6-14T20:25:35Z</time></trkpt>
<trkpt lat="45.384722" lon="4.460623"><ele></ele><time>2014-6-14T20:25:38Z</time></trkpt>
<trkpt lat="45.38474" lon="4.460623"><ele></ele><time>2014-6-14T20:25:41Z</time></trkpt>
<trkpt lat="45.384756" lon="4.460623"><ele></ele><time>2014-6-14T20:25:44Z</time></trkpt>
<trkpt lat="45.384772" lon="4.460633"><ele></ele><time>2014-6-14T20:25:47Z</time></trkpt>
<trkpt lat="45.384791" lon="4.460637"><ele></ele><time>2014-6-14T20:25:50Z</time></trkpt>
<trkpt lat="45.384809" lon="4.460638"><ele></ele><time>2014-6-14T20:25:53Z</time></trkpt>
<trkpt lat="45.384813" lon="4.460624"><ele></ele><time>2014-6-14T20:25:56Z</time></trkpt>
<trkpt lat="45.384821" lon="4.460613"><ele></ele><time>2014-6-14T20:25:59Z</time></trkpt>
<trkpt lat="45.384832" lon="4.460607"><ele></ele><time>2014-6-14T20:26:2Z</time></trkpt>
<trkpt lat="45.384843" lon="4.460603"><ele></ele><time>2014-6-14T20:26:5Z</time></trkpt>
<trkpt lat="45.384856" lon="4.460598"><ele></ele><time>2014-6-14T20:26:8Z</time></trkpt>
<trkpt lat="45.384869" lon="4.460583"><ele></ele><time>2014-6-14T20:26:11Z</time></trkpt>
<trkpt lat="45.384885" lon="4.460571"><ele></ele><time>2014-6-14T20:26:14Z</time></trkpt>
<trkpt lat="45.384896" lon="4.460545"><ele></ele><time>2014-6-14T20:26:17Z</time></trkpt>
<trkpt lat="45.384904" lon="4.460516"><ele></ele><time>2014-6-14T20:26:20Z</time></trkpt>
<trkpt lat="45.384914" lon="4.460494"><ele></ele><time>2014-6-14T20:26:23Z</time></trkpt>
<trkpt lat="45.384919" lon="4.460469"><ele></ele><time>2014-6-14T20:26:26Z</time></trkpt>
<trkpt lat="45.384924" lon="4.460447"><ele></ele><time>2014-6-14T20:26:29Z</time></trkpt>
<trkpt lat="45.384928" lon="4.460426"><ele></ele><time>2014-6-14T20:26:32Z</time></trkpt>
<trkpt lat="45.384933" lon="4.4604"><ele></ele><time>2014-6-14T20:26:35Z</time></trkpt>
<trkpt lat="45.384937" lon="4.460372"><ele></ele><time>2014-6-14T20:26:38Z</time></trkpt>
<trkpt lat="45.384939" lon="4.460342"><ele></ele><time>2014-6-14T20:26:41Z</time></trkpt>
<trkpt lat="45.384943" lon="4.460311"><ele></ele><time>2014-6-14T20:26:44Z</time></trkpt>
<trkpt lat="45.384942" lon="4.460282"><ele></ele><time>2014-6-14T20:26:47Z</time></trkpt>
<trkpt lat="45.384942" lon="4.460253"><ele></ele><time>2014-6-14T20:26:50Z</time></trkpt>
<trkpt lat="45.38494" lon="4.460223"><ele></ele><time>2014-6-14T20:26:53Z</time></trkpt>
<trkpt lat="45.384939" lon="4.460192"><ele></ele><time>2014-6-14T20:26:56Z</time></trkpt>
<trkpt lat="45.384942" lon="4.460159"><ele></ele><time>2014-6-14T20:26:59Z</time></trkpt>
<trkpt lat="45.384946" lon="4.460127"><ele></ele><time>2014-6-14T20:27:2Z</time></trkpt>
<trkpt lat="45.384947" lon="4.460094"><ele></ele><time>2014-6-14T20:27:5Z</time></trkpt>
<trkpt lat="45.384946" lon="4.460062"><ele></ele><time>2014-6-14T20:27:8Z</time></trkpt>
<trkpt lat="45.384947" lon="4.46003"><ele></ele><time>2014-6-14T20:27:11Z</time></trkpt>
<trkpt lat="45.384953" lon="4.46"><ele></ele><time>2014-6-14T20:27:14Z</time></trkpt>
<trkpt lat="45.384957" lon="4.459971"><ele></ele><time>2014-6-14T20:27:17Z</time></trkpt>
<trkpt lat="45.384968" lon="4.459946"><ele></ele><time>2014-6-14T20:27:20Z</time></trkpt>
<trkpt lat="45.384985" lon="4.459924"><ele></ele><time>2014-6-14T20:27:23Z</time></trkpt>
<trkpt lat="45.385" lon="4.459908"><ele></ele><time>2014-6-14T20:27:26Z</time></trkpt>
<trkpt lat="45.385018" lon="4.459901"><ele></ele><time>2014-6-14T20:27:29Z</time></trkpt>
<trkpt lat="45.385037" lon="4.459897"><ele></ele><time>2014-6-14T20:27:32Z</time></trkpt>
<trkpt lat="45.385059" lon="4.459893"><ele></ele><time>2014-6-14T20:27:35Z</time></trkpt>
<trkpt lat="45.385079" lon="4.459894"><ele></ele><time>2014-6-14T20:27:38Z</time></trkpt>
<trkpt lat="45.385097" lon="4.459899"><ele></ele><time>2014-6-14T20:27:41Z</time></trkpt>
<trkpt lat="45.385116" lon="4.459896"><ele></ele><time>2014-6-14T20:27:44Z</time></trkpt>
<trkpt lat="45.385135" lon="4.459893"><ele></ele><time>2014-6-14T20:27:47Z</time></trkpt>
<trkpt lat="45.385153" lon="4.459891"><ele></ele><time>2014-6-14T20:27:50Z</time></trkpt>
<trkpt lat="45.385171" lon="4.459891"><ele></ele><time>2014-6-14T20:27:53Z</time></trkpt>
<trkpt lat="45.38519" lon="4.459885"><ele></ele><time>2014-6-14T20:27:56Z</time></trkpt>
<trkpt lat="45.385211" lon="4.459877"><ele></ele><time>2014-6-14T20:27:59Z</time></trkpt>
<trkpt lat="45.385233" lon="4.459873"><ele></ele><time>2014-6-14T20:28:2Z</time></trkpt>
<trkpt lat="45.385254" lon="4.459865"><ele></ele><time>2014-6-14T20:28:5Z</time></trkpt>
<trkpt lat="45.385269" lon="4.459852"><ele></ele><time>2014-6-14T20:28:8Z</time></trkpt>
<trkpt lat="45.38529" lon="4.459848"><ele></ele><time>2014-6-14T20:28:11Z</time></trkpt>
<trkpt lat="45.38531" lon="4.459853"><ele></ele><time>2014-6-14T20:28:14Z</time></trkpt>
<trkpt lat="45.385328" lon="4.459851"><ele></ele><time>2014-6-14T20:28:17Z</time></trkpt>
<trkpt lat="45.385345" lon="4.459844"><ele></ele><time>2014-6-14T20:28:20Z</time></trkpt>
<trkpt lat="45.385366" lon="4.459838"><ele></ele><time>2014-6-14T20:28:23Z</time></trkpt>
<trkpt lat="45.385384" lon="4.459837"><ele></ele><time>2014-6-14T20:28:26Z</time></trkpt>
<trkpt lat="45.385405" lon="4.459835"><ele></ele><time>2014-6-14T20:28:29Z</time></trkpt>
<trkpt lat="45.385423" lon="4.459832"><ele></ele><time>2014-6-14T20:28:32Z</time></trkpt>
<trkpt lat="45.385442" lon="4.459828"><ele></ele><time>2014-6-14T20:28:35Z</time></trkpt>
<trkpt lat="45.385463" lon="4.459828"><ele></ele><time>2014-6-14T20:28:38Z</time></trkpt>
<trkpt lat="45.385482" lon="4.459825"><ele></ele><time>2014-6-14T20:28:41Z</time></trkpt>
<trkpt lat="45.385499" lon="4.459822"><ele></ele><time>2014-6-14T20:28:44Z</time></trkpt>
<trkpt lat="45.385519" lon="4.459819"><ele></ele><time>2014-6-14T20:28:47Z</time></trkpt>
<trkpt lat="45.38554" lon="4.459819"><ele></ele><time>2014-6-14T20:28:50Z</time></trkpt>
<trkpt lat="45.385564" lon="4.459818"><ele></ele><time>2014-6-14T20:28:53Z</time></trkpt>
<trkpt lat="45.385585" lon="4.459813"><ele></ele><time>2014-6-14T20:28:56Z</time></trkpt>
<trkpt lat="45.385606" lon="4.459806"><ele></ele><time>2014-6-14T20:28:59Z</time></trkpt>
<trkpt lat="45.385626" lon="4.459796"><ele></ele><time>2014-6-14T20:29:2Z</time></trkpt>
<trkpt lat="45.385649" lon="4.459787"><ele></ele><time>2014-6-14T20:29:5Z</time></trkpt>
<trkpt lat="45.385672" lon="4.459779"><ele></ele><time>2014-6-14T20:29:8Z</time></trkpt>
<trkpt lat="45.385696" lon="4.45977"><ele></ele><time>2014-6-14T20:29:11Z</time></trkpt>
<trkpt lat="45.385721" lon="4.45976"><ele></ele><time>2014-6-14T20:29:14Z</time></trkpt>
<trkpt lat="45.385747" lon="4.45975"><ele></ele><time>2014-6-14T20:29:17Z</time></trkpt>
<trkpt lat="45.385771" lon="4.459742"><ele></ele><time>2014-6-14T20:29:20Z</time></trkpt>
<trkpt lat="45.385794" lon="4.45974"><ele></ele><time>2014-6-14T20:29:23Z</time></trkpt>
<trkpt lat="45.385822" lon="4.459734"><ele></ele><time>2014-6-14T20:29:26Z</time></trkpt>
<trkpt lat="45.385853" lon="4.459731"><ele></ele><time>2014-6-14T20:29:29Z</time></trkpt>
<trkpt lat="45.385885" lon="4.459727"><ele></ele><time>2014-6-14T20:29:32Z</time></trkpt>
<trkpt lat="45.385918" lon="4.459718"><ele></ele><time>2014-6-14T20:29:35Z</time></trkpt>
<trkpt lat="45.38595" lon="4.459714"><ele></ele><time>2014-6-14T20:29:38Z</time></trkpt>
<trkpt lat="45.385977" lon="4.4597"><ele></ele><time>2014-6-14T20:29:41Z</time></trkpt>
<trkpt lat="45.386005" lon="4.459688"><ele></ele><time>2014-6-14T20:29:44Z</time></trkpt>
<trkpt lat="45.386036" lon="4.459671"><ele></ele><time>2014-6-14T20:29:47Z</time></trkpt>
<trkpt lat="45.386067" lon="4.459667"><ele></ele><time>2014-6-14T20:29:50Z</time></trkpt>
<trkpt lat="45.3861" lon="4.459663"><ele></ele><time>2014-6-14T20:29:53Z</time></trkpt>
<trkpt lat="45.386131" lon="4.459655"><ele></ele><time>2014-6-14T20:29:56Z</time></trkpt>
<trkpt lat="45.386163" lon="4.459649"><ele></ele><time>2014-6-14T20:29:59Z</time></trkpt>
<trkpt lat="45.386189" lon="4.459641"><ele></ele><time>2014-6-14T20:30:2Z</time></trkpt>
<trkpt lat="45.386215" lon="4.459631"><ele></ele><time>2014-6-14T20:30:5Z</time></trkpt>
<trkpt lat="45.386233" lon="4.459617"><ele></ele><time>2014-6-14T20:30:8Z</time></trkpt>
<trkpt lat="45.386261" lon="4.459607"><ele></ele><time>2014-6-14T20:30:11Z</time></trkpt>
<trkpt lat="45.386289" lon="4.459606"><ele></ele><time>2014-6-14T20:30:14Z</time></trkpt>
<trkpt lat="45.38632" lon="4.459608"><ele></ele><time>2014-6-14T20:30:17Z</time></trkpt>
<trkpt lat="45.386349" lon="4.459608"><ele></ele><time>2014-6-14T20:30:20Z</time></trkpt>
<trkpt lat="45.386376" lon="4.459602"><ele></ele><time>2014-6-14T20:30:23Z</time></trkpt>
<trkpt lat="45.386403" lon="4.459587"><ele></ele><time>2014-6-14T20:30:26Z</time></trkpt>
<trkpt lat="45.386437" lon="4.459577"><ele></ele><time>2014-6-14T20:30:29Z</time></trkpt>
<trkpt lat="45.386459" lon="4.459548"><ele></ele><time>2014-6-14T20:30:32Z</time></trkpt>
<trkpt lat="45.386473" lon="4.459511"><ele></ele><time>2014-6-14T20:30:35Z</time></trkpt>
<trkpt lat="45.386482" lon="4.459472"><ele></ele><time>2014-6-14T20:30:38Z</time></trkpt>
<trkpt lat="45.38649" lon="4.459426"><ele></ele><time>2014-6-14T20:30:41Z</time></trkpt>
<trkpt lat="45.386503" lon="4.459383"><ele></ele><time>2014-6-14T20:30:44Z</time></trkpt>
<trkpt lat="45.386524" lon="4.459359"><ele></ele><time>2014-6-14T20:30:47Z</time></trkpt>
<trkpt lat="45.386548" lon="4.459344"><ele></ele><time>2014-6-14T20:30:50Z</time></trkpt>
<trkpt lat="45.386572" lon="4.459336"><ele></ele><time>2014-6-14T20:30:53Z</time></trkpt>
<trkpt lat="45.386596" lon="4.459332"><ele></ele><time>2014-6-14T20:30:56Z</time></trkpt>
<trkpt lat="45.386623" lon="4.459325"><ele></ele><time>2014-6-14T20:30:59Z</time></trkpt>
<trkpt lat="45.38665" lon="4.459322"><ele></ele><time>2014-6-14T20:31:2Z</time></trkpt>
<trkpt lat="45.386676" lon="4.459312"><ele></ele><time>2014-6-14T20:31:5Z</time></trkpt>
<trkpt lat="45.386702" lon="4.459299"><ele></ele><time>2014-6-14T20:31:8Z</time></trkpt>
<trkpt lat="45.386724" lon="4.459288"><ele></ele><time>2014-6-14T20:31:11Z</time></trkpt>
<trkpt lat="45.386746" lon="4.459284"><ele></ele><time>2014-6-14T20:31:14Z</time></trkpt>
<trkpt lat="45.386772" lon="4.459284"><ele></ele><time>2014-6-14T20:31:17Z</time></trkpt>
<trkpt lat="45.386799" lon="4.459283"><ele></ele><time>2014-6-14T20:31:20Z</time></trkpt>
<trkpt lat="45.386821" lon="4.459282"><ele></ele><time>2014-6-14T20:31:23Z</time></trkpt>
<trkpt lat="45.386845" lon="4.459276"><ele></ele><time>2014-6-14T20:31:26Z</time></trkpt>
<trkpt lat="45.386866" lon="4.459274"><ele></ele><time>2014-6-14T20:31:29Z</time></trkpt>
<trkpt lat="45.386881" lon="4.459273"><ele></ele><time>2014-6-14T20:31:32Z</time></trkpt>
<trkpt lat="45.386896" lon="4.459277"><ele></ele><time>2014-6-14T20:31:35Z</time></trkpt>
<trkpt lat="45.386912" lon="4.459279"><ele></ele><time>2014-6-14T20:31:38Z</time></trkpt>
<trkpt lat="45.386924" lon="4.45927"><ele></ele><time>2014-6-14T20:31:41Z</time></trkpt>
<trkpt lat="45.386935" lon="4.459268"><ele></ele><time>2014-6-14T20:31:44Z</time></trkpt>
<trkpt lat="45.386948" lon="4.459265"><ele></ele><time>2014-6-14T20:31:47Z</time></trkpt>
<trkpt lat="45.386965" lon="4.45926"><ele></ele><time>2014-6-14T20:31:50Z</time></trkpt>
<trkpt lat="45.386985" lon="4.459258"><ele></ele><time>2014-6-14T20:31:53Z</time></trkpt>
<trkpt lat="45.387" lon="4.459245"><ele></ele><time>2014-6-14T20:31:56Z</time></trkpt>
<trkpt lat="45.387015" lon="4.459241"><ele></ele><time>2014-6-14T20:31:59Z</time></trkpt>
<trkpt lat="45.387034" lon="4.459235"><ele></ele><time>2014-6-14T20:32:2Z</time></trkpt>
<trkpt lat="45.387052" lon="4.459227"><ele></ele><time>2014-6-14T20:32:5Z</time></trkpt>
<trkpt lat="45.387071" lon="4.459218"><ele></ele><time>2014-6-14T20:32:8Z</time></trkpt>
<trkpt lat="45.387087" lon="4.459213"><ele></ele><time>2014-6-14T20:32:11Z</time></trkpt>
<trkpt lat="45.387106" lon="4.459206"><ele></ele><time>2014-6-14T20:32:14Z</time></trkpt>
<trkpt lat="45.387125" lon="4.459193"><ele></ele><time>2014-6-14T20:32:17Z</time></trkpt>
<trkpt lat="45.387147" lon="4.459185"><ele></ele><time>2014-6-14T20:32:20Z</time></trkpt>
<trkpt lat="45.387173" lon="4.459183"><ele></ele><time>2014-6-14T20:32:23Z</time></trkpt>
<trkpt lat="45.387192" lon="4.459175"><ele></ele><time>2014-6-14T20:32:26Z</time></trkpt>
<trkpt lat="45.387213" lon="4.459165"><ele></ele><time>2014-6-14T20:32:29Z</time></trkpt>
<trkpt lat="45.387237" lon="4.459157"><ele></ele><time>2014-6-14T20:32:32Z</time></trkpt>
<trkpt lat="45.387262" lon="4.459144"><ele></ele><time>2014-6-14T20:32:35Z</time></trkpt>
<trkpt lat="45.38729" lon="4.459134"><ele></ele><time>2014-6-14T20:32:38Z</time></trkpt>
<trkpt lat="45.387312" lon="4.459128"><ele></ele><time>2014-6-14T20:32:41Z</time></trkpt>
<trkpt lat="45.387339" lon="4.459125"><ele></ele><time>2014-6-14T20:32:44Z</time></trkpt>
<trkpt lat="45.387367" lon="4.459128"><ele></ele><time>2014-6-14T20:32:47Z</time></trkpt>
<trkpt lat="45.387395" lon="4.459128"><ele></ele><time>2014-6-14T20:32:50Z</time></trkpt>
<trkpt lat="45.387423" lon="4.45913"><ele></ele><time>2014-6-14T20:32:53Z</time></trkpt>
<trkpt lat="45.387448" lon="4.459132"><ele></ele><time>2014-6-14T20:32:56Z</time></trkpt>
<trkpt lat="45.387475" lon="4.459131"><ele></ele><time>2014-6-14T20:32:59Z</time></trkpt>
<trkpt lat="45.387503" lon="4.459129"><ele></ele><time>2014-6-14T20:33:2Z</time></trkpt>
<trkpt lat="45.387524" lon="4.459129"><ele></ele><time>2014-6-14T20:33:5Z</time></trkpt>
<trkpt lat="45.38755" lon="4.459127"><ele></ele><time>2014-6-14T20:33:8Z</time></trkpt>
<trkpt lat="45.387574" lon="4.459126"><ele></ele><time>2014-6-14T20:33:11Z</time></trkpt>
<trkpt lat="45.3876" lon="4.459128"><ele></ele><time>2014-6-14T20:33:14Z</time></trkpt>
<trkpt lat="45.387629" lon="4.459135"><ele></ele><time>2014-6-14T20:33:17Z</time></trkpt>
<trkpt lat="45.387658" lon="4.459139"><ele></ele><time>2014-6-14T20:33:20Z</time></trkpt>
<trkpt lat="45.387685" lon="4.459149"><ele></ele><time>2014-6-14T20:33:23Z</time></trkpt>
<trkpt lat="45.387711" lon="4.459154"><ele></ele><time>2014-6-14T20:33:26Z</time></trkpt>
<trkpt lat="45.387741" lon="4.459158"><ele></ele><time>2014-6-14T20:33:29Z</time></trkpt>
<trkpt lat="45.387769" lon="4.45916"><ele></ele><time>2014-6-14T20:33:32Z</time></trkpt>
<trkpt lat="45.387797" lon="4.459169"><ele></ele><time>2014-6-14T20:33:35Z</time></trkpt>
<trkpt lat="45.387827" lon="4.459178"><ele></ele><time>2014-6-14T20:33:38Z</time></trkpt>
<trkpt lat="45.387851" lon="4.459189"><ele></ele><time>2014-6-14T20:33:41Z</time></trkpt>
<trkpt lat="45.387875" lon="4.459195"><ele></ele><time>2014-6-14T20:33:44Z</time></trkpt>
<trkpt lat="45.387902" lon="4.459202"><ele></ele><time>2014-6-14T20:33:47Z</time></trkpt>
<trkpt lat="45.38793" lon="4.459206"><ele></ele><time>2014-6-14T20:33:50Z</time></trkpt>
<trkpt lat="45.387959" lon="4.459213"><ele></ele><time>2014-6-14T20:33:53Z</time></trkpt>
<trkpt lat="45.387986" lon="4.459219"><ele></ele><time>2014-6-14T20:33:56Z</time></trkpt>
<trkpt lat="45.388012" lon="4.459228"><ele></ele><time>2014-6-14T20:33:59Z</time></trkpt>
<trkpt lat="45.388038" lon="4.459236"><ele></ele><time>2014-6-14T20:34:2Z</time></trkpt>
<trkpt lat="45.388065" lon="4.459243"><ele></ele><time>2014-6-14T20:34:5Z</time></trkpt>
<trkpt lat="45.388088" lon="4.459252"><ele></ele><time>2014-6-14T20:34:8Z</time></trkpt>
<trkpt lat="45.388112" lon="4.459257"><ele></ele><time>2014-6-14T20:34:11Z</time></trkpt>
<trkpt lat="45.388138" lon="4.459258"><ele></ele><time>2014-6-14T20:34:14Z</time></trkpt>
<trkpt lat="45.388164" lon="4.45926"><ele></ele><time>2014-6-14T20:34:17Z</time></trkpt>
<trkpt lat="45.38819" lon="4.459264"><ele></ele><time>2014-6-14T20:34:20Z</time></trkpt>
<trkpt lat="45.388214" lon="4.459271"><ele></ele><time>2014-6-14T20:34:23Z</time></trkpt>
<trkpt lat="45.388239" lon="4.459274"><ele></ele><time>2014-6-14T20:34:26Z</time></trkpt>
<trkpt lat="45.388256" lon="4.459281"><ele></ele><time>2014-6-14T20:34:29Z</time></trkpt>
<trkpt lat="45.388277" lon="4.459284"><ele></ele><time>2014-6-14T20:34:32Z</time></trkpt>
<trkpt lat="45.388297" lon="4.459277"><ele></ele><time>2014-6-14T20:34:35Z</time></trkpt>
<trkpt lat="45.388316" lon="4.45927"><ele></ele><time>2014-6-14T20:34:38Z</time></trkpt>
<trkpt lat="45.388337" lon="4.459262"><ele></ele><time>2014-6-14T20:34:41Z</time></trkpt>
<trkpt lat="45.388362" lon="4.459255"><ele></ele><time>2014-6-14T20:34:44Z</time></trkpt>
<trkpt lat="45.388386" lon="4.459247"><ele></ele><time>2014-6-14T20:34:47Z</time></trkpt>
<trkpt lat="45.38841" lon="4.45924"><ele></ele><time>2014-6-14T20:34:50Z</time></trkpt>
<trkpt lat="45.388437" lon="4.459229"><ele></ele><time>2014-6-14T20:34:53Z</time></trkpt>
<trkpt lat="45.388466" lon="4.459217"><ele></ele><time>2014-6-14T20:34:56Z</time></trkpt>
<trkpt lat="45.388495" lon="4.459205"><ele></ele><time>2014-6-14T20:34:59Z</time></trkpt>
<trkpt lat="45.388523" lon="4.45919"><ele></ele><time>2014-6-14T20:35:2Z</time></trkpt>
<trkpt lat="45.388557" lon="4.459177"><ele></ele><time>2014-6-14T20:35:5Z</time></trkpt>
<trkpt lat="45.38859" lon="4.459163"><ele></ele><time>2014-6-14T20:35:8Z</time></trkpt>
<trkpt lat="45.388622" lon="4.459145"><ele></ele><time>2014-6-14T20:35:11Z</time></trkpt>
<trkpt lat="45.388658" lon="4.459131"><ele></ele><time>2014-6-14T20:35:14Z</time></trkpt>
<trkpt lat="45.388698" lon="4.459123"><ele></ele><time>2014-6-14T20:35:17Z</time></trkpt>
<trkpt lat="45.388757" lon="4.459133"><ele></ele><time>2014-6-14T20:35:20Z</time></trkpt>
<trkpt lat="45.388816" lon="4.459138"><ele></ele><time>2014-6-14T20:35:23Z</time></trkpt>
<trkpt lat="45.388871" lon="4.459143"><ele></ele><time>2014-6-14T20:35:26Z</time></trkpt>
<trkpt lat="45.388925" lon="4.459144"><ele></ele><time>2014-6-14T20:35:29Z</time></trkpt>
<trkpt lat="45.388977" lon="4.459144"><ele></ele><time>2014-6-14T20:35:32Z</time></trkpt>
<trkpt lat="45.389033" lon="4.45915"><ele></ele><time>2014-6-14T20:35:35Z</time></trkpt>
<trkpt lat="45.389086" lon="4.45916"><ele></ele><time>2014-6-14T20:35:38Z</time></trkpt>
<trkpt lat="45.389137" lon="4.459175"><ele></ele><time>2014-6-14T20:35:41Z</time></trkpt>
<trkpt lat="45.389187" lon="4.459201"><ele></ele><time>2014-6-14T20:35:44Z</time></trkpt>
<trkpt lat="45.389228" lon="4.45923"><ele></ele><time>2014-6-14T20:35:47Z</time></trkpt>
<trkpt lat="45.389273" lon="4.45927"><ele></ele><time>2014-6-14T20:35:50Z</time></trkpt>
<trkpt lat="45.389313" lon="4.459308"><ele></ele><time>2014-6-14T20:35:53Z</time></trkpt>
<trkpt lat="45.389353" lon="4.459343"><ele></ele><time>2014-6-14T20:35:56Z</time></trkpt>
<trkpt lat="45.389399" lon="4.459373"><ele></ele><time>2014-6-14T20:35:59Z</time></trkpt>
<trkpt lat="45.389439" lon="4.459402"><ele></ele><time>2014-6-14T20:36:2Z</time></trkpt>
<trkpt lat="45.389479" lon="4.45943"><ele></ele><time>2014-6-14T20:36:5Z</time></trkpt>
<trkpt lat="45.389519" lon="4.459462"><ele></ele><time>2014-6-14T20:36:8Z</time></trkpt>
<trkpt lat="45.389563" lon="4.459497"><ele></ele><time>2014-6-14T20:36:11Z</time></trkpt>
<trkpt lat="45.389606" lon="4.45953"><ele></ele><time>2014-6-14T20:36:14Z</time></trkpt>
<trkpt lat="45.389654" lon="4.459569"><ele></ele><time>2014-6-14T20:36:17Z</time></trkpt>
<trkpt lat="45.389712" lon="4.459616"><ele></ele><time>2014-6-14T20:36:20Z</time></trkpt>
<trkpt lat="45.389756" lon="4.459645"><ele></ele><time>2014-6-14T20:36:23Z</time></trkpt>
<trkpt lat="45.389803" lon="4.459676"><ele></ele><time>2014-6-14T20:36:26Z</time></trkpt>
<trkpt lat="45.389846" lon="4.459705"><ele></ele><time>2014-6-14T20:36:29Z</time></trkpt>
<trkpt lat="45.389884" lon="4.459738"><ele></ele><time>2014-6-14T20:36:32Z</time></trkpt>
<trkpt lat="45.389942" lon="4.459801"><ele></ele><time>2014-6-14T20:36:35Z</time></trkpt>
<trkpt lat="45.389975" lon="4.459843"><ele></ele><time>2014-6-14T20:36:38Z</time></trkpt>
<trkpt lat="45.390003" lon="4.459886"><ele></ele><time>2014-6-14T20:36:41Z</time></trkpt>
<trkpt lat="45.390031" lon="4.459916"><ele></ele><time>2014-6-14T20:36:44Z</time></trkpt>
<trkpt lat="45.390062" lon="4.459942"><ele></ele><time>2014-6-14T20:36:47Z</time></trkpt>
<trkpt lat="45.390092" lon="4.459969"><ele></ele><time>2014-6-14T20:36:50Z</time></trkpt>
<trkpt lat="45.390125" lon="4.459994"><ele></ele><time>2014-6-14T20:36:53Z</time></trkpt>
<trkpt lat="45.390156" lon="4.460017"><ele></ele><time>2014-6-14T20:36:56Z</time></trkpt>
<trkpt lat="45.390189" lon="4.460037"><ele></ele><time>2014-6-14T20:36:59Z</time></trkpt>
<trkpt lat="45.390218" lon="4.460059"><ele></ele><time>2014-6-14T20:37:2Z</time></trkpt>
<trkpt lat="45.390243" lon="4.460076"><ele></ele><time>2014-6-14T20:37:5Z</time></trkpt>
<trkpt lat="45.390269" lon="4.460087"><ele></ele><time>2014-6-14T20:37:8Z</time></trkpt>
<trkpt lat="45.390294" lon="4.460099"><ele></ele><time>2014-6-14T20:37:11Z</time></trkpt>
<trkpt lat="45.390307" lon="4.46011"><ele></ele><time>2014-6-14T20:37:14Z</time></trkpt>
<trkpt lat="45.390316" lon="4.460112"><ele></ele><time>2014-6-14T20:37:17Z</time></trkpt>
<trkpt lat="45.390329" lon="4.460117"><ele></ele><time>2014-6-14T20:37:20Z</time></trkpt>
<trkpt lat="45.390329" lon="4.460117"><ele></ele><time>2014-6-14T20:37:23Z</time></trkpt>
<trkpt lat="45.390329" lon="4.460117"><ele></ele><time>2014-6-14T20:37:26Z</time></trkpt>
<trkpt lat="45.390329" lon="4.460117"><ele></ele><time>2014-6-14T20:37:29Z</time></trkpt>
<trkpt lat="45.390326" lon="4.460103"><ele></ele><time>2014-6-14T20:37:32Z</time></trkpt>
<trkpt lat="45.390338" lon="4.460094"><ele></ele><time>2014-6-14T20:37:35Z</time></trkpt>
<trkpt lat="45.390353" lon="4.460071"><ele></ele><time>2014-6-14T20:37:38Z</time></trkpt>
<trkpt lat="45.390357" lon="4.46003"><ele></ele><time>2014-6-14T20:37:41Z</time></trkpt>
<trkpt lat="45.390366" lon="4.459987"><ele></ele><time>2014-6-14T20:37:44Z</time></trkpt>
<trkpt lat="45.390371" lon="4.45994"><ele></ele><time>2014-6-14T20:37:47Z</time></trkpt>
<trkpt lat="45.390377" lon="4.459893"><ele></ele><time>2014-6-14T20:37:50Z</time></trkpt>
<trkpt lat="45.390381" lon="4.459845"><ele></ele><time>2014-6-14T20:37:53Z</time></trkpt>
<trkpt lat="45.390384" lon="4.459797"><ele></ele><time>2014-6-14T20:37:56Z</time></trkpt>
<trkpt lat="45.390386" lon="4.459747"><ele></ele><time>2014-6-14T20:37:59Z</time></trkpt>
<trkpt lat="45.390387" lon="4.459701"><ele></ele><time>2014-6-14T20:38:2Z</time></trkpt>
<trkpt lat="45.390393" lon="4.459651"><ele></ele><time>2014-6-14T20:38:5Z</time></trkpt>
<trkpt lat="45.390401" lon="4.459597"><ele></ele><time>2014-6-14T20:38:8Z</time></trkpt>
<trkpt lat="45.39042" lon="4.45955"><ele></ele><time>2014-6-14T20:38:11Z</time></trkpt>
<trkpt lat="45.39043" lon="4.459503"><ele></ele><time>2014-6-14T20:38:14Z</time></trkpt>
<trkpt lat="45.390438" lon="4.459451"><ele></ele><time>2014-6-14T20:38:17Z</time></trkpt>
<trkpt lat="45.39045" lon="4.459395"><ele></ele><time>2014-6-14T20:38:20Z</time></trkpt>
<trkpt lat="45.390458" lon="4.459341"><ele></ele><time>2014-6-14T20:38:23Z</time></trkpt>
<trkpt lat="45.390467" lon="4.459294"><ele></ele><time>2014-6-14T20:38:26Z</time></trkpt>
<trkpt lat="45.390477" lon="4.459243"><ele></ele><time>2014-6-14T20:38:29Z</time></trkpt>
<trkpt lat="45.390487" lon="4.45919"><ele></ele><time>2014-6-14T20:38:32Z</time></trkpt>
<trkpt lat="45.3905" lon="4.459143"><ele></ele><time>2014-6-14T20:38:35Z</time></trkpt>
<trkpt lat="45.390517" lon="4.459094"><ele></ele><time>2014-6-14T20:38:38Z</time></trkpt>
<trkpt lat="45.390544" lon="4.459056"><ele></ele><time>2014-6-14T20:38:41Z</time></trkpt>
<trkpt lat="45.390566" lon="4.459019"><ele></ele><time>2014-6-14T20:38:44Z</time></trkpt>
<trkpt lat="45.390587" lon="4.45898"><ele></ele><time>2014-6-14T20:38:47Z</time></trkpt>
<trkpt lat="45.390607" lon="4.458938"><ele></ele><time>2014-6-14T20:38:50Z</time></trkpt>
<trkpt lat="45.390624" lon="4.458894"><ele></ele><time>2014-6-14T20:38:53Z</time></trkpt>
<trkpt lat="45.390638" lon="4.458847"><ele></ele><time>2014-6-14T20:38:56Z</time></trkpt>
<trkpt lat="45.390648" lon="4.458796"><ele></ele><time>2014-6-14T20:38:59Z</time></trkpt>
<trkpt lat="45.390652" lon="4.45875"><ele></ele><time>2014-6-14T20:39:2Z</time></trkpt>
<trkpt lat="45.390652" lon="4.458702"><ele></ele><time>2014-6-14T20:39:5Z</time></trkpt>
<trkpt lat="45.390644" lon="4.458657"><ele></ele><time>2014-6-14T20:39:8Z</time></trkpt>
<trkpt lat="45.390636" lon="4.458611"><ele></ele><time>2014-6-14T20:39:11Z</time></trkpt>
<trkpt lat="45.390627" lon="4.458566"><ele></ele><time>2014-6-14T20:39:14Z</time></trkpt>
<trkpt lat="45.390618" lon="4.458521"><ele></ele><time>2014-6-14T20:39:17Z</time></trkpt>
<trkpt lat="45.390607" lon="4.458478"><ele></ele><time>2014-6-14T20:39:20Z</time></trkpt>
<trkpt lat="45.390597" lon="4.458438"><ele></ele><time>2014-6-14T20:39:23Z</time></trkpt>
<trkpt lat="45.390591" lon="4.458398"><ele></ele><time>2014-6-14T20:39:26Z</time></trkpt>
<trkpt lat="45.390586" lon="4.458359"><ele></ele><time>2014-6-14T20:39:29Z</time></trkpt>
<trkpt lat="45.390582" lon="4.458325"><ele></ele><time>2014-6-14T20:39:32Z</time></trkpt>
<trkpt lat="45.390578" lon="4.458294"><ele></ele><time>2014-6-14T20:39:35Z</time></trkpt>
<trkpt lat="45.390578" lon="4.458261"><ele></ele><time>2014-6-14T20:39:38Z</time></trkpt>
<trkpt lat="45.390577" lon="4.458227"><ele></ele><time>2014-6-14T20:39:41Z</time></trkpt>
<trkpt lat="45.390578" lon="4.458194"><ele></ele><time>2014-6-14T20:39:44Z</time></trkpt>
<trkpt lat="45.39058" lon="4.458167"><ele></ele><time>2014-6-14T20:39:47Z</time></trkpt>
<trkpt lat="45.390586" lon="4.458137"><ele></ele><time>2014-6-14T20:39:50Z</time></trkpt>
<trkpt lat="45.390594" lon="4.458103"><ele></ele><time>2014-6-14T20:39:53Z</time></trkpt>
<trkpt lat="45.390599" lon="4.458072"><ele></ele><time>2014-6-14T20:39:56Z</time></trkpt>
<trkpt lat="45.390603" lon="4.458041"><ele></ele><time>2014-6-14T20:39:59Z</time></trkpt>
<trkpt lat="45.390607" lon="4.458012"><ele></ele><time>2014-6-14T20:40:2Z</time></trkpt>
<trkpt lat="45.390608" lon="4.457989"><ele></ele><time>2014-6-14T20:40:5Z</time></trkpt>
<trkpt lat="45.390613" lon="4.457962"><ele></ele><time>2014-6-14T20:40:8Z</time></trkpt>
<trkpt lat="45.390622" lon="4.457943"><ele></ele><time>2014-6-14T20:40:11Z</time></trkpt>
<trkpt lat="45.390631" lon="4.45792"><ele></ele><time>2014-6-14T20:40:14Z</time></trkpt>
<trkpt lat="45.390638" lon="4.457897"><ele></ele><time>2014-6-14T20:40:17Z</time></trkpt>
<trkpt lat="45.390645" lon="4.457877"><ele></ele><time>2014-6-14T20:40:20Z</time></trkpt>
<trkpt lat="45.390654" lon="4.45785"><ele></ele><time>2014-6-14T20:40:23Z</time></trkpt>
<trkpt lat="45.390662" lon="4.457828"><ele></ele><time>2014-6-14T20:40:26Z</time></trkpt>
<trkpt lat="45.390672" lon="4.457809"><ele></ele><time>2014-6-14T20:40:29Z</time></trkpt>
<trkpt lat="45.390682" lon="4.457786"><ele></ele><time>2014-6-14T20:40:32Z</time></trkpt>
<trkpt lat="45.390694" lon="4.457765"><ele></ele><time>2014-6-14T20:40:35Z</time></trkpt>
<trkpt lat="45.390705" lon="4.457745"><ele></ele><time>2014-6-14T20:40:38Z</time></trkpt>
<trkpt lat="45.390718" lon="4.457721"><ele></ele><time>2014-6-14T20:40:41Z</time></trkpt>
<trkpt lat="45.390731" lon="4.457696"><ele></ele><time>2014-6-14T20:40:44Z</time></trkpt>
<trkpt lat="45.390741" lon="4.457673"><ele></ele><time>2014-6-14T20:40:47Z</time></trkpt>
<trkpt lat="45.390754" lon="4.457643"><ele></ele><time>2014-6-14T20:40:50Z</time></trkpt>
<trkpt lat="45.390765" lon="4.457619"><ele></ele><time>2014-6-14T20:40:53Z</time></trkpt>
<trkpt lat="45.390775" lon="4.457594"><ele></ele><time>2014-6-14T20:40:56Z</time></trkpt>
<trkpt lat="45.390783" lon="4.457571"><ele></ele><time>2014-6-14T20:40:59Z</time></trkpt>
<trkpt lat="45.390786" lon="4.45754"><ele></ele><time>2014-6-14T20:41:2Z</time></trkpt>
<trkpt lat="45.390794" lon="4.457512"><ele></ele><time>2014-6-14T20:41:5Z</time></trkpt>
<trkpt lat="45.390806" lon="4.457485"><ele></ele><time>2014-6-14T20:41:8Z</time></trkpt>
<trkpt lat="45.390812" lon="4.45746"><ele></ele><time>2014-6-14T20:41:11Z</time></trkpt>
<trkpt lat="45.390818" lon="4.457433"><ele></ele><time>2014-6-14T20:41:14Z</time></trkpt>
<trkpt lat="45.390825" lon="4.457408"><ele></ele><time>2014-6-14T20:41:17Z</time></trkpt>
<trkpt lat="45.390832" lon="4.457379"><ele></ele><time>2014-6-14T20:41:20Z</time></trkpt>
<trkpt lat="45.390839" lon="4.457358"><ele></ele><time>2014-6-14T20:41:23Z</time></trkpt>
<trkpt lat="45.390844" lon="4.457341"><ele></ele><time>2014-6-14T20:41:26Z</time></trkpt>
<trkpt lat="45.390851" lon="4.457318"><ele></ele><time>2014-6-14T20:41:29Z</time></trkpt>
<trkpt lat="45.390859" lon="4.457299"><ele></ele><time>2014-6-14T20:41:32Z</time></trkpt>
<trkpt lat="45.390863" lon="4.457273"><ele></ele><time>2014-6-14T20:41:35Z</time></trkpt>
<trkpt lat="45.390865" lon="4.457246"><ele></ele><time>2014-6-14T20:41:38Z</time></trkpt>
<trkpt lat="45.39087" lon="4.457223"><ele></ele><time>2014-6-14T20:41:41Z</time></trkpt>
<trkpt lat="45.390872" lon="4.457203"><ele></ele><time>2014-6-14T20:41:44Z</time></trkpt>
<trkpt lat="45.390875" lon="4.457178"><ele></ele><time>2014-6-14T20:41:47Z</time></trkpt>
<trkpt lat="45.390875" lon="4.457156"><ele></ele><time>2014-6-14T20:41:50Z</time></trkpt>
<trkpt lat="45.390878" lon="4.457129"><ele></ele><time>2014-6-14T20:41:53Z</time></trkpt>
<trkpt lat="45.390885" lon="4.457098"><ele></ele><time>2014-6-14T20:41:56Z</time></trkpt>
<trkpt lat="45.390893" lon="4.457075"><ele></ele><time>2014-6-14T20:41:59Z</time></trkpt>
<trkpt lat="45.390899" lon="4.457048"><ele></ele><time>2014-6-14T20:42:2Z</time></trkpt>
<trkpt lat="45.390906" lon="4.457023"><ele></ele><time>2014-6-14T20:42:5Z</time></trkpt>
<trkpt lat="45.390914" lon="4.456996"><ele></ele><time>2014-6-14T20:42:8Z</time></trkpt>
<trkpt lat="45.390922" lon="4.456966"><ele></ele><time>2014-6-14T20:42:11Z</time></trkpt>
<trkpt lat="45.390932" lon="4.456934"><ele></ele><time>2014-6-14T20:42:14Z</time></trkpt>
<trkpt lat="45.39094" lon="4.4569"><ele></ele><time>2014-6-14T20:42:17Z</time></trkpt>
<trkpt lat="45.39095" lon="4.456864"><ele></ele><time>2014-6-14T20:42:20Z</time></trkpt>
<trkpt lat="45.390958" lon="4.456832"><ele></ele><time>2014-6-14T20:42:23Z</time></trkpt>
<trkpt lat="45.390965" lon="4.456797"><ele></ele><time>2014-6-14T20:42:26Z</time></trkpt>
<trkpt lat="45.390975" lon="4.456765"><ele></ele><time>2014-6-14T20:42:29Z</time></trkpt>
<trkpt lat="45.390981" lon="4.456731"><ele></ele><time>2014-6-14T20:42:32Z</time></trkpt>
<trkpt lat="45.390988" lon="4.456695"><ele></ele><time>2014-6-14T20:42:35Z</time></trkpt>
<trkpt lat="45.390995" lon="4.456657"><ele></ele><time>2014-6-14T20:42:38Z</time></trkpt>
<trkpt lat="45.391" lon="4.456619"><ele></ele><time>2014-6-14T20:42:41Z</time></trkpt>
<trkpt lat="45.391004" lon="4.456584"><ele></ele><time>2014-6-14T20:42:44Z</time></trkpt>
<trkpt lat="45.391009" lon="4.456549"><ele></ele><time>2014-6-14T20:42:47Z</time></trkpt>
<trkpt lat="45.391016" lon="4.45651"><ele></ele><time>2014-6-14T20:42:50Z</time></trkpt>
<trkpt lat="45.391024" lon="4.45647"><ele></ele><time>2014-6-14T20:42:53Z</time></trkpt>
<trkpt lat="45.39103" lon="4.456434"><ele></ele><time>2014-6-14T20:42:56Z</time></trkpt>
<trkpt lat="45.391038" lon="4.456397"><ele></ele><time>2014-6-14T20:42:59Z</time></trkpt>
<trkpt lat="45.391045" lon="4.456362"><ele></ele><time>2014-6-14T20:43:2Z</time></trkpt>
<trkpt lat="45.391052" lon="4.456326"><ele></ele><time>2014-6-14T20:43:5Z</time></trkpt>
<trkpt lat="45.391059" lon="4.456288"><ele></ele><time>2014-6-14T20:43:8Z</time></trkpt>
<trkpt lat="45.391066" lon="4.456252"><ele></ele><time>2014-6-14T20:43:11Z</time></trkpt>
<trkpt lat="45.391073" lon="4.456217"><ele></ele><time>2014-6-14T20:43:14Z</time></trkpt>
<trkpt lat="45.39108" lon="4.456181"><ele></ele><time>2014-6-14T20:43:17Z</time></trkpt>
<trkpt lat="45.391086" lon="4.456142"><ele></ele><time>2014-6-14T20:43:20Z</time></trkpt>
<trkpt lat="45.39109" lon="4.456103"><ele></ele><time>2014-6-14T20:43:23Z</time></trkpt>
<trkpt lat="45.391096" lon="4.456066"><ele></ele><time>2014-6-14T20:43:26Z</time></trkpt>
<trkpt lat="45.391101" lon="4.456028"><ele></ele><time>2014-6-14T20:43:29Z</time></trkpt>
<trkpt lat="45.391102" lon="4.455991"><ele></ele><time>2014-6-14T20:43:32Z</time></trkpt>
<trkpt lat="45.391104" lon="4.45595"><ele></ele><time>2014-6-14T20:43:35Z</time></trkpt>
<trkpt lat="45.391107" lon="4.455914"><ele></ele><time>2014-6-14T20:43:38Z</time></trkpt>
<trkpt lat="45.391109" lon="4.455876"><ele></ele><time>2014-6-14T20:43:41Z</time></trkpt>
<trkpt lat="45.391112" lon="4.455838"><ele></ele><time>2014-6-14T20:43:44Z</time></trkpt>
<trkpt lat="45.391112" lon="4.455801"><ele></ele><time>2014-6-14T20:43:47Z</time></trkpt>
<trkpt lat="45.391115" lon="4.455761"><ele></ele><time>2014-6-14T20:43:50Z</time></trkpt>
<trkpt lat="45.391113" lon="4.455724"><ele></ele><time>2014-6-14T20:43:53Z</time></trkpt>
<trkpt lat="45.391114" lon="4.455686"><ele></ele><time>2014-6-14T20:43:56Z</time></trkpt>
<trkpt lat="45.391113" lon="4.455646"><ele></ele><time>2014-6-14T20:43:59Z</time></trkpt>
<trkpt lat="45.391118" lon="4.45561"><ele></ele><time>2014-6-14T20:44:2Z</time></trkpt>
<trkpt lat="45.391123" lon="4.455574"><ele></ele><time>2014-6-14T20:44:5Z</time></trkpt>
<trkpt lat="45.391126" lon="4.455536"><ele></ele><time>2014-6-14T20:44:8Z</time></trkpt>
<trkpt lat="45.391129" lon="4.455493"><ele></ele><time>2014-6-14T20:44:11Z</time></trkpt>
<trkpt lat="45.391133" lon="4.455456"><ele></ele><time>2014-6-14T20:44:14Z</time></trkpt>
<trkpt lat="45.391135" lon="4.455421"><ele></ele><time>2014-6-14T20:44:17Z</time></trkpt>
<trkpt lat="45.391136" lon="4.455388"><ele></ele><time>2014-6-14T20:44:20Z</time></trkpt>
<trkpt lat="45.391141" lon="4.455354"><ele></ele><time>2014-6-14T20:44:23Z</time></trkpt>
<trkpt lat="45.391146" lon="4.455324"><ele></ele><time>2014-6-14T20:44:26Z</time></trkpt>
<trkpt lat="45.391157" lon="4.455294"><ele></ele><time>2014-6-14T20:44:29Z</time></trkpt>
<trkpt lat="45.391167" lon="4.455267"><ele></ele><time>2014-6-14T20:44:32Z</time></trkpt>
<trkpt lat="45.391181" lon="4.455249"><ele></ele><time>2014-6-14T20:44:35Z</time></trkpt>
<trkpt lat="45.391197" lon="4.455244"><ele></ele><time>2014-6-14T20:44:38Z</time></trkpt>
<trkpt lat="45.391218" lon="4.455233"><ele></ele><time>2014-6-14T20:44:41Z</time></trkpt>
<trkpt lat="45.391243" lon="4.455232"><ele></ele><time>2014-6-14T20:44:44Z</time></trkpt>
<trkpt lat="45.391269" lon="4.45523"><ele></ele><time>2014-6-14T20:44:47Z</time></trkpt>
<trkpt lat="45.391295" lon="4.455228"><ele></ele><time>2014-6-14T20:44:50Z</time></trkpt>
<trkpt lat="45.391321" lon="4.455232"><ele></ele><time>2014-6-14T20:44:53Z</time></trkpt>
<trkpt lat="45.391348" lon="4.455241"><ele></ele><time>2014-6-14T20:44:56Z</time></trkpt>
<trkpt lat="45.391376" lon="4.455252"><ele></ele><time>2014-6-14T20:44:59Z</time></trkpt>
<trkpt lat="45.391401" lon="4.45526"><ele></ele><time>2014-6-14T20:45:2Z</time></trkpt>
<trkpt lat="45.391423" lon="4.455269"><ele></ele><time>2014-6-14T20:45:5Z</time></trkpt>
<trkpt lat="45.39145" lon="4.455279"><ele></ele><time>2014-6-14T20:45:8Z</time></trkpt>
<trkpt lat="45.391475" lon="4.455286"><ele></ele><time>2014-6-14T20:45:11Z</time></trkpt>
<trkpt lat="45.391504" lon="4.455291"><ele></ele><time>2014-6-14T20:45:14Z</time></trkpt>
<trkpt lat="45.39153" lon="4.4553"><ele></ele><time>2014-6-14T20:45:17Z</time></trkpt>
<trkpt lat="45.391557" lon="4.455303"><ele></ele><time>2014-6-14T20:45:20Z</time></trkpt>
<trkpt lat="45.391584" lon="4.455306"><ele></ele><time>2014-6-14T20:45:23Z</time></trkpt>
<trkpt lat="45.391612" lon="4.455314"><ele></ele><time>2014-6-14T20:45:26Z</time></trkpt>
<trkpt lat="45.39164" lon="4.455322"><ele></ele><time>2014-6-14T20:45:29Z</time></trkpt>
<trkpt lat="45.391659" lon="4.455329"><ele></ele><time>2014-6-14T20:45:32Z</time></trkpt>
<trkpt lat="45.39168" lon="4.455367"><ele></ele><time>2014-6-14T20:45:35Z</time></trkpt>
<trkpt lat="45.3917" lon="4.455387"><ele></ele><time>2014-6-14T20:45:38Z</time></trkpt>
<trkpt lat="45.391719" lon="4.455399"><ele></ele><time>2014-6-14T20:45:41Z</time></trkpt>
<trkpt lat="45.391742" lon="4.455433"><ele></ele><time>2014-6-14T20:45:44Z</time></trkpt>
<trkpt lat="45.39177" lon="4.455441"><ele></ele><time>2014-6-14T20:45:47Z</time></trkpt>
<trkpt lat="45.391794" lon="4.455462"><ele></ele><time>2014-6-14T20:45:50Z</time></trkpt>
<trkpt lat="45.391813" lon="4.455475"><ele></ele><time>2014-6-14T20:45:53Z</time></trkpt>
<trkpt lat="45.391828" lon="4.455484"><ele></ele><time>2014-6-14T20:45:56Z</time></trkpt>
<trkpt lat="45.391833" lon="4.455486"><ele></ele><time>2014-6-14T20:45:59Z</time></trkpt>
<trkpt lat="45.391838" lon="4.455489"><ele></ele><time>2014-6-14T20:46:2Z</time></trkpt>
<trkpt lat="45.391844" lon="4.455488"><ele></ele><time>2014-6-14T20:46:5Z</time></trkpt>
<trkpt lat="45.391844" lon="4.455488"><ele></ele><time>2014-6-14T20:46:8Z</time></trkpt>
<trkpt lat="45.391844" lon="4.455488"><ele></ele><time>2014-6-14T20:46:11Z</time></trkpt>
<trkpt lat="45.391844" lon="4.455488"><ele></ele><time>2014-6-14T20:46:14Z</time></trkpt>
<trkpt lat="45.391844" lon="4.455488"><ele></ele><time>2014-6-14T20:46:17Z</time></trkpt>
<trkpt lat="45.391844" lon="4.455488"><ele></ele><time>2014-6-14T20:46:20Z</time></trkpt>
<trkpt lat="45.391844" lon="4.455488"><ele></ele><time>2014-6-14T20:46:23Z</time></trkpt>
<trkpt lat="45.391844" lon="4.455488"><ele></ele><time>2014-6-14T20:46:26Z</time></trkpt>
<trkpt lat="45.391844" lon="4.455488"><ele></ele><time>2014-6-14T20:46:29Z</time></trkpt>
<trkpt lat="45.391844" lon="4.455488"><ele></ele><time>2014-6-14T20:46:32Z</time></trkpt>
<trkpt lat="45.391844" lon="4.455488"><ele></ele><time>2014-6-14T20:46:35Z</time></trkpt>
<trkpt lat="45.391844" lon="4.455488"><ele></ele><time>2014-6-14T20:46:38Z</time></trkpt>
<trkpt lat="45.391844" lon="4.455488"><ele></ele><time>2014-6-14T20:46:41Z</time></trkpt>
<trkpt lat="45.391844" lon="4.455488"><ele></ele><time>2014-6-14T20:46:44Z</time></trkpt>
<trkpt lat="45.391844" lon="4.455488"><ele></ele><time>2014-6-14T20:46:47Z</time></trkpt>
<trkpt lat="45.391844" lon="4.455488"><ele></ele><time>2014-6-14T20:46:50Z</time></trkpt>
<trkpt lat="45.391844" lon="4.455488"><ele></ele><time>2014-6-14T20:46:53Z</time></trkpt>
<trkpt lat="45.391844" lon="4.455488"><ele></ele><time>2014-6-14T20:46:56Z</time></trkpt>
<trkpt lat="45.391844" lon="4.455488"><ele></ele><time>2014-6-14T20:46:59Z</time></trkpt>
<trkpt lat="45.391844" lon="4.455488"><ele></ele><time>2014-6-14T20:47:2Z</time></trkpt>
<trkpt lat="45.391844" lon="4.455488"><ele></ele><time>2014-6-14T20:47:5Z</time></trkpt>
<trkpt lat="45.391844" lon="4.455488"><ele></ele><time>2014-6-14T20:47:8Z</time></trkpt>
<trkpt lat="45.391844" lon="4.455488"><ele></ele><time>2014-6-14T20:47:11Z</time></trkpt>
<trkpt lat="45.391844" lon="4.455488"><ele></ele><time>2014-6-14T20:47:14Z</time></trkpt>
<trkpt lat="45.391844" lon="4.455488"><ele></ele><time>2014-6-14T20:47:17Z</time></trkpt>
<trkpt lat="45.391844" lon="4.455488"><ele></ele><time>2014-6-14T20:47:20Z</time></trkpt>
<trkpt lat="45.391844" lon="4.455488"><ele></ele><time>2014-6-14T20:47:23Z</time></trkpt>
<trkpt lat="45.39185" lon="4.455486"><ele></ele><time>2014-6-14T20:47:26Z</time></trkpt>
<trkpt lat="45.391857" lon="4.455484"><ele></ele><time>2014-6-14T20:47:29Z</time></trkpt>
<trkpt lat="45.391871" lon="4.455475"><ele></ele><time>2014-6-14T20:47:32Z</time></trkpt>
<trkpt lat="45.391882" lon="4.455472"><ele></ele><time>2014-6-14T20:47:35Z</time></trkpt>
<trkpt lat="45.391895" lon="4.455476"><ele></ele><time>2014-6-14T20:47:38Z</time></trkpt>
<trkpt lat="45.391913" lon="4.45548"><ele></ele><time>2014-6-14T20:47:41Z</time></trkpt>
<trkpt lat="45.391933" lon="4.455481"><ele></ele><time>2014-6-14T20:47:44Z</time></trkpt>
<trkpt lat="45.391956" lon="4.455488"><ele></ele><time>2014-6-14T20:47:47Z</time></trkpt>
<trkpt lat="45.391978" lon="4.455498"><ele></ele><time>2014-6-14T20:47:50Z</time></trkpt>
<trkpt lat="45.392007" lon="4.455537"><ele></ele><time>2014-6-14T20:47:53Z</time></trkpt>
<trkpt lat="45.392032" lon="4.455563"><ele></ele><time>2014-6-14T20:47:56Z</time></trkpt>
<trkpt lat="45.392056" lon="4.455581"><ele></ele><time>2014-6-14T20:47:59Z</time></trkpt>
<trkpt lat="45.392077" lon="4.455601"><ele></ele><time>2014-6-14T20:48:2Z</time></trkpt>
<trkpt lat="45.392096" lon="4.455621"><ele></ele><time>2014-6-14T20:48:5Z</time></trkpt>
<trkpt lat="45.392115" lon="4.455649"><ele></ele><time>2014-6-14T20:48:8Z</time></trkpt>
<trkpt lat="45.392134" lon="4.455669"><ele></ele><time>2014-6-14T20:48:11Z</time></trkpt>
<trkpt lat="45.392155" lon="4.45568"><ele></ele><time>2014-6-14T20:48:14Z</time></trkpt>
<trkpt lat="45.392177" lon="4.455695"><ele></ele><time>2014-6-14T20:48:17Z</time></trkpt>
<trkpt lat="45.392198" lon="4.455711"><ele></ele><time>2014-6-14T20:48:20Z</time></trkpt>
<trkpt lat="45.392222" lon="4.455728"><ele></ele><time>2014-6-14T20:48:23Z</time></trkpt>
<trkpt lat="45.392247" lon="4.455747"><ele></ele><time>2014-6-14T20:48:26Z</time></trkpt>
<trkpt lat="45.39227" lon="4.455757"><ele></ele><time>2014-6-14T20:48:29Z</time></trkpt>
<trkpt lat="45.392289" lon="4.455773"><ele></ele><time>2014-6-14T20:48:32Z</time></trkpt>
<trkpt lat="45.39231" lon="4.455792"><ele></ele><time>2014-6-14T20:48:35Z</time></trkpt>
<trkpt lat="45.392326" lon="4.45581"><ele></ele><time>2014-6-14T20:48:38Z</time></trkpt>
<trkpt lat="45.392336" lon="4.455827"><ele></ele><time>2014-6-14T20:48:41Z</time></trkpt>
<trkpt lat="45.392342" lon="4.455843"><ele></ele><time>2014-6-14T20:48:44Z</time></trkpt>
<trkpt lat="45.392342" lon="4.455854"><ele></ele><time>2014-6-14T20:48:47Z</time></trkpt>
<trkpt lat="45.392346" lon="4.455863"><ele></ele><time>2014-6-14T20:48:50Z</time></trkpt>
<trkpt lat="45.392349" lon="4.455871"><ele></ele><time>2014-6-14T20:48:53Z</time></trkpt>
<trkpt lat="45.392349" lon="4.455871"><ele></ele><time>2014-6-14T20:48:56Z</time></trkpt>
<trkpt lat="45.392349" lon="4.455871"><ele></ele><time>2014-6-14T20:48:59Z</time></trkpt>
<trkpt lat="45.392349" lon="4.455871"><ele></ele><time>2014-6-14T20:49:2Z</time></trkpt>
<trkpt lat="45.392349" lon="4.455871"><ele></ele><time>2014-6-14T20:49:5Z</time></trkpt>
<trkpt lat="45.392349" lon="4.455871"><ele></ele><time>2014-6-14T20:49:8Z</time></trkpt>
<trkpt lat="45.392349" lon="4.455871"><ele></ele><time>2014-6-14T20:49:11Z</time></trkpt>
<trkpt lat="45.392349" lon="4.455871"><ele></ele><time>2014-6-14T20:49:14Z</time></trkpt>
<trkpt lat="45.392349" lon="4.455871"><ele></ele><time>2014-6-14T20:49:17Z</time></trkpt>
<trkpt lat="45.392349" lon="4.455871"><ele></ele><time>2014-6-14T20:49:20Z</time></trkpt>
<trkpt lat="45.392349" lon="4.455871"><ele></ele><time>2014-6-14T20:49:23Z</time></trkpt>
<trkpt lat="45.392349" lon="4.455871"><ele></ele><time>2014-6-14T20:49:26Z</time></trkpt>
<trkpt lat="45.392349" lon="4.455871"><ele></ele><time>2014-6-14T20:49:29Z</time></trkpt>
<trkpt lat="45.392349" lon="4.455871"><ele></ele><time>2014-6-14T20:49:32Z</time></trkpt>
<trkpt lat="45.392349" lon="4.455871"><ele></ele><time>2014-6-14T20:49:35Z</time></trkpt>
<trkpt lat="45.392349" lon="4.455871"><ele></ele><time>2014-6-14T20:49:38Z</time></trkpt>
<trkpt lat="45.392349" lon="4.455871"><ele></ele><time>2014-6-14T20:49:41Z</time></trkpt>
<trkpt lat="45.392349" lon="4.455871"><ele></ele><time>2014-6-14T20:49:44Z</time></trkpt>
<trkpt lat="45.392349" lon="4.455871"><ele></ele><time>2014-6-14T20:49:47Z</time></trkpt>
<trkpt lat="45.392349" lon="4.455871"><ele></ele><time>2014-6-14T20:49:50Z</time></trkpt>
<trkpt lat="45.392349" lon="4.455871"><ele></ele><time>2014-6-14T20:49:53Z</time></trkpt>
<trkpt lat="45.392349" lon="4.455871"><ele></ele><time>2014-6-14T20:49:56Z</time></trkpt>
<trkpt lat="45.392349" lon="4.455871"><ele></ele><time>2014-6-14T20:49:59Z</time></trkpt>
<trkpt lat="45.392349" lon="4.455871"><ele></ele><time>2014-6-14T20:50:2Z</time></trkpt>
<trkpt lat="45.392349" lon="4.455871"><ele></ele><time>2014-6-14T20:50:5Z</time></trkpt>
<trkpt lat="45.392349" lon="4.455871"><ele></ele><time>2014-6-14T20:50:8Z</time></trkpt>
<trkpt lat="45.392349" lon="4.455871"><ele></ele><time>2014-6-14T20:50:11Z</time></trkpt>
<trkpt lat="45.392349" lon="4.455871"><ele></ele><time>2014-6-14T20:50:14Z</time></trkpt>
<trkpt lat="45.392349" lon="4.455871"><ele></ele><time>2014-6-14T20:50:17Z</time></trkpt>
<trkpt lat="45.392349" lon="4.455871"><ele></ele><time>2014-6-14T20:50:20Z</time></trkpt>
<trkpt lat="45.392349" lon="4.455871"><ele></ele><time>2014-6-14T20:50:23Z</time></trkpt>
<trkpt lat="45.392349" lon="4.455871"><ele></ele><time>2014-6-14T20:50:26Z</time></trkpt>
<trkpt lat="45.392349" lon="4.455871"><ele></ele><time>2014-6-14T20:50:29Z</time></trkpt>
<trkpt lat="45.39235" lon="4.45586"><ele></ele><time>2014-6-14T20:50:32Z</time></trkpt>
<trkpt lat="45.392354" lon="4.455856"><ele></ele><time>2014-6-14T20:50:35Z</time></trkpt>
<trkpt lat="45.392365" lon="4.455859"><ele></ele><time>2014-6-14T20:50:38Z</time></trkpt>
<trkpt lat="45.392381" lon="4.455861"><ele></ele><time>2014-6-14T20:50:41Z</time></trkpt>
<trkpt lat="45.392396" lon="4.45587"><ele></ele><time>2014-6-14T20:50:44Z</time></trkpt>
<trkpt lat="45.392409" lon="4.455886"><ele></ele><time>2014-6-14T20:50:47Z</time></trkpt>
<trkpt lat="45.392426" lon="4.455903"><ele></ele><time>2014-6-14T20:50:50Z</time></trkpt>
<trkpt lat="45.392443" lon="4.45592"><ele></ele><time>2014-6-14T20:50:53Z</time></trkpt>
<trkpt lat="45.39246" lon="4.455938"><ele></ele><time>2014-6-14T20:50:56Z</time></trkpt>
<trkpt lat="45.392476" lon="4.455958"><ele></ele><time>2014-6-14T20:50:59Z</time></trkpt>
<trkpt lat="45.392495" lon="4.45597"><ele></ele><time>2014-6-14T20:51:2Z</time></trkpt>
<trkpt lat="45.392517" lon="4.455988"><ele></ele><time>2014-6-14T20:51:5Z</time></trkpt>
<trkpt lat="45.392539" lon="4.456012"><ele></ele><time>2014-6-14T20:51:8Z</time></trkpt>
<trkpt lat="45.392562" lon="4.456035"><ele></ele><time>2014-6-14T20:51:11Z</time></trkpt>
<trkpt lat="45.392587" lon="4.456057"><ele></ele><time>2014-6-14T20:51:14Z</time></trkpt>
<trkpt lat="45.392613" lon="4.456076"><ele></ele><time>2014-6-14T20:51:17Z</time></trkpt>
<trkpt lat="45.392639" lon="4.456097"><ele></ele><time>2014-6-14T20:51:20Z</time></trkpt>
<trkpt lat="45.392664" lon="4.456113"><ele></ele><time>2014-6-14T20:51:23Z</time></trkpt>
<trkpt lat="45.392688" lon="4.456134"><ele></ele><time>2014-6-14T20:51:26Z</time></trkpt>
<trkpt lat="45.392714" lon="4.456148"><ele></ele><time>2014-6-14T20:51:29Z</time></trkpt>
<trkpt lat="45.392739" lon="4.456169"><ele></ele><time>2014-6-14T20:51:32Z</time></trkpt>
<trkpt lat="45.392766" lon="4.456191"><ele></ele><time>2014-6-14T20:51:35Z</time></trkpt>
<trkpt lat="45.392793" lon="4.456214"><ele></ele><time>2014-6-14T20:51:38Z</time></trkpt>
<trkpt lat="45.392815" lon="4.456235"><ele></ele><time>2014-6-14T20:51:41Z</time></trkpt>
<trkpt lat="45.392838" lon="4.456259"><ele></ele><time>2014-6-14T20:51:44Z</time></trkpt>
<trkpt lat="45.392864" lon="4.456282"><ele></ele><time>2014-6-14T20:51:47Z</time></trkpt>
<trkpt lat="45.392888" lon="4.456305"><ele></ele><time>2014-6-14T20:51:50Z</time></trkpt>
<trkpt lat="45.392907" lon="4.456329"><ele></ele><time>2014-6-14T20:51:53Z</time></trkpt>
<trkpt lat="45.392928" lon="4.456353"><ele></ele><time>2014-6-14T20:51:56Z</time></trkpt>
<trkpt lat="45.392946" lon="4.456373"><ele></ele><time>2014-6-14T20:51:59Z</time></trkpt>
<trkpt lat="45.392967" lon="4.456394"><ele></ele><time>2014-6-14T20:52:2Z</time></trkpt>
<trkpt lat="45.392988" lon="4.456414"><ele></ele><time>2014-6-14T20:52:5Z</time></trkpt>
<trkpt lat="45.393012" lon="4.456438"><ele></ele><time>2014-6-14T20:52:8Z</time></trkpt>
<trkpt lat="45.393034" lon="4.456454"><ele></ele><time>2014-6-14T20:52:11Z</time></trkpt>
<trkpt lat="45.393057" lon="4.456473"><ele></ele><time>2014-6-14T20:52:14Z</time></trkpt>
<trkpt lat="45.393081" lon="4.456497"><ele></ele><time>2014-6-14T20:52:17Z</time></trkpt>
<trkpt lat="45.393104" lon="4.456519"><ele></ele><time>2014-6-14T20:52:20Z</time></trkpt>
<trkpt lat="45.393127" lon="4.456539"><ele></ele><time>2014-6-14T20:52:23Z</time></trkpt>
<trkpt lat="45.39315" lon="4.456563"><ele></ele><time>2014-6-14T20:52:26Z</time></trkpt>
<trkpt lat="45.393172" lon="4.45659"><ele></ele><time>2014-6-14T20:52:29Z</time></trkpt>
<trkpt lat="45.393192" lon="4.456606"><ele></ele><time>2014-6-14T20:52:32Z</time></trkpt>
<trkpt lat="45.393212" lon="4.456616"><ele></ele><time>2014-6-14T20:52:35Z</time></trkpt>
<trkpt lat="45.393225" lon="4.456638"><ele></ele><time>2014-6-14T20:52:38Z</time></trkpt>
<trkpt lat="45.393246" lon="4.456646"><ele></ele><time>2014-6-14T20:52:41Z</time></trkpt>
<trkpt lat="45.393269" lon="4.456652"><ele></ele><time>2014-6-14T20:52:44Z</time></trkpt>
<trkpt lat="45.39329" lon="4.45665"><ele></ele><time>2014-6-14T20:52:47Z</time></trkpt>
<trkpt lat="45.393305" lon="4.45663"><ele></ele><time>2014-6-14T20:52:50Z</time></trkpt>
<trkpt lat="45.393334" lon="4.456625"><ele></ele><time>2014-6-14T20:52:53Z</time></trkpt>
<trkpt lat="45.393369" lon="4.456621"><ele></ele><time>2014-6-14T20:52:56Z</time></trkpt>
<trkpt lat="45.393407" lon="4.456608"><ele></ele><time>2014-6-14T20:52:59Z</time></trkpt>
<trkpt lat="45.393444" lon="4.456595"><ele></ele><time>2014-6-14T20:53:2Z</time></trkpt>
<trkpt lat="45.393487" lon="4.45658"><ele></ele><time>2014-6-14T20:53:5Z</time></trkpt>
<trkpt lat="45.393526" lon="4.456563"><ele></ele><time>2014-6-14T20:53:8Z</time></trkpt>
<trkpt lat="45.393564" lon="4.456543"><ele></ele><time>2014-6-14T20:53:11Z</time></trkpt>
<trkpt lat="45.3936" lon="4.456524"><ele></ele><time>2014-6-14T20:53:14Z</time></trkpt>
<trkpt lat="45.393634" lon="4.456499"><ele></ele><time>2014-6-14T20:53:17Z</time></trkpt>
<trkpt lat="45.393668" lon="4.456479"><ele></ele><time>2014-6-14T20:53:20Z</time></trkpt>
<trkpt lat="45.393699" lon="4.456455"><ele></ele><time>2014-6-14T20:53:23Z</time></trkpt>
<trkpt lat="45.39373" lon="4.456431"><ele></ele><time>2014-6-14T20:53:26Z</time></trkpt>
<trkpt lat="45.393765" lon="4.456405"><ele></ele><time>2014-6-14T20:53:29Z</time></trkpt>
<trkpt lat="45.393796" lon="4.456381"><ele></ele><time>2014-6-14T20:53:32Z</time></trkpt>
<trkpt lat="45.393826" lon="4.456356"><ele></ele><time>2014-6-14T20:53:35Z</time></trkpt>
<trkpt lat="45.393852" lon="4.456334"><ele></ele><time>2014-6-14T20:53:38Z</time></trkpt>
<trkpt lat="45.393874" lon="4.456311"><ele></ele><time>2014-6-14T20:53:41Z</time></trkpt>
<trkpt lat="45.393894" lon="4.456296"><ele></ele><time>2014-6-14T20:53:44Z</time></trkpt>
<trkpt lat="45.393911" lon="4.456285"><ele></ele><time>2014-6-14T20:53:47Z</time></trkpt>
<trkpt lat="45.39393" lon="4.45628"><ele></ele><time>2014-6-14T20:53:50Z</time></trkpt>
<trkpt lat="45.39395" lon="4.456291"><ele></ele><time>2014-6-14T20:53:53Z</time></trkpt>
<trkpt lat="45.393973" lon="4.456306"><ele></ele><time>2014-6-14T20:53:56Z</time></trkpt>
<trkpt lat="45.393999" lon="4.456332"><ele></ele><time>2014-6-14T20:53:59Z</time></trkpt>
<trkpt lat="45.394028" lon="4.456363"><ele></ele><time>2014-6-14T20:54:2Z</time></trkpt>
<trkpt lat="45.394057" lon="4.456422"><ele></ele><time>2014-6-14T20:54:5Z</time></trkpt>
<trkpt lat="45.394085" lon="4.456465"><ele></ele><time>2014-6-14T20:54:8Z</time></trkpt>
<trkpt lat="45.394113" lon="4.456509"><ele></ele><time>2014-6-14T20:54:11Z</time></trkpt>
<trkpt lat="45.394141" lon="4.456557"><ele></ele><time>2014-6-14T20:54:14Z</time></trkpt>
<trkpt lat="45.394168" lon="4.456599"><ele></ele><time>2014-6-14T20:54:17Z</time></trkpt>
<trkpt lat="45.394195" lon="4.456649"><ele></ele><time>2014-6-14T20:54:20Z</time></trkpt>
<trkpt lat="45.394222" lon="4.456693"><ele></ele><time>2014-6-14T20:54:23Z</time></trkpt>
<trkpt lat="45.394249" lon="4.456742"><ele></ele><time>2014-6-14T20:54:26Z</time></trkpt>
<trkpt lat="45.394276" lon="4.45679"><ele></ele><time>2014-6-14T20:54:29Z</time></trkpt>
<trkpt lat="45.394301" lon="4.456839"><ele></ele><time>2014-6-14T20:54:32Z</time></trkpt>
<trkpt lat="45.394324" lon="4.456884"><ele></ele><time>2014-6-14T20:54:35Z</time></trkpt>
<trkpt lat="45.394342" lon="4.456926"><ele></ele><time>2014-6-14T20:54:38Z</time></trkpt>
<trkpt lat="45.394358" lon="4.45697"><ele></ele><time>2014-6-14T20:54:41Z</time></trkpt>
<trkpt lat="45.394373" lon="4.457014"><ele></ele><time>2014-6-14T20:54:44Z</time></trkpt>
<trkpt lat="45.394389" lon="4.457058"><ele></ele><time>2014-6-14T20:54:47Z</time></trkpt>
<trkpt lat="45.394403" lon="4.457104"><ele></ele><time>2014-6-14T20:54:50Z</time></trkpt>
<trkpt lat="45.394416" lon="4.457148"><ele></ele><time>2014-6-14T20:54:53Z</time></trkpt>
<trkpt lat="45.394432" lon="4.457179"><ele></ele><time>2014-6-14T20:54:56Z</time></trkpt>
<trkpt lat="45.39445" lon="4.457195"><ele></ele><time>2014-6-14T20:54:59Z</time></trkpt>
<trkpt lat="45.394473" lon="4.457196"><ele></ele><time>2014-6-14T20:55:2Z</time></trkpt>
<trkpt lat="45.394494" lon="4.457185"><ele></ele><time>2014-6-14T20:55:5Z</time></trkpt>
<trkpt lat="45.394517" lon="4.457175"><ele></ele><time>2014-6-14T20:55:8Z</time></trkpt>
<trkpt lat="45.394539" lon="4.457163"><ele></ele><time>2014-6-14T20:55:11Z</time></trkpt>
<trkpt lat="45.394564" lon="4.457146"><ele></ele><time>2014-6-14T20:55:14Z</time></trkpt>
<trkpt lat="45.394591" lon="4.457129"><ele></ele><time>2014-6-14T20:55:17Z</time></trkpt>
<trkpt lat="45.394609" lon="4.457102"><ele></ele><time>2014-6-14T20:55:20Z</time></trkpt>
<trkpt lat="45.394618" lon="4.457075"><ele></ele><time>2014-6-14T20:55:23Z</time></trkpt>
<trkpt lat="45.394618" lon="4.457044"><ele></ele><time>2014-6-14T20:55:26Z</time></trkpt>
<trkpt lat="45.394609" lon="4.457023"><ele></ele><time>2014-6-14T20:55:29Z</time></trkpt>
<trkpt lat="45.394596" lon="4.457019"><ele></ele><time>2014-6-14T20:55:32Z</time></trkpt>
<trkpt lat="45.394578" lon="4.457035"><ele></ele><time>2014-6-14T20:55:35Z</time></trkpt>
<trkpt lat="45.394558" lon="4.457054"><ele></ele><time>2014-6-14T20:55:38Z</time></trkpt>
<trkpt lat="45.394533" lon="4.457066"><ele></ele><time>2014-6-14T20:55:41Z</time></trkpt>
<trkpt lat="45.39451" lon="4.457078"><ele></ele><time>2014-6-14T20:55:44Z</time></trkpt>
<trkpt lat="45.394479" lon="4.457086"><ele></ele><time>2014-6-14T20:55:47Z</time></trkpt>
<trkpt lat="45.394455" lon="4.457064"><ele></ele><time>2014-6-14T20:55:50Z</time></trkpt>
<trkpt lat="45.394443" lon="4.45703"><ele></ele><time>2014-6-14T20:55:53Z</time></trkpt>
<trkpt lat="45.394438" lon="4.45698"><ele></ele><time>2014-6-14T20:55:56Z</time></trkpt>
<trkpt lat="45.394434" lon="4.456935"><ele></ele><time>2014-6-14T20:55:59Z</time></trkpt>
<trkpt lat="45.394432" lon="4.456898"><ele></ele><time>2014-6-14T20:56:2Z</time></trkpt>
<trkpt lat="45.39444" lon="4.456862"><ele></ele><time>2014-6-14T20:56:5Z</time></trkpt>
<trkpt lat="45.394455" lon="4.456824"><ele></ele><time>2014-6-14T20:56:8Z</time></trkpt>
<trkpt lat="45.394476" lon="4.456797"><ele></ele><time>2014-6-14T20:56:11Z</time></trkpt>
<trkpt lat="45.3945" lon="4.456775"><ele></ele><time>2014-6-14T20:56:14Z</time></trkpt>
<trkpt lat="45.394532" lon="4.456768"><ele></ele><time>2014-6-14T20:56:17Z</time></trkpt>
<trkpt lat="45.394565" lon="4.456762"><ele></ele><time>2014-6-14T20:56:20Z</time></trkpt>
<trkpt lat="45.394593" lon="4.456757"><ele></ele><time>2014-6-14T20:56:23Z</time></trkpt>
<trkpt lat="45.394619" lon="4.456741"><ele></ele><time>2014-6-14T20:56:26Z</time></trkpt>
<trkpt lat="45.394644" lon="4.456736"><ele></ele><time>2014-6-14T20:56:29Z</time></trkpt>
<trkpt lat="45.394665" lon="4.456722"><ele></ele><time>2014-6-14T20:56:32Z</time></trkpt>
<trkpt lat="45.394688" lon="4.456717"><ele></ele><time>2014-6-14T20:56:35Z</time></trkpt>
<trkpt lat="45.394709" lon="4.456714"><ele></ele><time>2014-6-14T20:56:38Z</time></trkpt>
<trkpt lat="45.394726" lon="4.456712"><ele></ele><time>2014-6-14T20:56:41Z</time></trkpt>
<trkpt lat="45.394738" lon="4.456708"><ele></ele><time>2014-6-14T20:56:44Z</time></trkpt>
<trkpt lat="45.394746" lon="4.456706"><ele></ele><time>2014-6-14T20:56:47Z</time></trkpt>
<trkpt lat="45.394752" lon="4.456706"><ele></ele><time>2014-6-14T20:56:50Z</time></trkpt>
<trkpt lat="45.394752" lon="4.456706"><ele></ele><time>2014-6-14T20:56:53Z</time></trkpt>
<trkpt lat="45.394752" lon="4.456706"><ele></ele><time>2014-6-14T20:56:56Z</time></trkpt>
<trkpt lat="45.394752" lon="4.456706"><ele></ele><time>2014-6-14T20:56:59Z</time></trkpt>
<trkpt lat="45.394752" lon="4.456706"><ele></ele><time>2014-6-14T20:57:2Z</time></trkpt>
<trkpt lat="45.394752" lon="4.456706"><ele></ele><time>2014-6-14T20:57:5Z</time></trkpt>
</trkseg></trk></gpx>